GFSSW_850_spd_000.txt.gz
Wind_Speed
13 10 9 8 8 7 8 8 7 7 8 7 14 16 11 11 11 15 15 9 8 10 10 9 10 9 9 12 14 4 2 6 8 8 10 6 3 13 7 7 6 4 6 12 9
14 12 11 9 8 7 6 7 7 7 10 9 11 12 16 14 14 20 16 13 11 13 11 9 6 8 4 6 9 7 6 9 6 10 7 12 7 14 3 3 5 4 4 9 12
15 14 13 10 9 7 6 6 5 6 9 11 11 9 6 9 7 16 18 21 19 13 13 9 8 4 3 9 7 5 11 5 6 22 19 12 10 19 11 5 7 6 6 3 12
19 16 13 12 10 8 6 6 5 5 7 8 9 8 8 8 6 2 3 2 14 18 16 13 7 4 3 5 10 8 13 17 9 19 17 4 10 8 13 15 12 11 12 10 13
19 17 14 12 12 9 7 6 5 5 5 5 5 5 10 11 14 4 9 6 5 9 17 18 12 5 4 5 9 9 7 18 22 27 29 28 17 14 21 23 16 14 17 20 21
19 17 16 13 13 11 8 7 7 6 5 3 5 8 11 7 9 19 13 6 3 5 5 17 11 11 8 8 9 8 10 17 20 21 20 21 24 16 22 25 22 16 20 25 24
20 18 16 15 14 13 10 9 8 7 6 5 4 7 12 20 8 13 20 21 12 8 10 8 20 10 2 4 13 9 11 11 10 11 11 22 22 16 23 27 25 21 25 25 27
20 18 17 15 14 14 12 9 8 9 8 7 6 7 9 5 9 17 13 17 16 16 15 11 6 14 9 9 7 4 4 8 4 9 7 11 25 8 21 23 25 26 30 30 31
22 20 19 15 15 15 13 11 8 9 9 8 7 6 10 6 10 11 20 16 11 16 17 14 11 8 2 2 5 4 6 6 5 6 5 12 24 11 24 23 26 31 31 31 31
24 22 19 16 14 14 14 11 7 7 8 7 8 4 12 7 4 3 22 17 7 9 9 10 5 2 2 5 14 12 7 9 9 3 8 17 21 9 20 26 25 32 31 29 26
25 23 21 17 15 15 17 11 5 5 14 11 11 6 1 4 4 4 19 16 11 6 5 2 4 11 11 9 5 7 9 12 4 4 10 15 17 17 19 21 21 31 26 20 29
26 25 23 19 17 16 19 13 8 4 5 21 25 19 13 8 4 6 13 14 11 9 4 3 11 8 7 8 10 11 16 15 9 9 8 9 15 14 15 16 24 27 25 25 28
26 26 24 20 19 19 24 21 12 4 3 7 23 18 21 21 8 12 18 15 8 14 14 13 6 15 12 11 11 14 17 10 9 14 18 12 22 13 12 18 27 26 30 30 36
27 27 26 23 21 23 25 21 11 3 3 4 4 4 12 15 6 28 22 14 5 16 13 13 18 15 11 14 10 18 7 13 13 6 7 3 9 8 9 13 12 18 23 36 36
28 28 31 30 18 27 21 17 13 3 3 4 4 5 6 13 7 8 27 18 14 8 7 8 8 15 20 18 15 11 9 11 10 10 7 18 9 5 10 10 16 14 29 37 43
27 31 32 31 22 14 16 21 15 3 8 5 5 4 6 11 3 4 16 18 4 14 14 8 3 5 7 11 17 4 9 8 6 4 11 16 9 9 10 12 8 6 27 35 41
15 35 34 32 28 22 26 26 3 5 2 6 4 5 5 7 8 7 6 9 5 7 7 6 18 5 3 3 5 12 7 3 6 6 8 6 12 19 8 15 20 10 23 32 42
36 48 36 35 28 31 33 2 6 5 5 4 4 7 6 7 6 9 5 10 14 6 2 8 4 15 11 17 5 13 15 6 6 4 5 7 10 6 17 23 27 24 29 38 42
25 32 40 35 32 35 25 4 6 6 6 9 7 6 8 6 5 9 9 9 10 13 9 6 6 2 2 4 14 5 12 20 7 5 3 5 5 8 13 8 8 15 31 35 42
28 39 39 40 33 37 8 6 5 3 6 4 8 8 8 9 8 8 9 8 8 18 13 5 3 7 6 7 13 10 7 7 7 5 5 5 5 7 7 7 6 15 24 32 37
21 17 29 40 39 26 7 6 4 6 8 6 7 8 7 6 8 7 5 4 12 10 18 5 5 1 2 9 11 9 11 6 8 8 3 4 4 8 13 9 12 16 29 34 39
18 5 38 43 7 7 5 5 5 4 7 3 5 9 7 9 7 5 8 7 17 9 11 11 4 5 13 3 10 17 16 15 8 12 10 2 6 4 16 9 17 20 29 32 39
20 12 42 42 6 9 3 7 5 5 6 7 11 10 9 6 4 11 6 9 14 8 10 10 4 3 4 6 9 12 19 19 20 4 5 4 7 9 3 8 15 19 24 29 34
8 5 14 23 6 10 13 8 7 12 10 6 5 11 5 6 8 3 8 5 13 11 17 17 4 6 7 1 2 11 21 18 15 12 9 12 13 21 5 8 7 17 28 35 39
6 4 9 9 7 12 10 4 12 7 6 11 4 11 7 4 6 8 7 4 4 11 8 6 6 7 18 17 14 12 20 21 19 9 12 5 16 27 15 10 13 24 27 29 32
6 5 11 14 16 9 14 10 12 8 6 6 8 8 13 10 6 0 6 4 5 12 8 3 3 4 13 12 16 8 23 15 12 7 7 11 14 19 3 10 11 23 27 28 34
7 13 17 14 11 8 6 8 8 3 10 12 12 8 10 16 18 11 13 5 2 4 5 7 2 3 4 7 13 6 19 13 5 8 14 13 21 5 4 6 6 21 30 34 36

GFSSW_850_spd_003.txt.gz
Wind_Speed
18 16 14 14 13 11 10 10 9 8 7 7 14 15 13 10 11 16 16 11 10 13 10 10 10 12 9 7 11 5 1 7 9 8 6 2 1 3 5 7 5 5 6 5 8
20 18 16 14 14 12 10 9 9 9 10 9 12 16 16 11 13 18 14 11 13 10 10 9 8 6 4 4 7 6 5 7 4 5 6 3 6 13 3 5 4 6 6 5 6
21 19 18 16 14 12 11 10 9 9 11 10 10 12 9 18 14 18 17 18 19 15 12 7 7 4 4 6 6 5 11 7 3 15 15 8 6 15 7 6 12 10 8 4 4
20 21 20 17 14 13 11 9 9 8 8 10 10 11 10 10 6 4 5 9 20 20 15 10 4 2 3 5 7 5 5 11 3 15 7 4 7 5 9 9 12 15 10 9 9
22 21 21 17 15 14 11 10 9 8 6 7 9 10 13 10 11 5 7 6 6 16 17 12 7 2 3 4 8 5 2 11 15 22 27 27 20 12 18 27 26 21 18 14 15
21 22 21 17 16 14 13 11 10 8 5 5 8 10 12 6 10 13 12 12 8 8 8 11 6 7 6 5 3 7 10 9 14 21 18 14 19 24 20 24 20 24 23 19 22
23 23 21 17 17 15 14 11 9 8 7 6 6 9 13 19 9 16 21 15 13 8 6 8 11 8 2 4 8 7 7 8 8 6 6 12 20 18 18 23 24 28 26 23 24
24 24 22 19 17 15 14 11 10 9 9 7 7 8 9 3 17 15 15 10 16 13 9 8 5 6 10 9 6 3 3 5 4 8 8 10 22 2 15 27 31 29 29 28 30
25 25 24 21 18 15 14 12 12 9 10 9 8 8 10 6 10 15 19 13 13 13 12 11 7 5 2 3 5 6 8 5 5 8 5 12 17 7 23 27 26 30 30 31 34
24 27 25 24 20 15 15 14 11 9 9 8 9 5 11 4 5 6 20 19 8 10 11 9 6 3 4 7 11 4 5 4 6 2 5 16 20 7 18 22 25 31 35 33 32
25 26 26 26 22 16 19 15 6 5 16 12 12 6 0 7 4 4 11 18 11 5 5 3 5 10 14 8 7 6 10 12 5 6 6 10 15 13 15 21 22 26 32 39 36
22 26 25 27 24 21 22 19 9 3 5 28 20 22 7 5 4 6 13 13 8 5 5 1 12 8 7 6 9 11 15 14 11 10 10 11 18 11 12 18 22 24 33 39 37
24 27 26 29 25 24 25 27 7 3 3 8 23 25 21 18 7 13 17 13 4 6 8 10 5 10 7 8 10 10 11 14 15 7 15 12 28 19 14 22 28 31 35 36 35
30 22 27 33 30 28 27 23 18 4 2 5 6 6 12 11 8 25 22 10 3 11 6 11 13 12 5 13 9 16 7 11 12 6 10 2 12 9 7 15 18 25 30 34 33
29 21 28 42 27 32 24 23 15 3 2 3 4 6 10 17 4 12 22 12 8 7 5 6 5 10 19 15 11 8 6 9 8 7 7 15 8 6 14 20 14 10 25 31 32
24 29 28 44 32 26 20 22 16 3 7 5 5 6 9 9 2 4 13 16 2 9 11 8 4 6 6 10 14 1 6 11 4 6 13 11 11 13 13 7 6 8 23 30 33
19 33 19 51 40 27 30 31 5 5 1 6 6 6 10 6 5 5 10 10 7 6 8 8 15 2 3 4 5 9 5 3 7 8 8 5 12 22 4 7 9 12 20 24 29
17 29 17 42 39 38 44 4 4 4 5 2 5 5 7 7 5 8 9 10 14 3 3 7 5 17 9 8 6 11 13 6 5 4 5 13 11 7 13 24 33 31 24 14 28
20 16 27 39 36 43 33 2 7 6 6 8 7 5 7 7 3 8 12 15 8 17 8 4 6 2 3 16 10 5 10 20 12 13 5 5 6 6 9 12 15 17 20 26 29
7 11 21 38 42 44 9 6 5 3 7 3 7 11 10 9 9 8 7 4 13 12 13 3 4 4 5 7 11 8 5 4 5 5 6 6 5 7 6 18 16 9 15 26 32
4 7 24 42 45 27 5 5 4 5 8 5 7 8 7 6 9 8 5 5 10 7 16 7 5 2 5 10 12 10 10 6 5 6 3 3 7 6 5 11 11 10 19 29 34
1 4 39 46 9 6 5 5 6 4 4 2 4 6 8 7 7 5 8 8 13 11 10 10 4 6 15 4 14 14 14 14 4 5 9 5 9 3 6 12 8 7 17 24 28
10 6 45 42 6 8 3 3 2 4 5 6 7 6 8 5 4 8 6 9 19 12 14 9 5 4 4 6 7 7 13 18 16 4 11 9 11 4 13 13 4 12 20 25 29
10 4 14 20 6 12 10 6 4 6 5 6 4 8 6 6 8 3 5 4 18 11 12 13 4 7 7 3 2 7 16 21 20 11 10 15 15 20 21 11 6 5 23 25 33
6 5 10 9 7 14 9 4 9 5 6 13 4 10 8 4 6 7 6 6 8 12 6 6 6 9 16 17 11 10 11 21 22 24 13 11 14 19 23 17 3 8 19 26 31
4 5 12 11 17 10 14 9 6 10 7 6 7 9 12 9 7 4 5 5 5 10 9 6 3 3 7 17 22 17 17 18 25 18 20 10 19 16 24 17 6 19 23 25 30
9 5 12 17 12 12 10 9 10 5 9 12 12 10 10 14 21 26 15 14 6 8 9 4 2 2 9 3 10 7 24 20 22 17 15 13 15 10 11 7 2 15 24 29 32

GFSSW_850_spd_006.txt.gz
Wind_Speed
19 19 21 18 16 12 12 13 12 10 9 8 7 9 12 13 13 16 16 12 8 14 8 8 8 8 7 4 8 5 1 6 5 7 6 3 1 2 4 6 4 5 4 5 4
22 20 19 20 17 15 12 11 11 10 9 7 6 10 14 11 12 19 13 9 11 8 10 8 7 5 4 5 6 5 4 7 6 6 4 5 7 10 5 6 6 9 7 7 8
22 22 20 21 20 17 13 11 10 9 8 8 9 11 13 14 13 19 18 17 16 13 10 7 4 3 5 6 7 5 8 4 3 5 11 7 7 13 4 5 11 12 11 9 10
23 22 22 19 20 18 13 11 9 6 7 8 10 11 11 11 6 4 8 11 19 19 11 10 4 3 4 5 8 3 7 9 4 10 8 3 4 6 11 14 9 12 15 13 12
21 25 22 19 17 19 13 11 9 7 7 7 7 11 12 12 10 5 7 6 9 22 19 10 7 4 4 3 1 5 3 7 9 12 16 21 19 14 20 27 27 27 24 20 18
22 21 25 21 17 18 13 11 10 8 6 7 7 10 14 6 13 15 11 8 8 15 18 15 5 5 5 5 3 2 7 7 8 11 19 13 18 16 28 25 24 22 20 19 23
20 22 25 22 17 16 13 11 9 7 7 8 7 10 14 20 9 13 15 13 14 11 11 8 10 5 1 3 3 5 4 6 7 9 6 8 16 19 30 27 29 27 21 22 24
16 22 22 22 22 14 14 11 9 8 8 7 9 8 9 7 14 15 18 17 13 11 7 3 3 3 6 6 5 3 2 2 4 8 8 8 14 5 12 29 32 36 34 29 26
24 15 22 22 23 19 14 10 12 9 11 10 9 8 9 7 11 17 15 9 16 16 11 7 5 4 3 3 3 5 4 4 5 2 4 13 8 5 17 25 25 30 29 28 28
25 20 21 23 24 22 13 12 11 10 11 10 12 6 10 3 4 9 18 11 9 11 8 8 5 3 3 4 6 5 6 4 5 2 3 11 16 12 21 20 22 27 29 30 31
27 25 21 24 23 27 20 17 7 5 17 12 8 5 1 6 6 5 7 17 9 7 5 3 4 10 14 10 7 1 3 8 5 7 7 8 14 15 14 21 20 27 28 35 35
24 25 21 24 25 32 24 25 17 4 4 28 22 15 4 7 4 6 8 11 7 5 4 2 13 8 4 5 6 8 11 13 8 9 9 11 23 18 14 19 20 23 28 30 33
25 24 24 23 25 37 30 24 16 8 1 6 25 22 15 11 4 12 16 8 3 6 8 10 3 4 11 5 6 5 11 6 11 11 14 13 28 19 24 28 31 32 34 35 36
24 24 23 27 25 39 34 29 17 7 4 4 5 6 13 14 6 21 22 10 3 10 8 9 9 7 4 6 6 14 7 11 11 4 4 5 10 8 7 10 16 28 27 32 38
26 25 25 26 16 42 34 32 21 8 2 3 4 5 10 18 4 6 22 10 7 7 6 5 3 5 13 12 7 5 6 8 8 6 5 8 7 5 6 10 14 10 21 24 32
27 26 21 33 19 40 27 31 22 5 6 5 5 6 9 9 2 6 9 7 3 5 7 6 4 4 5 4 12 0 4 6 4 6 10 11 9 11 5 6 8 11 27 26 25
25 23 19 28 11 36 40 34 5 4 1 6 5 7 8 7 5 6 11 9 6 4 7 5 16 4 5 4 5 8 5 2 5 6 7 8 11 21 9 11 8 11 22 28 23
20 14 19 27 23 41 46 5 4 6 5 3 6 7 6 5 5 6 10 8 13 3 1 5 6 13 11 14 6 10 10 4 5 3 4 6 7 6 10 19 29 30 28 28 18
10 13 10 31 31 47 34 5 8 6 7 8 10 6 7 5 2 6 8 8 8 14 7 3 5 1 3 7 11 4 8 13 6 6 4 5 7 8 10 11 12 16 26 31 26
3 10 9 18 52 49 9 6 5 4 7 3 5 5 7 7 7 7 7 4 12 15 13 2 6 4 3 6 11 7 0 3 5 5 5 7 10 10 13 6 8 13 18 24 28
1 9 8 11 40 19 5 4 4 7 9 5 4 4 4 5 6 5 4 4 6 4 15 5 5 0 3 9 12 8 6 5 2 3 5 3 6 8 6 4 13 16 22 26 30
6 0 10 26 7 3 4 6 5 4 2 3 3 4 6 7 6 6 8 6 9 11 9 9 3 6 15 5 12 13 11 12 5 6 4 3 15 3 2 5 10 17 17 14 22
3 3 32 43 3 4 4 3 3 3 4 5 4 5 4 6 3 8 4 7 15 11 11 10 5 3 4 2 3 9 13 15 13 3 8 4 7 4 4 8 14 13 4 8 16
6 3 15 20 6 8 8 4 3 2 4 4 4 5 4 5 5 2 4 4 19 11 12 15 5 8 9 4 2 6 11 16 16 8 14 17 16 16 16 17 11 10 4 13 20
5 3 5 5 4 11 4 6 4 1 1 9 4 8 5 4 6 8 8 5 8 13 9 8 7 12 20 22 11 6 12 17 21 20 11 19 19 17 9 17 13 20 10 16 22
5 4 5 11 14 11 6 6 11 8 4 4 6 7 8 7 6 2 3 6 5 9 10 5 6 5 10 15 19 15 18 16 21 24 24 20 21 14 17 29 23 17 20 19 22
10 7 12 16 9 9 8 5 6 7 7 10 11 8 9 13 18 22 16 13 6 5 8 3 3 3 6 9 8 10 22 21 15 20 19 17 25 9 15 6 6 14 17 20 26

GFSSW_850_spd_009.txt.gz
Wind_Speed
21 22 21 18 18 18 15 14 11 10 9 8 8 5 5 12 15 17 17 13 10 16 6 6 6 6 4 5 7 7 2 7 8 8 6 2 1 2 3 5 4 3 6 3 3
23 21 22 20 18 17 18 14 12 10 7 6 4 4 9 11 12 17 12 9 7 8 14 7 5 4 4 5 5 5 4 8 6 7 4 4 5 5 3 7 11 15 9 8 8
21 22 22 21 18 18 18 16 12 9 6 6 7 8 9 12 13 9 17 16 13 11 8 6 4 4 4 5 5 4 7 4 3 6 3 4 7 8 7 7 11 11 14 10 10
20 21 21 21 20 17 17 17 11 9 7 6 10 9 9 10 4 3 7 9 17 17 12 8 5 4 2 3 4 3 7 7 7 11 8 5 7 6 9 13 11 11 14 16 14
18 17 20 21 20 16 15 15 12 9 7 6 7 11 10 8 10 4 4 5 10 19 16 10 5 5 3 3 1 3 3 6 7 8 11 13 16 17 17 23 23 22 24 23 20
22 19 19 20 19 19 15 14 12 9 7 5 7 8 11 7 12 18 6 6 6 15 18 14 5 7 2 3 3 2 5 8 10 13 14 14 21 12 23 22 28 26 26 23 19
20 20 18 20 20 20 16 12 12 9 8 7 7 8 11 17 12 9 14 9 9 12 14 13 10 6 4 1 2 4 5 8 10 10 8 7 13 15 34 30 31 33 33 34 28
22 19 21 18 20 20 18 10 10 10 9 8 8 8 7 6 15 15 14 12 13 12 9 9 7 5 4 2 4 2 2 3 3 4 8 12 13 7 2 14 25 32 36 33 33
25 23 23 15 17 20 25 14 12 11 10 9 8 7 7 6 10 10 16 18 14 10 9 8 6 4 4 2 2 3 4 5 5 5 2 12 6 5 16 11 14 19 24 28 27
26 23 23 22 15 18 21 17 17 13 10 9 7 4 9 3 5 8 15 13 12 15 8 7 5 3 3 5 5 4 4 5 5 2 3 11 17 15 20 23 24 22 26 24 23
28 21 21 25 13 20 31 25 14 6 14 10 9 3 3 7 9 7 15 16 11 12 5 4 5 10 12 8 4 1 4 7 5 10 11 13 21 17 21 18 20 23 25 28 33
28 22 21 23 19 1 37 31 30 10 6 28 14 15 4 9 6 9 15 11 8 4 5 3 10 9 2 4 8 10 15 17 11 7 10 12 27 17 17 23 27 28 26 29 32
26 22 19 22 21 31 43 31 25 18 4 4 24 18 11 11 5 15 20 10 4 5 7 5 4 3 10 7 9 13 16 15 17 9 14 15 25 18 18 30 31 34 37 38 35
24 25 22 20 19 22 43 29 22 17 4 4 5 6 18 10 4 15 20 9 2 10 7 9 10 6 4 6 8 15 8 11 13 6 8 2 10 8 6 10 9 17 26 31 34
27 24 24 17 14 14 33 33 26 15 2 4 5 9 13 15 10 6 22 6 7 6 5 3 4 3 10 8 7 6 5 7 9 9 8 13 7 6 2 5 9 10 24 30 32
39 29 20 18 18 26 33 35 23 5 6 5 6 8 8 8 4 6 12 4 6 5 6 5 2 4 6 5 11 1 3 6 3 6 10 11 10 17 7 8 4 7 21 25 28
42 30 20 17 21 26 34 32 4 3 1 8 6 8 9 6 5 6 9 9 5 4 4 3 14 5 4 3 2 6 3 3 5 7 8 8 11 19 10 19 16 17 22 21 20
36 19 15 19 19 10 43 5 4 5 3 5 10 10 5 8 5 7 10 7 10 3 2 4 4 10 8 14 6 10 9 5 5 5 5 3 8 7 11 17 25 19 25 26 28
15 4 12 19 22 14 25 3 6 6 8 10 11 5 3 3 2 4 7 5 9 13 6 3 5 2 6 4 9 4 10 11 6 11 5 4 7 9 12 12 5 10 17 25 27
17 7 8 10 18 10 3 6 2 4 11 9 5 4 9 9 7 8 7 4 6 12 11 2 5 4 1 4 7 7 1 3 5 5 6 6 7 11 7 7 4 6 12 27 28
30 1 9 12 15 9 2 2 5 6 8 4 4 5 6 6 8 6 4 3 6 5 13 5 5 1 2 10 12 8 5 6 2 4 4 5 6 5 12 5 3 5 17 27 33
9 2 13 17 6 3 1 6 5 3 2 3 4 5 4 6 5 5 5 5 9 11 9 8 3 6 13 8 14 16 13 17 8 6 5 3 13 10 8 3 4 11 19 28 31
4 1 10 31 3 3 4 4 4 3 2 2 3 3 3 5 4 6 4 6 14 9 10 8 5 4 6 1 4 9 16 16 14 5 15 7 8 2 2 4 11 13 21 22 22
3 1 7 7 3 5 4 3 5 4 2 3 4 5 4 3 4 3 4 3 18 11 9 15 5 8 11 12 1 6 14 20 15 8 12 20 21 17 15 13 12 20 19 18 12
4 3 4 3 2 4 4 3 6 3 1 4 3 3 5 4 5 5 6 3 6 12 9 9 8 11 21 23 17 12 13 18 20 23 12 15 16 18 13 10 11 20 26 17 13
5 2 2 8 9 6 3 3 4 3 4 3 2 7 7 5 4 3 3 5 5 6 9 6 5 4 18 18 19 21 18 18 22 21 23 20 24 18 13 15 11 22 28 21 16
11 8 1 12 7 4 3 5 7 5 2 2 5 3 7 9 12 15 15 12 5 6 11 4 3 3 13 7 9 6 13 21 19 18 13 16 20 10 7 6 14 24 19 13 17

GFSSW_850_spd_012.txt.gz
Wind_Speed
16 18 18 18 20 15 17 15 16 13 11 9 6 5 6 8 15 17 17 12 14 14 5 7 5 5 6 7 7 6 8 13 19 16 12 6 10 10 5 9 5 6 4 1 3
13 19 19 18 19 19 16 16 15 13 10 9 7 6 8 12 14 16 12 8 10 11 15 7 7 6 7 8 8 13 11 16 11 14 9 11 9 7 7 12 12 9 6 3 6
14 17 19 19 18 20 17 17 15 14 11 9 9 9 9 11 9 10 12 13 12 12 9 9 7 7 9 7 10 10 15 13 8 12 11 14 14 12 13 14 17 14 8 5 2
19 16 18 18 18 19 20 17 15 13 11 9 11 11 10 12 5 6 8 11 17 14 11 10 8 8 6 8 9 9 14 15 10 11 10 13 13 15 19 24 15 13 11 10 11
24 18 16 18 20 19 20 15 14 11 12 9 10 12 11 9 6 4 2 5 13 20 16 12 10 8 8 5 7 12 11 11 12 12 16 18 24 23 24 22 21 20 17 17 17
27 22 17 18 21 20 21 16 13 11 12 9 9 10 10 11 9 14 4 2 7 18 17 14 8 7 4 5 8 2 6 11 11 17 19 20 25 22 27 24 27 30 31 27 23
28 24 22 18 16 21 19 22 14 11 13 10 7 8 9 10 10 13 14 12 7 11 14 16 10 7 7 4 4 6 10 12 17 15 13 12 20 20 32 31 32 27 27 29 29
27 24 22 20 19 18 19 25 16 14 14 11 8 7 6 8 17 9 12 11 10 9 11 14 12 5 3 1 3 5 5 5 2 2 8 11 17 5 5 10 22 29 31 32 31
25 25 24 22 20 12 18 27 20 16 15 11 7 6 4 7 11 12 14 12 13 12 11 11 9 4 4 5 5 8 7 9 9 4 6 12 11 4 11 11 15 20 21 22 28
27 25 24 19 23 17 6 22 19 20 15 12 6 4 8 3 7 12 21 17 12 13 9 6 4 5 7 8 5 5 7 7 10 3 6 15 21 20 24 26 25 26 26 23 22
25 23 24 19 18 26 12 26 21 8 17 9 11 3 7 8 9 11 20 15 12 13 10 8 6 11 14 14 9 2 6 10 9 7 15 17 23 21 25 29 28 30 31 31 31
23 24 22 20 17 20 25 14 33 11 9 14 10 8 10 11 5 11 20 12 13 12 10 5 12 13 6 10 12 14 16 16 14 13 11 18 31 23 24 32 34 33 34 35 34
24 26 21 18 22 26 24 16 33 16 4 11 17 10 8 11 5 16 20 10 12 11 16 8 3 1 12 12 12 15 17 14 16 15 18 21 26 16 8 15 23 31 38 39 38
26 19 22 20 20 11 20 20 26 10 3 8 10 8 15 8 4 12 20 8 4 12 10 9 10 6 7 9 12 14 8 13 13 10 6 2 11 15 14 14 14 17 19 23 28
28 26 25 19 17 15 7 18 23 13 7 10 7 9 16 15 14 8 15 3 7 9 6 3 6 9 12 11 12 7 4 7 9 11 11 18 6 13 4 15 11 14 19 22 22
29 35 28 22 16 19 13 27 23 4 6 7 8 10 15 11 7 9 13 3 5 5 6 7 2 5 6 8 13 3 7 9 11 8 8 21 14 19 19 15 11 12 16 18 17
38 45 32 17 15 14 10 19 5 6 7 9 9 13 15 11 9 11 13 9 6 5 7 5 16 6 8 9 8 11 5 3 4 6 9 6 10 20 13 10 17 22 25 19 16
43 25 6 17 20 12 13 3 4 5 6 5 13 16 8 17 6 11 13 10 10 4 3 4 4 15 11 16 4 18 14 5 7 10 12 5 11 12 20 19 22 17 17 11 13
37 9 8 15 21 14 13 4 2 6 11 13 14 9 6 12 6 7 10 8 11 14 6 5 5 3 7 8 12 5 9 13 18 20 13 16 23 18 23 15 19 15 9 9 14
32 2 8 13 18 17 3 3 1 3 17 16 7 7 9 13 8 10 11 6 8 16 15 2 4 7 3 8 12 14 0 5 6 6 18 13 15 13 13 9 15 12 9 12 16
22 2 12 14 19 10 1 2 4 13 12 3 7 8 8 12 8 12 6 3 8 11 17 7 5 3 3 12 13 10 8 6 6 9 8 14 16 11 9 12 13 7 12 17 15
5 1 18 21 4 2 1 1 6 6 1 4 8 10 13 13 11 9 9 5 9 12 10 12 5 8 14 14 14 16 16 19 9 12 7 10 21 12 13 10 8 13 16 14 14
1 3 7 15 3 4 2 1 3 2 3 3 4 3 6 9 6 8 5 3 12 12 12 11 5 4 5 3 8 10 19 22 18 10 20 10 15 3 5 5 5 11 14 15 17
3 3 4 2 2 8 8 3 5 5 3 7 6 6 7 6 2 7 7 4 13 15 6 12 6 8 10 13 8 8 12 19 18 11 18 21 29 24 19 20 19 27 25 20 15
5 4 4 3 3 9 3 3 8 3 3 4 4 3 5 4 5 4 6 3 4 10 9 7 6 11 20 23 22 23 26 20 22 28 17 28 20 23 15 15 16 17 17 19 12
6 5 6 4 9 10 2 3 3 4 3 3 3 8 7 3 5 3 5 6 5 10 12 6 7 4 16 20 23 23 23 21 18 24 26 28 27 25 22 14 16 20 20 19 21
18 6 1 6 6 7 6 7 6 6 3 5 6 5 6 5 8 10 12 7 5 6 13 5 2 2 8 14 22 9 7 11 7 12 20 20 24 12 8 10 14 20 25 20 16

GFSSW_850_spd_015.txt.gz
Wind_Speed
10 12 18 17 19 18 21 18 16 15 14 11 10 11 7 9 13 19 19 13 16 16 9 7 8 10 10 11 11 12 13 15 21 21 15 16 10 15 14 16 11 13 16 4 5
23 18 15 17 18 20 21 20 17 16 14 12 10 8 6 6 11 16 14 16 13 13 12 10 11 12 15 13 10 13 13 20 17 16 17 15 11 14 9 17 19 14 13 4 2
23 22 18 17 17 19 19 23 16 16 14 13 10 8 8 10 13 14 18 14 11 14 12 14 9 11 15 12 17 14 18 15 16 11 11 17 16 16 15 15 17 19 17 11 6
21 23 21 19 17 18 17 21 17 16 14 12 11 10 10 14 5 8 14 18 16 12 13 14 14 15 11 11 15 16 16 23 20 9 12 15 18 19 23 23 20 15 19 11 12
23 23 22 18 18 17 19 17 22 16 14 12 11 12 12 9 9 5 5 9 16 17 17 16 16 15 11 10 10 13 16 16 15 17 19 20 22 21 22 22 21 23 17 19 19
25 25 23 21 19 15 17 17 22 15 14 11 11 13 12 12 9 10 5 4 10 19 18 16 8 8 5 7 10 3 11 16 16 18 20 20 23 23 22 26 28 29 27 28 26
26 24 25 25 21 17 14 16 21 16 13 12 11 10 11 15 5 8 13 6 6 16 18 13 7 6 7 5 11 10 14 14 19 21 16 12 18 23 32 29 31 30 29 30 32
25 26 24 24 22 21 14 17 21 20 15 14 11 7 8 15 11 7 8 8 7 8 11 13 10 6 6 2 5 6 10 10 8 4 13 13 15 7 6 15 22 28 29 31 30
25 24 24 25 22 21 18 14 26 25 18 16 11 8 8 10 12 15 10 11 10 9 7 8 9 6 5 9 8 10 9 12 9 6 6 13 11 7 5 16 17 16 19 22 27
25 27 24 21 19 19 22 13 22 25 20 15 7 6 12 9 10 11 13 12 11 16 14 8 6 6 10 11 7 8 13 9 10 4 8 14 19 18 21 22 23 23 24 24 23
23 20 19 20 18 15 18 13 15 13 28 10 13 3 11 10 10 11 17 18 13 16 7 9 6 12 16 15 16 6 9 10 10 7 15 18 20 19 22 25 27 28 28 29 30
21 20 22 15 16 16 16 10 8 3 9 13 6 8 10 11 9 14 20 14 14 12 11 5 14 16 12 9 11 12 14 14 14 13 12 17 27 23 25 28 29 29 32 33 32
20 25 19 18 20 15 17 24 13 6 6 17 14 13 9 10 8 21 22 13 15 15 16 11 3 4 14 11 11 13 14 13 14 14 16 19 24 21 11 15 21 24 29 33 37
23 23 21 20 15 7 12 16 31 5 3 9 10 9 9 8 5 16 19 11 6 14 14 12 9 5 8 11 11 12 9 10 11 8 6 3 10 9 11 12 11 14 19 21 23
23 21 22 21 20 15 10 6 25 14 6 13 10 8 16 11 18 13 19 5 10 8 8 4 6 12 12 14 10 6 3 4 6 9 13 16 8 10 10 17 16 16 17 15 16
25 30 30 30 19 18 13 7 21 3 4 8 7 11 16 14 7 16 13 6 4 6 10 9 2 7 9 6 11 3 3 6 6 4 7 11 16 18 15 11 14 13 15 14 11
29 38 25 21 21 14 12 18 3 5 12 9 9 13 16 13 10 14 14 11 8 5 9 10 16 8 10 7 7 9 2 2 4 5 9 5 8 20 21 21 17 12 17 20 15
35 21 10 10 20 20 19 5 6 11 7 7 14 17 9 15 10 14 14 12 15 11 4 8 6 19 14 14 5 13 10 5 6 8 14 16 10 13 15 16 24 18 21 15 11
34 6 6 9 15 18 13 5 2 10 12 12 17 12 9 17 8 12 14 12 14 14 7 5 4 2 7 6 11 6 9 15 12 16 12 11 20 22 26 26 25 21 25 20 12
24 8 9 13 14 12 1 1 1 5 17 19 7 7 9 18 9 12 14 13 11 17 12 1 2 6 6 5 12 12 1 2 5 5 10 14 21 14 16 16 17 12 19 24 13
6 5 10 15 11 3 3 1 5 19 9 0 7 9 10 15 11 14 16 5 17 14 15 6 4 5 3 11 9 8 12 6 7 8 6 13 12 12 14 11 10 12 15 8 10
6 3 13 16 3 3 1 3 13 8 4 2 3 4 15 16 11 12 9 3 7 9 12 9 2 6 12 9 8 13 14 16 8 9 8 12 20 14 14 11 10 11 11 14 15
6 6 12 1 3 4 2 1 6 5 2 4 3 2 5 11 6 6 6 5 10 12 10 10 5 3 3 3 8 11 17 16 18 16 23 15 15 5 5 10 9 9 12 16 17
3 2 4 3 3 8 3 8 5 2 3 4 8 8 9 11 3 8 5 4 11 12 7 9 5 8 8 9 10 7 15 19 16 9 20 24 29 26 21 17 17 21 22 25 18
7 4 2 2 5 9 2 3 7 4 2 3 3 1 4 4 4 4 5 5 5 9 6 5 5 10 17 22 20 21 24 24 20 20 17 31 24 24 19 15 18 30 26 18 13
5 4 4 3 13 9 1 6 4 5 1 2 3 6 3 4 1 4 5 7 5 9 11 4 3 2 12 21 20 19 23 18 17 19 19 25 29 24 20 10 8 13 18 15 12
7 6 4 4 7 7 6 4 2 3 4 4 3 5 3 2 3 2 4 4 1 4 10 4 2 2 6 10 20 9 4 6 8 11 9 9 18 17 12 11 15 21 22 18 24

GFSSW_850_spd_018.txt.gz
Wind_Speed
18 23 22 19 15 15 17 17 19 17 16 15 12 12 10 9 13 18 24 18 23 14 7 5 8 11 11 14 17 13 7 11 15 14 12 17 8 5 7 12 15 6 11 6 10
22 20 20 23 17 15 16 17 19 19 16 15 12 10 9 8 8 15 21 11 12 19 16 10 11 13 16 15 12 7 8 11 11 10 9 16 9 7 4 17 12 15 12 6 5
23 22 21 21 22 19 16 18 16 20 16 15 12 8 8 6 7 17 16 16 20 19 19 12 11 14 15 16 18 11 12 9 16 23 11 10 17 7 10 5 11 16 16 15 9
23 24 24 23 20 19 18 15 14 18 17 13 11 8 10 9 5 8 13 20 16 14 13 15 13 11 7 11 16 16 15 19 21 24 8 5 15 15 20 14 18 23 14 11 18
25 24 24 25 22 21 19 17 16 17 17 12 12 9 12 11 10 2 10 19 18 15 17 17 17 15 11 9 15 11 15 17 15 17 13 14 14 14 22 21 21 25 23 20 10
26 25 25 25 24 25 20 15 15 15 18 12 12 11 14 11 8 8 6 6 12 19 18 18 12 14 6 11 9 6 11 14 18 15 13 13 15 20 15 25 27 27 27 22 19
26 27 27 26 24 23 22 18 13 14 17 13 13 13 11 15 5 11 11 6 8 16 19 18 8 4 2 3 10 8 9 11 15 18 10 9 14 16 31 31 29 29 28 30 30
26 27 27 27 25 24 22 21 16 14 18 15 14 12 9 14 13 11 8 9 6 5 19 15 13 4 2 3 2 4 9 7 9 18 17 16 12 11 18 28 31 31 30 30 31
27 25 25 25 22 20 20 18 18 11 20 18 16 11 8 11 19 15 9 10 9 4 11 12 11 5 5 2 4 7 6 11 8 8 5 8 6 13 18 10 11 20 20 24 31
24 23 22 20 23 18 18 17 17 13 17 16 8 9 13 11 12 14 14 10 13 12 11 9 6 4 4 6 5 5 9 8 8 4 3 8 11 11 22 22 18 20 19 20 21
21 21 21 22 20 15 17 16 7 7 29 10 16 1 16 15 14 15 17 14 11 15 5 13 5 8 12 11 11 11 8 12 8 9 8 9 14 14 19 22 22 24 27 29 30
20 21 22 20 17 17 14 8 11 3 3 15 5 5 13 16 11 15 20 11 8 9 4 3 7 10 7 6 4 7 7 11 11 11 7 9 18 17 21 20 26 25 28 31 30
21 23 22 20 19 15 10 17 20 16 4 13 7 13 14 9 9 19 23 12 9 12 9 7 1 10 11 8 4 7 7 9 11 11 10 12 15 10 9 24 31 34 36 32 31
24 21 19 18 14 7 9 10 17 16 2 9 4 9 9 8 6 18 21 9 7 14 10 7 4 4 5 9 6 6 4 5 6 6 4 6 7 7 9 6 8 16 19 21 22
24 23 24 19 18 15 9 10 6 3 5 12 8 11 15 6 20 13 21 5 9 8 6 2 4 6 5 4 5 2 6 5 5 6 7 5 4 7 9 9 7 6 19 22 19
23 29 32 29 27 21 7 4 5 2 5 5 7 12 13 11 4 18 10 1 2 5 9 4 6 2 4 4 3 6 1 2 4 1 4 11 9 11 7 10 4 3 12 8 13
33 39 17 11 16 10 9 9 4 4 11 8 9 12 16 12 8 11 9 7 5 5 5 5 8 3 3 2 2 4 3 1 3 3 7 2 8 15 11 11 8 3 5 12 20
33 14 13 1 12 20 19 2 2 8 4 7 15 16 11 14 7 10 10 9 10 6 6 5 4 14 9 8 5 10 6 3 5 3 4 3 8 6 6 6 9 9 13 19 19
14 10 13 13 15 19 11 2 4 4 10 11 18 9 10 12 7 9 10 7 10 11 4 5 2 6 11 7 7 6 7 2 5 5 3 5 5 10 14 14 12 16 21 23 21
6 12 10 10 13 16 2 1 4 4 17 14 6 8 8 15 8 11 12 12 11 15 9 4 0 1 7 1 6 7 4 2 0 3 6 5 8 9 9 6 8 9 10 14 22
8 6 8 11 10 0 3 3 1 21 8 3 9 8 10 14 7 10 10 1 16 11 12 5 1 3 5 8 9 6 7 2 3 3 4 6 4 3 8 9 9 5 11 14 6
8 3 8 7 4 3 0 4 6 8 6 4 3 7 12 13 9 10 8 4 17 11 9 7 3 3 10 8 13 10 8 13 3 6 5 4 14 19 18 4 8 14 8 15 12
6 6 5 3 1 2 3 2 4 6 6 3 5 6 14 11 6 7 8 7 3 5 10 7 3 2 2 3 8 6 8 8 11 10 16 9 12 9 20 18 9 17 24 27 22
3 2 3 3 4 4 3 5 3 5 7 9 5 4 7 8 4 7 5 2 7 5 5 13 2 5 3 2 2 3 5 8 9 6 12 20 32 25 24 21 9 16 22 30 25
3 3 2 1 3 6 5 5 5 3 4 2 2 2 7 5 4 4 8 7 6 5 5 0 3 4 9 13 13 13 16 16 16 18 13 24 26 28 26 22 20 23 27 19 14
5 5 6 2 11 4 3 3 2 4 5 2 3 5 1 4 6 6 6 6 5 7 5 3 2 4 9 15 16 15 17 18 18 19 18 21 25 20 20 10 9 12 14 12 14
8 6 5 3 6 5 3 5 4 3 3 6 4 3 3 7 6 4 5 4 5 7 8 5 2 2 4 9 11 6 5 5 9 12 11 10 15 20 16 7 7 10 14 14 16

GFSSW_850_spd_021.txt.gz
Wind_Speed
22 21 21 19 21 18 15 13 13 16 17 14 13 12 10 9 10 14 22 21 20 14 5 7 14 16 12 8 15 13 2 5 7 8 7 20 7 11 5 6 8 2 3 18 15
22 23 23 22 21 18 17 16 15 15 18 16 13 10 9 8 13 19 19 8 14 19 13 11 11 14 9 10 6 7 5 7 5 9 7 8 4 10 2 6 4 8 5 17 15
24 23 23 23 23 21 18 19 14 16 15 17 14 9 9 6 7 15 14 18 16 13 17 14 13 14 15 14 14 4 5 3 13 21 9 4 7 8 5 2 9 11 11 15 15
24 23 23 23 22 22 21 21 15 13 11 20 15 9 10 9 5 2 11 14 17 19 16 20 14 7 8 7 15 6 8 21 19 26 16 4 7 8 6 5 10 9 12 11 18
23 23 23 25 25 23 21 21 20 13 15 17 17 11 13 12 12 2 7 18 17 15 20 22 13 10 5 7 15 5 6 19 20 19 16 10 7 7 15 18 16 17 17 14 12
20 23 25 25 23 24 21 23 21 16 11 14 14 13 15 8 9 11 8 15 16 17 20 21 10 15 6 9 6 3 8 6 8 13 16 9 7 11 6 22 25 24 27 25 18
24 23 26 24 24 24 23 21 21 19 10 14 16 16 12 18 7 10 11 7 5 14 21 21 12 11 8 2 2 2 3 7 8 14 7 8 8 8 22 26 27 32 30 34 29
23 23 22 22 22 20 20 18 18 20 14 15 16 15 9 19 12 13 16 13 12 8 19 18 12 9 4 2 2 3 2 2 7 13 12 12 8 8 23 25 27 36 36 37 35
22 21 19 19 20 21 21 18 17 18 14 14 19 14 7 11 25 17 14 16 9 6 16 16 12 5 4 4 2 1 3 6 7 7 5 11 4 15 24 24 22 29 35 34 35
22 19 19 19 20 20 16 16 19 16 16 15 13 10 10 13 25 22 14 14 13 12 11 7 4 2 3 3 6 5 4 4 5 3 1 5 7 8 23 21 21 24 21 24 29
20 19 20 21 19 18 17 18 2 5 15 7 12 4 7 15 17 21 21 13 14 11 4 6 3 6 8 5 5 2 2 4 5 6 4 6 7 10 18 22 25 25 32 34 33
21 20 21 20 18 15 15 7 5 3 9 18 16 4 26 20 10 21 23 10 8 7 6 4 3 5 6 7 8 6 5 5 7 4 6 10 19 15 17 24 29 33 30 35 32
23 22 21 19 18 14 7 8 12 12 2 16 13 13 19 11 8 24 20 10 6 7 8 5 2 10 6 3 2 2 3 4 5 6 5 7 10 9 8 22 29 31 35 37 37
23 20 17 17 16 9 9 7 5 12 2 6 8 8 16 12 5 22 19 13 3 9 7 1 1 3 4 4 3 1 4 1 4 4 4 6 7 7 8 9 6 20 27 32 36
25 24 28 20 17 13 4 10 4 1 3 8 6 17 14 1 20 14 18 4 8 9 5 6 4 5 1 2 4 3 5 5 4 4 4 3 2 7 5 6 8 7 12 22 27
29 29 27 18 24 15 9 4 5 2 3 5 7 9 7 12 4 15 6 5 3 5 8 4 3 3 5 2 3 4 4 4 4 3 3 9 7 4 3 6 1 4 4 3 7
27 19 14 9 3 12 13 10 2 3 1 6 9 9 12 4 7 7 5 3 4 5 3 5 2 2 3 4 2 5 5 3 3 1 6 2 4 8 8 11 7 9 14 12 12
11 12 17 4 8 19 18 3 4 5 6 6 11 13 6 8 4 6 7 4 3 4 4 5 4 8 5 6 6 5 5 4 6 3 4 1 7 6 10 14 14 12 15 13 15
12 13 20 16 16 18 2 3 4 4 6 11 14 9 7 4 7 4 4 5 4 3 5 4 3 4 6 3 5 4 5 3 1 2 2 5 7 7 8 9 8 8 11 16 19
16 19 18 14 11 9 1 3 3 3 17 10 4 3 6 7 5 6 7 7 5 9 3 1 3 2 3 3 3 6 4 2 2 1 5 6 5 8 6 4 7 8 10 13 16
13 8 11 9 5 3 2 5 3 21 5 2 5 7 8 6 4 6 12 4 11 10 8 2 3 1 5 6 7 3 2 2 2 4 4 4 5 5 6 4 5 5 10 16 21
10 3 6 7 3 1 2 2 3 6 4 3 5 7 10 10 5 6 8 1 20 15 7 4 4 3 9 6 8 4 5 5 3 5 4 2 9 13 15 6 8 22 29 41 34
5 3 8 10 3 3 5 1 5 7 5 4 6 5 13 6 5 4 5 3 18 8 9 5 1 0 4 3 2 4 7 6 8 0 13 4 8 4 15 22 31 22 32 31 21
3 2 5 5 3 2 4 4 4 8 4 6 5 13 5 4 2 7 3 2 6 5 13 12 4 6 5 3 4 3 5 6 9 5 10 16 26 28 24 22 23 27 22 27 27
5 1 3 2 2 2 2 3 3 3 5 7 6 4 6 3 4 4 5 4 4 3 4 3 2 2 6 8 5 7 10 11 11 16 11 24 22 27 24 22 25 16 9 15 19
4 4 9 6 3 2 2 2 3 3 5 4 5 7 8 4 1 5 7 4 4 2 3 2 2 1 6 10 8 6 11 14 15 18 19 23 27 20 20 24 24 16 13 13 14
6 5 3 8 2 1 3 4 1 2 4 4 3 5 6 3 6 7 8 6 9 7 6 5 4 1 4 5 7 3 6 10 5 8 9 9 14 16 17 9 12 16 15 14 16

GFSSW_850_spd_024.txt.gz
Wind_Speed
20 20 20 19 19 20 18 18 16 15 13 15 18 14 12 11 11 12 22 20 21 16 14 12 18 17 13 8 11 7 3 5 6 8 5 5 2 9 9 7 7 5 9 10 19
22 23 20 20 19 18 19 17 18 17 15 14 19 15 12 10 13 21 24 18 18 20 19 16 14 19 10 10 7 6 4 7 5 4 2 8 4 5 7 5 5 4 8 21 21
24 23 21 17 22 22 19 18 18 18 17 11 13 16 12 8 11 22 15 21 17 28 18 15 9 14 8 7 8 5 5 7 7 11 5 6 15 4 3 4 3 3 18 20 24
25 21 22 20 22 19 22 20 19 16 18 15 10 19 12 11 7 2 7 21 23 19 23 17 14 6 6 6 10 3 8 13 5 16 8 2 9 3 9 10 6 3 6 15 22
23 24 21 22 21 22 19 21 18 22 20 19 23 19 15 14 17 2 9 20 21 21 24 22 17 9 6 8 12 3 3 9 14 17 13 11 9 11 11 14 19 17 12 11 13
22 21 21 22 22 20 18 21 20 19 20 16 12 15 18 11 12 8 8 21 24 23 23 23 13 16 5 5 7 2 12 12 12 8 8 7 8 14 8 17 23 25 25 20 16
21 20 20 19 20 18 18 17 17 17 17 17 12 17 19 22 6 10 12 19 20 20 20 25 14 9 8 0 6 4 3 3 5 7 4 5 14 8 21 27 29 32 32 33 28
20 19 18 16 17 17 18 18 17 14 14 19 19 21 8 20 9 16 15 13 12 15 16 23 15 7 6 4 3 5 4 1 4 4 9 10 16 3 16 25 29 33 32 28 34
20 19 17 16 17 18 18 17 15 11 14 18 10 13 5 13 21 18 19 17 15 13 18 19 17 6 4 5 3 4 2 4 7 9 6 10 3 14 27 26 22 24 28 33 34
21 19 17 17 19 18 16 18 12 16 12 12 10 6 8 13 26 19 17 14 11 13 14 12 6 3 2 4 6 6 3 3 5 4 3 6 10 11 16 12 18 24 28 29 29
22 22 18 17 19 15 16 18 3 2 10 3 8 6 7 15 25 22 17 16 14 8 4 6 2 5 7 4 2 4 2 3 4 6 5 8 6 10 17 17 21 26 34 37 37
22 22 19 17 18 15 12 4 4 4 3 13 9 5 9 18 15 24 18 8 8 4 9 4 4 7 9 8 6 2 2 5 6 3 4 7 16 14 14 18 25 32 33 37 41
18 17 15 13 16 14 9 4 3 7 1 4 11 8 19 17 7 18 21 9 6 9 4 7 3 6 6 4 3 2 3 2 4 6 1 7 11 8 6 13 25 33 40 39 39
21 22 22 18 19 3 3 2 2 2 2 7 5 7 14 12 5 18 16 8 2 9 6 3 2 6 5 4 4 2 2 3 3 4 4 5 7 6 8 10 7 17 17 26 28
26 21 20 17 10 13 4 1 5 6 3 10 6 19 12 0 21 12 5 4 4 7 5 2 4 6 5 3 4 3 4 4 2 3 4 3 2 8 5 8 8 9 13 16 17
30 19 14 8 7 14 11 4 6 2 1 5 7 8 7 7 4 9 3 7 8 5 7 1 0 3 4 4 5 6 5 6 4 2 2 5 5 5 3 4 5 5 5 3 6
19 16 11 7 5 13 12 5 4 2 3 6 9 10 9 4 6 4 4 4 4 5 4 0 2 1 4 6 4 6 6 3 4 2 6 2 2 8 8 10 4 8 18 21 16
21 23 22 16 13 15 10 0 4 4 2 11 8 13 6 5 7 6 5 3 2 4 3 4 2 5 2 4 5 3 6 4 4 3 4 1 6 6 7 11 7 11 8 13 16
19 30 29 19 16 8 3 5 2 4 4 8 14 10 3 3 6 4 1 4 4 4 5 4 1 1 2 3 6 4 2 3 2 2 3 4 7 9 3 1 8 12 13 18 23
16 24 19 12 6 8 5 5 3 5 15 6 5 1 4 4 4 3 6 4 3 7 2 4 4 2 2 4 1 4 5 3 3 1 4 5 5 7 6 2 6 6 8 19 28
4 6 8 4 6 4 2 3 2 1 1 1 4 4 7 5 5 4 10 3 7 4 6 0 4 3 5 4 7 3 1 3 3 4 3 4 6 6 5 3 6 6 16 22 29
7 3 5 3 4 3 1 2 3 5 2 2 4 5 8 5 4 4 8 4 16 6 6 3 4 3 7 3 4 4 6 5 4 3 3 2 7 6 4 2 9 25 27 30 32
4 3 7 5 3 2 2 3 5 5 4 1 3 4 5 6 5 3 4 4 16 6 8 4 2 2 3 4 2 3 5 5 2 3 6 1 6 2 9 20 30 25 31 31 25
4 3 4 4 3 2 4 4 4 6 3 5 5 13 4 4 1 4 2 4 7 5 11 7 3 5 5 5 3 3 5 7 7 3 3 11 20 26 23 21 22 24 28 31 15
5 2 4 3 3 2 2 2 5 5 6 6 3 3 4 3 4 4 2 3 5 4 3 4 3 2 5 7 5 6 8 8 9 14 8 18 17 25 23 20 21 16 27 24 15
4 5 7 6 9 4 3 1 4 3 5 4 5 3 3 3 3 6 6 3 4 0 3 1 1 2 5 6 8 7 11 12 14 16 17 20 24 23 27 21 15 14 19 22 21
5 4 4 5 5 2 2 1 2 2 3 4 4 5 7 3 6 8 4 13 8 7 3 5 4 2 4 4 5 5 9 11 5 7 7 8 12 12 14 13 5 13 17 20 20

GFSSW_850_spd_027.txt.gz
Wind_Speed
24 22 20 19 17 21 18 16 17 24 18 20 19 13 16 13 14 15 23 22 23 11 14 23 18 18 12 9 10 9 3 4 5 7 5 3 2 2 7 12 9 5 8 5 20
26 25 23 23 19 20 17 20 16 18 25 22 19 12 15 11 14 22 27 22 16 18 17 20 25 21 10 10 9 6 4 8 5 5 2 4 4 7 5 7 4 4 6 9 25
25 24 24 21 21 20 21 17 18 19 18 23 20 13 10 10 11 26 21 23 20 25 20 16 16 20 9 8 9 6 6 4 4 5 4 4 9 3 5 6 4 3 4 18 26
23 22 21 20 20 21 20 19 17 17 20 21 20 21 6 14 7 2 8 18 25 30 23 17 12 13 6 6 8 4 7 7 7 15 4 1 7 4 9 15 4 4 2 14 20
22 21 20 19 21 21 20 21 17 19 20 17 22 24 7 16 21 1 4 18 27 30 30 22 16 8 7 8 5 4 2 6 13 16 9 8 10 10 10 16 19 17 13 9 12
23 21 20 18 17 17 17 17 18 17 18 16 22 16 15 12 13 14 4 21 29 28 30 25 14 12 8 3 8 5 11 13 12 12 8 6 9 14 2 9 24 22 20 19 17
25 19 19 20 17 15 16 17 16 17 17 15 19 12 14 21 10 15 11 21 27 27 28 26 11 12 6 4 6 6 3 1 6 6 5 2 12 8 19 25 29 33 29 28 28
22 20 18 17 16 17 18 17 17 17 15 14 13 14 7 25 8 12 10 21 22 20 21 23 14 13 4 6 4 6 3 3 3 6 6 8 18 8 12 24 27 31 36 35 33
21 22 20 17 16 18 19 19 18 16 13 11 10 9 5 9 22 15 13 16 19 20 15 21 20 6 4 6 3 2 4 4 5 4 4 8 4 4 15 25 23 31 33 33 29
20 20 22 18 17 18 18 18 15 10 11 6 16 4 7 9 22 19 15 13 11 18 16 13 8 4 3 3 7 5 4 2 4 2 3 6 8 13 25 22 15 21 27 31 33
23 21 19 17 15 18 16 16 3 4 7 2 4 6 6 11 24 18 15 16 9 12 7 10 4 11 10 7 4 6 3 3 3 4 4 6 5 12 16 16 19 27 34 38 39
21 16 14 11 10 11 12 5 3 3 4 12 5 5 8 19 13 16 13 8 6 3 5 5 4 3 5 5 1 2 1 3 5 2 2 6 11 15 15 16 25 29 35 39 39
23 20 18 15 14 13 10 4 1 3 1 5 4 2 13 16 7 14 15 6 3 4 4 6 3 12 7 3 4 1 4 3 4 4 2 7 7 5 5 11 19 29 34 38 35
30 26 20 11 11 10 6 1 5 2 4 1 3 5 13 13 5 15 12 2 2 9 7 6 5 7 8 7 5 4 2 3 3 3 3 5 5 6 8 12 5 18 19 18 18
22 15 5 6 5 7 4 4 6 3 5 5 3 10 7 3 18 6 7 3 3 5 4 1 4 9 5 4 4 3 4 4 3 3 2 2 1 8 5 7 7 8 15 11 13
22 14 6 6 2 4 8 4 4 3 3 2 3 6 6 5 4 8 1 6 10 8 6 3 2 2 2 4 1 6 5 6 4 2 2 3 3 6 3 2 6 9 21 19 20
22 20 16 11 12 14 12 4 3 2 3 4 7 7 8 5 5 3 0 4 4 5 2 4 3 3 5 6 5 4 5 2 4 3 5 2 3 10 8 5 5 9 13 16 21
19 22 23 25 21 11 5 2 4 4 3 10 11 13 5 4 5 2 4 3 4 5 3 3 1 4 2 3 5 2 4 4 4 1 4 1 5 6 4 1 3 3 8 18 24
13 17 17 16 9 5 2 4 1 3 3 8 12 7 4 4 3 4 2 4 3 3 5 4 1 1 1 2 4 3 1 1 5 3 3 3 6 9 6 6 7 10 16 25 34
7 10 11 8 7 8 5 3 2 3 9 4 5 0 3 3 3 2 4 3 3 3 2 5 4 1 1 3 5 3 7 4 3 1 3 4 5 5 4 5 6 6 18 28 30
7 2 8 10 5 6 3 3 2 3 4 4 4 5 5 4 4 3 6 2 4 4 2 3 3 1 4 4 6 3 1 4 4 3 3 3 6 6 4 2 5 9 28 25 27
7 3 13 9 4 3 2 1 4 4 2 2 3 4 4 4 3 2 6 4 9 8 5 2 4 3 5 0 4 3 5 5 4 3 2 3 7 5 6 2 6 25 24 26 29
5 6 10 11 3 3 3 3 2 3 1 3 2 2 2 4 4 2 5 3 10 7 8 5 1 2 3 2 3 3 4 4 4 3 5 3 6 2 5 13 27 21 24 21 29
4 3 5 7 4 3 5 4 4 2 1 4 3 5 4 3 1 6 3 3 13 9 12 7 3 4 5 4 3 2 4 6 6 3 3 8 9 17 19 18 20 25 16 22 26
3 2 3 4 3 4 2 4 4 5 5 3 3 5 4 3 2 3 2 2 4 5 4 4 3 2 4 6 4 6 5 7 8 8 6 5 9 18 19 18 21 18 18 21 27
3 3 3 4 9 5 4 3 5 4 4 4 4 1 0 5 4 7 6 2 3 2 3 2 3 1 4 4 5 5 9 10 10 11 14 17 22 24 29 18 17 10 15 19 23
5 3 1 2 4 3 2 4 3 2 3 4 4 4 4 2 1 9 8 10 6 7 3 4 5 2 4 5 6 6 11 12 5 6 10 9 13 6 10 11 11 11 14 17 18

GFSSW_850_spd_030.txt.gz
Wind_Speed
25 28 27 25 24 21 21 19 16 18 18 26 23 25 14 19 17 17 26 25 24 8 11 25 21 17 12 9 9 9 3 5 7 7 4 2 2 1 2 8 7 3 7 6 10
25 25 26 24 23 21 21 21 17 18 19 28 27 24 16 7 19 28 26 21 18 17 12 27 24 19 8 8 8 6 4 9 7 6 4 2 2 3 3 7 4 5 4 8 12
25 25 23 22 19 20 20 19 22 22 20 19 27 24 19 12 15 28 23 24 20 23 16 22 22 21 9 8 7 5 5 5 6 6 4 3 2 1 0 4 3 2 7 5 19
26 24 22 20 19 20 20 18 20 19 18 19 18 17 17 12 5 2 5 19 21 27 22 19 20 17 6 6 9 3 5 9 5 9 5 3 1 3 7 9 4 7 12 3 16
25 24 22 19 18 16 17 16 17 15 15 17 17 13 11 9 20 5 3 7 28 29 27 23 20 13 6 8 6 4 3 12 13 10 7 5 6 8 11 14 14 16 13 9 7
23 23 21 19 18 16 15 14 15 13 15 15 14 12 14 8 14 23 4 11 29 33 30 26 16 11 10 7 5 8 9 9 6 9 5 5 7 9 3 7 17 22 21 19 15
22 23 20 17 17 14 15 14 15 15 14 14 12 11 18 15 9 17 15 10 30 34 34 28 15 10 8 4 12 5 2 1 7 5 5 1 7 7 21 24 30 28 26 25 24
25 21 19 18 16 15 16 17 17 14 12 11 8 12 10 12 16 10 11 15 28 27 32 28 13 12 4 6 4 6 3 2 3 7 5 8 5 7 12 16 24 28 30 31 31
24 23 19 19 17 15 17 18 15 15 12 9 9 10 7 5 19 9 7 22 25 22 23 24 16 7 4 6 4 2 4 4 5 5 2 7 3 4 9 9 15 23 29 29 29
28 23 20 17 16 14 17 15 11 6 3 3 8 5 6 8 15 14 11 18 24 23 19 19 9 4 2 4 7 6 3 2 4 2 2 4 7 9 18 15 14 21 26 26 27
28 22 16 12 8 9 9 9 2 3 6 3 2 4 6 11 20 16 12 19 14 24 7 15 4 14 12 6 4 5 4 4 3 2 2 5 4 13 17 15 19 25 29 33 35
30 29 18 13 10 9 10 4 1 1 4 9 4 10 5 16 8 14 13 7 4 12 6 5 7 6 8 8 6 5 4 3 4 1 1 5 10 16 14 9 22 26 31 34 36
32 21 18 9 10 8 8 3 3 3 1 1 7 8 9 15 8 7 10 5 3 4 11 5 4 4 12 9 7 2 4 2 3 4 2 7 6 5 4 4 8 15 19 22 24
29 21 9 6 4 4 4 3 4 1 4 3 4 1 14 9 5 12 8 2 3 6 12 5 2 6 7 5 4 2 2 2 2 2 2 4 5 7 5 8 4 11 19 16 11
29 18 10 7 2 2 4 4 3 2 4 2 3 6 14 5 16 4 4 7 5 6 1 3 8 5 8 5 5 3 4 4 2 3 3 3 3 8 4 5 4 10 17 22 25
25 16 9 8 7 6 6 5 3 4 5 4 3 7 7 4 4 8 3 8 8 10 6 4 7 4 4 4 1 9 5 5 4 2 2 3 3 6 1 2 6 6 12 19 24
22 21 13 13 15 13 7 4 5 5 2 1 6 5 7 4 5 4 2 4 3 4 4 4 2 1 4 7 4 4 5 2 4 3 4 2 1 8 5 4 3 4 7 21 30
17 16 15 14 11 7 8 4 8 3 6 5 6 12 6 6 5 3 3 3 5 4 3 3 2 2 2 3 5 2 5 4 4 1 3 0 5 4 4 1 4 2 10 29 31
9 13 15 13 11 11 6 5 0 2 4 8 8 7 5 6 4 4 4 2 2 2 5 4 3 2 3 2 3 3 2 2 5 2 2 3 7 7 5 5 3 4 17 30 27
13 12 17 17 12 8 2 3 2 3 3 5 4 2 3 2 2 2 3 1 4 2 2 2 4 2 2 4 7 2 6 2 3 2 2 4 5 4 4 4 6 8 19 31 29
9 4 17 16 9 6 3 3 1 3 4 3 2 3 4 4 3 4 4 1 2 3 6 3 3 1 3 2 6 2 1 4 4 3 3 2 5 6 5 1 4 9 25 24 21
6 3 14 11 6 3 2 5 6 4 3 3 4 3 3 2 2 2 7 2 6 8 5 2 4 2 2 1 1 2 5 5 4 4 1 2 6 3 5 6 7 18 23 19 20
6 4 10 9 3 3 5 3 2 3 3 0 2 1 2 4 3 2 3 1 9 4 6 5 1 3 4 3 2 3 4 4 4 3 5 4 5 1 4 9 20 18 21 26 28
5 3 5 8 5 2 5 4 4 4 2 3 3 3 3 2 4 4 2 4 9 8 7 5 3 4 5 5 4 2 4 5 5 3 3 6 7 12 12 13 18 24 26 21 21
6 2 2 3 1 2 2 2 3 4 4 1 2 3 4 3 2 3 2 2 4 2 4 4 3 1 4 4 3 4 4 8 8 6 6 3 6 11 14 14 20 23 18 19 23
4 4 4 4 6 0 3 3 4 4 2 2 5 3 3 4 5 7 5 3 3 2 4 1 3 1 4 3 4 5 9 9 11 11 12 13 19 18 23 17 13 14 15 17 16
6 3 2 3 4 1 2 2 3 4 3 4 4 3 3 1 2 6 4 9 5 7 3 4 5 2 4 3 5 5 8 12 7 6 9 8 13 7 9 7 12 17 14 17 16

GFSSW_850_spd_033.txt.gz
Wind_Speed
30 28 26 24 25 22 22 19 19 16 15 12 22 28 25 22 11 23 27 25 21 12 9 27 22 18 16 14 10 9 3 7 10 8 4 6 5 5 4 4 3 4 5 6 5
27 25 25 23 23 21 18 18 18 15 14 16 16 20 25 22 20 27 27 17 21 15 10 23 27 21 9 9 9 6 5 9 5 6 4 9 6 5 2 1 3 4 3 6 8
25 24 23 22 20 18 17 17 16 15 15 14 14 15 15 19 21 15 24 24 21 23 14 18 25 20 8 8 7 7 5 5 5 9 9 10 4 5 4 3 3 3 8 6 8
25 21 23 21 19 17 14 13 13 12 13 14 14 15 11 11 8 4 6 21 24 24 20 22 25 15 6 6 8 4 5 8 4 10 6 5 6 3 7 7 3 2 10 6 6
25 22 22 17 15 17 14 12 11 11 9 10 12 11 8 12 17 9 8 9 27 30 29 25 25 17 13 7 7 2 4 8 5 6 3 4 4 6 10 11 11 13 12 7 5
24 22 21 17 17 12 11 10 10 11 9 8 11 9 8 9 15 17 11 6 31 33 31 23 20 16 13 9 5 11 6 4 4 4 3 5 6 6 6 8 13 17 19 18 15
25 23 19 16 16 12 11 12 11 12 8 10 9 8 11 20 13 13 13 12 29 35 34 25 17 17 14 5 9 10 4 2 6 6 3 3 5 6 22 21 24 26 23 20 18
28 24 20 18 16 14 11 12 12 10 9 8 6 7 8 22 14 16 6 11 25 33 32 28 24 11 4 12 5 5 3 4 2 9 6 7 8 4 3 10 16 18 21 23 27
28 26 21 17 13 15 13 12 12 12 11 7 7 8 6 11 15 15 5 13 25 31 29 27 20 5 5 6 4 2 4 4 3 9 3 7 2 4 3 9 15 17 18 18 22
27 23 21 11 9 9 7 9 6 3 5 6 6 6 7 8 15 15 12 15 26 28 24 20 9 4 2 4 8 6 4 3 6 2 2 3 6 8 20 13 14 17 21 24 22
31 24 19 10 6 5 5 6 0 3 4 5 6 4 10 10 14 17 11 19 22 25 7 14 4 14 12 3 4 6 5 3 2 1 1 4 4 10 18 17 19 24 27 27 26
30 20 14 4 3 5 5 3 2 2 2 5 8 11 4 12 7 7 13 11 11 12 9 6 7 7 9 5 7 5 5 3 1 2 0 3 10 16 12 9 12 14 17 19 17
32 25 9 9 2 5 3 0 1 3 2 4 3 5 6 10 6 7 6 9 15 13 14 11 5 12 10 5 7 3 4 3 2 2 2 5 5 5 3 3 8 12 11 6 6
29 25 14 7 6 7 5 3 3 1 2 4 5 4 8 6 4 8 6 5 5 13 9 3 1 13 13 12 9 5 3 4 4 2 2 4 4 6 2 3 5 15 24 23 19
31 21 11 10 5 8 4 1 1 3 5 1 3 2 8 4 9 9 11 17 7 10 5 3 7 8 11 7 4 4 5 4 3 4 2 2 2 4 1 3 4 5 12 16 17
26 27 20 11 8 7 4 1 3 4 7 2 3 10 2 6 4 6 8 12 10 8 10 4 6 3 3 6 5 10 6 6 4 2 1 1 2 3 1 3 0 0 6 19 18
21 23 20 14 10 6 5 8 4 6 3 6 5 3 5 5 4 3 4 3 3 4 4 3 3 3 9 6 3 2 4 1 2 1 3 1 1 6 4 4 3 3 4 20 19
16 19 19 18 12 12 10 2 10 5 7 3 5 11 6 7 4 2 3 4 5 6 3 3 3 1 1 3 6 2 4 3 4 3 2 2 5 2 4 6 5 2 9 16 21
15 12 18 18 14 11 4 7 3 2 2 4 4 6 3 5 4 3 3 2 2 3 4 4 3 2 4 2 2 4 2 3 6 2 1 2 5 5 2 4 0 2 20 23 24
11 5 17 17 14 9 5 4 2 3 2 3 3 1 3 1 3 2 2 1 3 1 2 4 5 2 1 3 8 2 6 3 2 3 3 3 4 3 4 4 3 4 14 20 19
7 2 14 13 10 9 3 4 2 3 2 1 3 3 3 3 2 2 4 2 1 2 5 3 3 0 3 1 6 2 2 5 3 2 3 1 4 5 6 3 4 10 23 20 21
5 3 11 6 6 3 2 3 4 3 3 3 3 3 3 3 3 2 5 1 4 6 3 1 4 3 1 1 1 1 4 4 3 4 1 0 5 0 4 5 5 16 19 19 20
7 3 8 4 3 2 4 4 2 4 3 3 1 1 1 3 3 2 4 1 8 4 6 5 1 3 2 2 1 3 3 3 4 2 5 3 4 1 3 6 15 12 16 17 15
4 2 5 7 5 3 1 1 4 2 2 2 2 2 3 3 4 3 2 2 6 2 8 6 3 4 4 4 3 3 4 5 5 3 3 5 5 7 7 8 15 22 19 15 17
6 2 2 2 3 3 1 1 2 4 2 0 2 1 3 2 2 2 2 3 2 5 3 4 3 2 2 2 3 3 4 8 7 4 5 3 6 7 9 9 14 18 12 14 14
4 3 3 1 4 3 1 2 0 2 1 0 4 3 1 4 5 7 5 2 3 2 3 2 3 2 3 1 4 5 8 8 11 7 9 9 17 15 22 8 10 12 10 13 12
5 3 1 1 3 1 1 3 2 4 1 0 7 4 2 2 3 6 5 7 6 7 3 4 5 2 4 1 4 6 11 14 6 5 10 9 11 4 7 4 12 11 9 11 14

GFSSW_850_spd_036.txt.gz
Wind_Speed
27 26 25 23 22 21 20 19 19 17 15 14 13 10 19 27 30 15 25 18 22 9 11 26 21 14 15 14 10 10 10 17 22 20 15 9 11 7 5 9 7 4 2 3 4
27 26 22 22 21 21 19 16 16 15 13 14 12 12 14 17 26 24 16 24 17 16 9 21 24 18 12 12 11 14 15 22 14 14 13 12 12 10 8 9 9 6 3 6 7
26 25 22 20 19 18 16 13 12 11 10 13 11 12 12 11 14 18 15 24 18 22 13 15 21 18 13 12 15 17 17 12 9 13 9 13 11 7 8 8 9 9 2 1 6
27 25 21 18 17 15 13 12 10 8 9 9 11 9 12 2 9 16 12 20 22 22 17 17 24 15 14 13 17 9 17 10 7 7 8 13 10 9 12 6 8 9 1 0 3
29 24 22 19 15 14 11 11 7 6 8 6 6 9 5 9 17 11 16 17 26 24 25 24 31 19 18 17 14 13 8 9 7 9 7 8 10 9 11 9 7 9 10 6 4
24 26 22 18 15 11 10 8 5 7 7 7 7 8 9 12 8 24 10 8 30 28 28 25 26 20 17 15 15 15 5 16 11 9 5 8 9 6 9 9 10 13 14 13 12
28 25 21 16 12 11 9 8 6 7 8 6 8 8 11 17 8 20 21 8 24 29 30 22 18 20 12 7 10 8 14 7 12 11 8 7 12 13 18 19 18 17 16 14 14
28 24 19 15 12 11 9 8 6 8 6 5 6 5 9 10 15 19 16 10 21 27 26 18 22 18 10 7 12 11 6 10 11 17 7 6 13 4 6 12 16 15 16 17 19
30 25 18 9 7 6 8 7 8 8 8 6 6 6 7 9 16 21 9 8 25 25 24 20 23 18 9 14 9 14 11 17 5 9 9 17 9 8 10 7 11 12 13 13 13
29 22 12 3 2 2 2 4 1 1 6 6 4 5 11 13 14 23 13 9 29 24 21 20 12 12 13 15 15 17 16 12 14 5 9 9 13 6 9 10 14 15 16 16 15
29 17 9 5 2 4 4 3 2 3 5 4 2 5 9 13 15 17 10 18 24 25 10 21 8 16 21 18 3 10 16 9 8 4 6 11 12 12 16 17 19 19 20 19 17
29 21 11 9 6 5 4 4 3 1 2 2 6 11 10 9 9 12 12 9 21 21 15 9 13 17 14 11 9 14 14 10 5 4 5 5 11 14 16 15 14 14 15 15 12
23 21 16 11 11 9 8 5 3 2 1 4 3 6 3 10 7 4 5 9 18 18 20 10 12 13 14 12 12 9 11 8 3 5 1 5 9 7 2 7 4 3 2 3 5
32 18 12 6 8 10 9 5 3 3 1 3 2 5 4 9 6 10 10 4 4 9 10 7 6 18 17 16 13 9 4 7 5 4 4 3 2 5 5 8 9 12 11 9 8
27 28 22 10 7 7 4 2 2 5 3 2 5 4 8 7 8 7 7 3 7 13 5 4 6 17 18 18 14 3 7 7 4 2 2 4 4 6 11 10 10 9 8 5 4
18 20 17 9 7 6 4 4 6 3 8 5 3 2 6 3 3 5 7 10 13 9 14 5 4 3 3 7 7 15 10 7 3 0 3 3 4 6 8 10 10 7 4 6 4
13 14 15 11 6 8 9 4 1 6 2 5 4 7 6 5 4 4 4 3 5 5 3 0 4 3 5 8 6 5 10 3 4 3 2 2 3 2 8 6 7 8 1 5 6
13 8 10 11 12 11 7 2 9 5 8 2 6 9 4 2 3 4 4 5 5 8 4 3 4 3 1 0 5 9 5 3 4 4 3 2 6 2 6 6 2 7 3 5 5
8 4 9 11 10 9 2 6 2 1 2 4 4 5 2 2 4 4 3 4 4 0 2 4 4 2 4 7 4 4 4 2 4 1 2 4 3 5 2 7 10 8 5 4 6
8 3 9 12 9 6 3 5 2 2 3 2 3 2 3 3 2 2 3 1 3 2 2 3 6 2 3 1 8 2 8 2 1 5 5 4 3 4 10 10 10 3 7 7 7
5 2 12 10 6 6 4 3 2 3 3 3 2 2 3 3 2 2 3 2 1 2 2 5 2 3 3 4 6 4 3 1 0 2 2 2 3 2 14 9 5 5 6 7 8
4 1 9 7 2 3 2 1 1 2 2 1 2 2 1 2 2 2 3 2 3 5 4 2 4 4 1 2 4 3 3 5 3 4 1 2 2 4 5 4 3 10 9 9 8
7 2 5 2 2 3 4 4 3 0 1 1 1 0 1 2 1 2 2 2 4 2 5 6 3 5 2 1 1 5 7 4 3 1 5 3 4 3 5 2 6 7 9 7 7
5 1 4 6 4 2 2 1 1 1 1 1 2 2 4 3 2 4 4 1 2 1 5 3 2 1 3 3 4 5 10 11 7 4 5 6 1 7 5 6 7 9 7 8 8
5 2 2 1 3 2 1 1 2 2 2 3 2 3 4 4 4 4 3 3 2 4 2 1 2 1 2 2 4 3 6 13 11 10 6 1 7 7 7 8 9 9 9 7 8
3 3 2 0 2 3 2 2 1 1 1 3 3 6 5 3 3 6 7 5 3 4 3 1 3 1 2 3 6 8 11 12 16 16 16 15 18 16 18 5 6 10 7 6 7
4 2 1 1 1 2 1 0 0 3 2 3 5 4 3 2 3 2 6 6 6 8 5 5 5 2 1 1 4 8 16 19 11 9 14 12 10 6 8 6 9 8 3 4 5

GFSSW_850_spd_039.txt.gz
Wind_Speed
26 25 26 25 24 22 21 20 20 21 18 17 16 15 11 14 25 28 18 19 22 8 11 18 18 17 12 16 20 14 10 14 23 21 16 13 10 16 8 13 8 8 4 5 6
26 26 25 25 22 22 20 19 17 17 14 15 17 13 13 15 12 24 27 17 18 14 11 21 22 17 16 18 13 15 15 24 20 18 11 14 14 14 8 13 13 10 4 3 6
27 28 26 23 22 20 19 16 11 10 11 8 11 12 13 10 15 30 27 15 23 20 13 17 20 20 18 16 21 16 21 20 21 6 6 15 15 12 13 11 14 15 10 5 6
24 22 26 22 20 17 16 13 9 8 6 8 9 9 12 4 6 12 18 20 22 21 18 17 26 22 19 15 23 13 26 22 21 4 4 13 14 14 14 7 8 6 6 4 6
29 25 24 22 19 14 13 10 7 5 5 6 7 7 6 10 17 9 18 20 23 24 25 20 30 24 17 20 18 17 10 20 9 5 10 15 16 14 15 10 8 8 5 4 5
30 26 21 19 15 12 8 8 6 4 5 5 6 8 6 13 8 13 13 13 26 26 27 26 29 23 15 10 19 14 14 13 13 8 7 10 14 12 13 12 12 12 11 9 10
31 27 22 15 11 9 6 6 6 5 5 4 6 7 12 16 6 14 22 6 14 29 29 25 20 24 10 6 14 10 16 8 15 13 7 9 14 18 18 11 14 15 13 13 14
30 24 19 9 6 7 6 5 5 5 5 5 6 5 10 10 18 14 15 13 16 28 25 22 18 24 8 5 13 10 13 13 11 12 10 10 14 18 23 20 23 20 19 19 19
31 20 12 3 2 3 4 5 5 6 6 5 6 8 10 4 15 17 14 12 16 25 22 19 16 23 13 14 11 13 12 17 12 17 11 14 10 14 11 8 13 16 16 17 18
30 18 9 5 7 6 6 2 1 1 4 5 6 6 13 10 13 17 17 14 26 26 19 12 11 13 12 13 16 18 20 17 16 10 15 19 15 11 8 11 16 16 16 17 17
25 19 13 10 8 5 5 3 1 2 6 3 5 7 6 10 13 18 10 16 27 22 13 12 8 19 26 23 17 13 17 14 13 8 8 14 16 15 14 17 19 19 18 18 18
21 17 14 9 8 4 5 3 4 0 1 2 5 10 14 8 5 11 6 2 27 14 17 6 8 18 17 19 16 9 14 13 4 9 7 11 13 11 13 20 21 20 19 17 15
22 18 12 10 12 11 9 7 4 2 2 3 5 10 2 8 6 9 7 3 19 20 18 14 9 13 12 14 13 12 14 14 6 9 9 5 13 17 12 8 7 7 11 11 10
20 19 18 5 5 4 4 8 4 3 1 3 3 1 7 9 5 11 13 4 2 19 17 8 7 15 15 17 15 12 4 7 6 9 5 8 3 8 11 7 6 8 7 7 7
15 14 12 11 2 2 2 1 2 2 3 4 2 1 3 7 11 9 10 7 2 7 4 4 13 16 17 17 16 6 11 8 5 6 3 8 4 8 11 10 10 9 8 6 5
16 12 10 6 7 6 5 5 4 2 8 5 6 5 5 10 5 6 5 11 5 7 9 4 3 3 2 4 5 12 12 8 4 2 4 10 8 9 10 13 13 11 8 5 3
15 11 10 7 5 10 9 2 2 5 3 5 4 6 7 5 3 3 4 5 3 5 2 3 4 3 3 9 10 9 14 5 5 4 4 3 5 4 7 10 13 12 7 4 1
15 8 9 9 10 7 3 3 7 5 6 4 4 4 3 2 4 3 2 3 5 6 3 4 2 1 4 3 7 13 14 2 7 6 7 4 7 1 10 10 7 8 2 2 2
14 6 7 11 11 3 3 5 2 3 2 3 3 2 3 5 6 5 6 5 4 4 2 4 4 4 1 2 2 4 6 3 2 1 2 7 5 7 8 10 7 10 3 2 3
16 6 7 13 7 3 2 4 1 1 2 3 1 3 3 5 4 5 1 2 4 2 3 4 6 6 9 6 5 2 1 2 2 4 5 6 5 4 13 12 13 8 3 3 4
10 5 5 9 4 1 4 2 3 1 2 4 2 1 1 4 3 3 2 3 1 3 1 4 4 5 7 7 9 4 2 4 4 2 3 2 3 7 15 15 12 5 2 3 4
5 3 8 7 1 0 4 5 3 1 2 2 0 2 1 3 4 2 3 3 3 3 3 3 4 5 2 2 4 5 5 10 3 4 1 3 2 3 14 11 5 2 2 3 4
9 5 7 2 1 3 3 5 2 4 2 2 2 1 2 4 2 3 3 2 2 1 3 5 4 4 3 4 4 6 10 7 1 3 5 3 4 7 9 7 6 3 1 2 3
5 3 3 2 2 2 4 4 3 2 2 1 1 3 5 6 0 6 6 2 2 2 3 0 2 2 1 3 4 5 11 12 9 4 5 8 6 11 9 4 3 0 2 4 2
4 2 3 3 2 3 3 1 3 2 2 2 3 6 5 3 5 4 7 6 3 4 2 2 2 1 3 1 3 4 7 13 13 12 7 3 11 13 9 2 2 2 3 3 3
5 5 8 7 7 6 2 2 2 0 2 1 4 3 4 3 4 6 8 7 6 8 5 2 2 1 2 4 6 9 11 11 16 17 18 15 14 10 14 10 2 4 3 3 4
8 5 4 3 4 5 1 2 1 4 2 3 3 3 4 2 4 3 3 5 4 7 10 6 5 2 1 2 3 10 18 19 15 11 17 15 12 8 4 2 4 6 2 1 2

GFSSW_850_spd_042.txt.gz
Wind_Speed
26 27 27 26 25 21 21 19 19 18 19 17 19 21 16 13 14 23 29 19 25 10 16 15 20 19 13 13 16 19 6 13 17 17 15 9 5 8 3 9 3 5 10 11 8
26 25 26 26 24 21 20 18 17 16 14 14 17 21 9 16 14 20 28 23 25 19 10 23 21 21 10 11 10 10 7 15 17 23 17 8 7 6 6 10 10 7 5 9 6
29 31 29 26 26 21 18 16 13 12 8 10 13 19 15 8 14 29 23 32 25 26 15 20 20 19 14 13 12 11 13 19 30 25 10 8 10 9 8 6 16 12 13 10 5
32 31 31 25 21 19 16 12 11 8 6 7 11 10 7 4 6 10 26 31 20 23 17 21 25 23 12 13 21 7 24 22 20 5 6 12 9 11 11 6 1 4 16 10 5
35 32 30 23 19 14 11 7 6 5 4 4 3 3 2 9 17 10 17 22 24 28 22 20 29 24 15 19 15 18 12 21 26 6 0 9 9 6 10 12 1 5 8 8 6
34 29 25 20 13 9 6 3 3 3 2 3 4 5 7 10 6 7 9 19 30 30 26 22 23 21 11 12 14 12 19 12 13 5 1 4 6 8 11 11 10 5 6 6 7
35 28 20 15 8 5 4 3 2 4 4 3 5 6 8 13 1 5 10 11 23 31 25 23 20 20 6 3 11 7 6 8 6 9 2 2 7 12 16 8 13 13 13 13 14
31 24 21 11 7 5 2 3 3 3 4 4 4 4 10 8 14 9 9 14 3 25 24 21 18 18 5 4 2 6 2 8 8 11 6 11 6 12 20 19 16 14 16 17 16
28 25 19 14 12 7 1 1 2 4 3 1 3 3 6 3 11 10 17 12 6 23 26 17 18 9 13 5 4 5 7 12 9 15 5 9 3 16 14 25 19 20 24 20 18
23 21 17 14 12 10 8 4 3 4 1 1 3 4 4 5 7 10 13 15 8 31 24 17 9 5 4 7 11 15 14 14 13 11 14 11 10 9 10 11 13 11 11 12 14
21 16 15 14 10 7 7 7 3 2 3 1 4 12 10 10 9 10 13 12 12 18 9 13 6 18 22 17 7 9 12 13 14 9 12 14 11 11 14 12 10 13 15 15 15
20 19 13 15 9 4 7 2 4 1 3 1 5 8 9 8 5 11 9 11 11 13 14 7 11 11 13 12 15 9 5 15 2 8 5 6 11 10 10 12 18 18 18 19 15
19 15 13 7 8 9 6 4 3 4 2 5 6 3 2 5 7 13 7 4 10 13 13 9 6 14 17 16 15 11 8 9 4 6 2 5 7 10 9 14 18 12 9 10 9
17 15 9 5 6 1 2 8 4 3 2 5 4 3 3 1 4 8 11 6 3 14 11 7 6 7 8 15 15 9 8 5 8 5 3 9 4 11 16 8 3 5 7 8 8
22 16 11 6 0 4 6 1 3 2 2 3 4 3 2 4 7 7 13 4 5 9 4 1 8 5 12 12 8 5 11 7 5 4 4 6 2 2 11 7 6 10 10 10 9
24 17 12 6 7 7 8 6 3 2 4 1 3 4 5 6 4 6 7 7 7 7 8 4 5 2 2 3 5 7 10 8 2 2 2 8 5 4 8 11 9 10 12 12 11
22 16 11 7 1 11 6 2 2 4 1 3 4 5 6 2 4 2 4 4 3 5 3 5 3 3 3 7 6 9 9 3 1 1 4 3 5 6 6 12 11 11 16 12 9
19 11 8 7 3 8 2 3 4 2 2 3 5 7 3 2 4 3 7 3 1 3 4 3 2 1 2 0 5 7 7 4 5 4 4 2 5 4 7 17 24 20 13 8 7
18 8 7 11 8 3 2 4 1 2 2 3 6 2 3 5 6 5 3 4 5 3 3 3 3 2 2 4 2 3 2 4 3 3 3 5 3 4 7 7 7 14 10 8 6
17 3 2 12 6 2 2 4 2 2 3 4 1 1 3 5 4 7 5 2 7 6 7 5 5 2 3 1 5 3 4 2 1 2 4 5 6 4 11 10 7 8 9 8 6
6 5 1 9 3 1 2 0 4 3 3 4 4 1 3 3 3 2 5 4 2 6 6 5 4 6 5 5 6 2 1 3 2 2 2 2 2 3 13 10 9 10 9 5 4
5 2 3 6 1 3 2 3 1 2 1 0 2 4 3 2 1 4 5 5 3 4 5 3 5 3 2 5 5 4 4 2 2 3 1 2 3 1 9 8 11 7 7 6 5
6 3 4 2 1 2 1 3 2 1 1 1 1 3 2 2 1 5 6 1 1 2 2 4 3 4 3 3 4 5 7 8 3 3 4 2 3 5 10 10 9 8 7 6 5
5 3 2 4 1 5 3 5 3 1 3 3 4 3 2 1 3 4 6 2 3 4 3 3 2 2 3 2 5 5 8 10 5 3 3 4 5 5 6 8 11 10 7 4 4
5 2 2 3 5 7 5 5 3 3 3 2 4 6 5 3 3 3 6 4 2 3 1 3 3 3 4 4 4 2 6 10 9 7 4 1 5 12 10 7 10 10 9 5 5
6 5 9 7 4 5 3 1 3 3 2 3 3 3 3 3 2 2 5 5 3 4 4 2 2 2 2 4 3 5 7 8 11 12 11 10 6 1 4 6 9 7 5 5 5
9 4 4 8 4 3 4 8 7 6 3 2 7 2 4 5 8 8 6 2 5 6 5 4 3 2 1 3 3 6 15 16 10 8 13 12 9 2 2 6 6 4 6 7 6

GFSSW_850_spd_045.txt.gz
Wind_Speed
26 28 27 26 24 23 21 18 16 14 15 17 16 17 15 17 19 22 26 31 21 17 18 21 19 19 22 19 14 22 6 11 17 16 19 16 15 7 8 6 10 9 22 18 23
30 31 29 27 23 21 18 18 15 13 14 12 13 13 12 17 15 24 26 31 30 18 17 22 26 21 10 13 14 9 9 16 17 19 4 20 16 16 3 3 12 17 15 12 15
31 30 27 27 22 18 14 14 12 10 8 8 8 12 15 14 7 22 20 28 28 27 12 20 25 19 7 10 9 10 13 14 19 21 10 7 20 23 10 0 4 20 16 12 10
31 30 26 23 16 13 9 10 7 5 5 5 7 10 14 17 7 0 10 29 33 32 22 22 24 16 6 7 18 6 15 23 15 15 4 7 14 18 6 6 4 8 16 15 10
31 27 22 19 14 9 7 5 2 1 1 2 3 4 8 7 11 14 8 32 31 31 30 29 30 18 7 8 13 4 3 17 15 10 9 16 28 10 12 11 9 19 19 13 8
29 24 22 17 12 6 6 2 1 2 2 1 1 1 4 4 2 6 10 27 30 28 31 31 26 24 13 17 9 12 14 9 9 12 14 12 7 8 7 7 9 9 8 10 11
27 24 22 19 13 8 4 2 1 0 2 3 2 4 6 9 6 7 3 18 27 29 30 30 27 27 10 6 18 9 12 8 6 6 5 3 2 17 15 5 7 6 7 7 8
22 22 20 19 15 8 3 2 3 2 3 3 2 3 7 7 6 6 3 7 17 24 30 29 23 25 4 5 6 5 6 5 10 13 7 9 7 7 19 11 10 8 11 10 11
22 19 17 15 16 14 8 5 3 3 2 4 5 2 6 7 4 8 6 4 3 28 30 21 18 11 7 7 3 5 4 5 6 16 5 5 5 14 14 18 18 17 14 14 16
19 18 16 11 10 8 8 7 6 5 4 3 1 4 3 9 9 6 10 9 8 27 14 15 11 6 5 6 15 13 12 9 8 8 7 6 7 6 7 17 22 17 17 18 20
18 16 15 13 5 8 4 5 3 2 1 1 5 6 12 9 5 9 9 8 9 20 6 9 10 19 18 6 5 6 7 5 7 7 7 13 5 12 13 6 11 16 16 13 10
16 14 10 10 8 9 6 5 5 1 5 3 7 11 8 3 1 8 9 7 7 6 16 4 8 5 8 6 7 5 8 8 1 6 10 5 12 8 13 11 19 19 17 16 13
19 14 10 5 5 6 8 6 5 2 2 6 5 4 4 2 4 6 3 2 6 3 14 8 6 8 8 7 8 6 5 4 5 3 3 3 5 8 9 17 21 27 22 15 15
23 17 7 5 4 6 4 0 2 5 1 4 2 4 2 1 4 7 1 3 3 14 8 4 3 11 9 9 5 5 5 3 12 5 4 6 5 6 15 15 9 16 12 12 12
26 16 6 4 3 3 7 5 3 3 4 5 3 3 5 7 5 4 6 3 7 6 3 1 2 5 6 3 2 5 7 7 5 4 3 2 2 7 4 9 7 11 11 13 14
24 15 3 1 1 4 8 7 1 1 5 1 6 4 4 10 2 6 4 8 8 6 10 4 4 4 2 2 2 4 9 8 5 4 1 6 7 5 5 10 6 9 17 18 16
18 11 1 1 3 5 2 2 3 5 1 4 4 5 3 3 3 2 3 3 3 6 3 4 3 2 4 5 7 4 7 2 2 1 5 2 6 10 5 5 9 12 20 16 14
16 6 3 2 3 2 5 1 8 4 1 2 3 3 3 4 2 4 6 3 2 5 4 3 3 1 1 3 3 9 3 5 6 5 4 2 7 6 5 15 23 26 22 20 17
14 2 2 4 4 5 4 4 6 3 3 1 2 2 4 5 5 4 1 5 4 4 4 5 2 1 2 2 2 5 3 2 2 1 3 4 5 6 4 9 17 20 24 20 16
10 2 2 1 2 6 2 4 3 3 3 2 2 1 1 4 3 5 3 1 4 3 4 4 5 1 3 1 2 2 1 2 2 2 4 4 4 4 8 8 10 11 18 16 17
3 3 2 4 5 2 2 3 3 3 2 2 4 2 2 2 1 3 5 6 8 4 6 5 4 3 4 4 5 2 0 2 3 4 3 2 5 5 13 12 11 11 16 17 16
4 2 2 4 2 4 2 3 1 4 2 2 1 3 4 1 2 4 4 2 13 11 7 3 4 3 2 4 9 1 5 5 4 4 3 3 5 4 8 8 15 16 15 16 14
7 4 3 6 1 2 2 2 0 2 1 2 1 1 2 2 2 5 4 3 5 2 5 5 2 3 1 2 4 4 5 3 2 2 4 4 4 1 8 9 17 16 14 14 12
5 3 2 2 7 2 1 4 3 2 1 1 1 2 1 0 1 3 3 1 2 2 2 3 4 6 7 5 5 5 10 10 5 2 3 5 2 2 6 8 11 14 15 15 12
7 3 4 3 5 6 4 3 2 2 1 1 1 3 2 3 3 4 3 2 2 1 2 3 4 2 2 3 3 4 7 15 11 7 7 4 8 8 10 9 16 19 17 16 12
4 5 8 6 10 5 6 6 5 5 3 1 1 5 3 3 2 1 6 4 4 1 3 2 1 2 3 4 4 4 7 8 12 11 7 6 5 6 15 11 17 21 20 15 13
13 5 3 7 5 2 4 5 7 5 4 5 5 3 2 0 3 3 3 6 9 7 5 3 4 3 3 3 1 7 14 15 8 7 15 12 14 2 3 7 16 16 16 13 13

GFSSW_850_spd_048.txt.gz
Wind_Speed
25 26 25 24 23 23 21 18 14 15 14 16 16 16 15 17 18 20 26 29 30 12 18 18 18 15 18 15 12 23 5 12 18 12 7 13 10 12 17 6 8 4 14 25 28
26 25 23 22 20 19 16 14 12 12 11 13 12 12 12 13 19 28 27 22 29 19 23 26 25 19 13 10 12 7 11 19 14 20 6 11 15 19 10 15 8 13 17 26 28
26 24 22 17 17 14 11 7 9 8 8 7 7 9 10 11 10 21 29 25 27 27 17 23 21 22 17 10 8 10 18 7 17 24 6 11 22 21 15 5 10 19 23 25 24
25 24 21 16 13 9 6 7 5 4 3 4 5 6 7 9 6 4 11 13 22 32 20 21 22 22 12 8 11 7 11 18 8 11 12 18 18 19 18 17 11 12 18 21 23
22 23 21 18 13 9 7 4 2 1 1 1 2 6 4 8 17 5 11 19 27 33 27 26 26 19 6 8 12 3 15 20 18 18 19 13 11 13 29 23 8 19 19 16 16
21 21 20 16 11 9 7 5 4 2 3 3 2 1 1 4 11 5 8 22 33 35 34 28 22 20 8 9 12 9 5 12 18 21 24 17 13 3 27 21 11 22 16 14 11
20 18 18 16 13 7 5 5 3 2 3 4 2 2 5 5 12 15 4 21 32 37 39 34 14 19 12 5 11 10 8 3 14 22 9 18 7 16 42 20 10 18 16 14 12
19 17 14 14 12 9 4 3 3 3 4 2 1 3 6 8 6 6 5 13 24 29 34 34 18 24 5 6 9 5 6 5 4 12 11 18 14 22 32 27 16 13 12 12 12
17 16 15 11 8 7 5 2 2 2 1 3 3 4 8 7 8 2 4 2 14 19 26 29 24 11 5 6 4 3 6 8 6 17 5 9 5 11 25 28 25 17 13 14 13
15 14 14 12 8 5 2 3 5 5 5 3 2 7 3 8 10 1 4 2 5 16 19 19 10 5 4 7 16 19 9 11 8 11 7 9 5 4 15 13 25 24 19 16 14
17 12 10 9 7 10 2 2 2 1 1 0 5 8 9 10 3 2 3 3 9 10 4 10 7 17 12 4 6 10 5 5 2 7 7 12 4 9 18 12 15 24 21 17 13
20 17 9 4 3 7 4 4 4 3 3 3 8 11 11 2 1 3 7 5 3 11 6 6 12 6 9 4 7 9 7 5 1 4 8 6 14 7 12 10 20 17 21 18 15
22 22 10 5 3 1 2 4 4 3 1 4 2 2 0 1 2 4 7 12 5 13 12 7 8 10 8 4 5 2 6 5 5 3 2 4 6 7 9 15 22 24 21 21 21
24 22 11 3 4 5 3 2 1 4 2 2 1 0 2 2 3 5 4 5 4 11 8 4 2 9 8 4 4 3 6 5 7 5 4 4 5 6 9 12 11 26 28 28 22
24 22 10 5 4 5 3 3 4 1 3 4 2 2 2 4 8 4 5 3 9 8 6 2 7 10 7 7 5 5 5 8 4 5 4 1 0 6 2 8 17 19 30 25 22
21 19 7 5 6 3 2 4 2 5 3 3 1 4 2 4 3 4 3 6 6 6 9 5 5 4 2 2 3 5 6 8 5 3 1 6 6 5 6 8 5 8 24 20 20
17 13 6 5 1 3 2 3 4 5 0 1 1 5 6 2 4 4 2 4 2 5 4 5 3 2 2 5 3 3 7 2 2 1 7 3 5 17 6 7 7 11 22 25 25
13 3 3 3 2 1 5 3 7 5 2 2 4 4 2 1 4 3 3 2 3 5 4 3 5 1 3 3 3 4 4 5 6 4 4 4 8 7 8 13 17 27 31 28 23
8 2 3 0 1 2 1 4 6 6 4 6 3 1 2 2 4 3 2 4 1 3 5 4 2 0 3 2 1 4 2 1 4 2 3 5 7 9 1 2 13 23 27 25 23
2 6 4 1 1 5 1 3 2 3 1 2 4 6 4 6 5 4 6 6 4 5 3 5 4 2 3 2 1 1 3 1 2 2 4 5 5 6 5 8 10 12 20 24 22
7 4 3 2 3 2 2 4 2 2 1 1 1 1 1 5 5 5 7 3 7 5 5 6 4 3 4 6 7 3 3 3 0 3 3 2 6 5 9 10 12 14 24 25 23
4 2 1 3 2 3 1 4 1 1 2 2 1 3 3 3 4 3 5 2 14 9 6 2 5 4 3 5 7 3 4 6 4 5 3 3 6 5 7 7 14 17 24 24 24
3 3 2 1 1 3 4 2 3 1 1 3 2 3 3 3 3 3 3 4 9 4 6 5 1 3 3 1 1 5 6 5 4 2 6 5 5 5 2 8 16 20 19 22 21
3 2 1 3 0 1 4 3 2 1 1 2 2 3 2 2 4 2 2 4 3 3 4 5 3 5 6 4 4 5 11 10 8 4 6 6 5 3 3 6 10 19 22 22 20
4 3 3 3 3 4 1 7 2 2 1 1 1 1 2 1 2 2 2 2 4 2 2 3 4 3 3 2 4 4 6 17 16 15 9 9 9 6 9 10 18 21 19 21 20
5 5 5 5 10 5 7 7 8 4 0 1 1 5 2 3 1 4 4 2 3 1 2 3 1 2 4 4 4 4 7 11 18 15 12 4 6 7 13 11 14 20 22 24 22
8 4 1 6 6 2 4 5 8 11 5 6 3 2 4 2 2 3 7 7 7 7 4 3 4 3 4 3 2 7 13 14 11 10 16 11 16 3 5 12 20 23 26 25 22

GFSSW_850_spd_051.txt.gz
Wind_Speed
23 22 22 22 20 21 21 20 17 16 15 14 15 17 14 15 19 20 26 24 32 11 12 21 18 12 15 14 17 14 6 15 18 13 14 2 7 12 18 20 10 1 11 17 22
23 22 22 21 18 19 17 15 12 11 11 11 13 13 12 12 15 23 28 19 23 22 11 26 24 16 10 8 9 8 9 16 7 18 18 8 5 12 12 26 9 4 12 25 23
22 22 22 21 17 15 12 9 9 8 7 7 6 6 7 6 7 19 24 24 18 26 15 24 23 20 11 11 8 8 13 3 12 18 14 9 3 14 12 7 10 23 18 26 23
20 20 21 18 15 12 11 9 6 5 4 3 3 5 4 8 5 5 9 22 19 18 18 20 24 18 7 9 13 6 18 20 10 14 11 8 10 11 10 17 25 28 16 20 22
22 19 20 19 13 11 9 8 6 4 3 3 3 6 3 7 12 7 5 9 21 21 24 23 25 20 12 17 9 3 11 14 19 21 18 11 12 19 26 32 28 29 16 23 24
20 18 17 18 16 8 6 6 5 4 4 4 2 2 1 5 14 17 14 14 19 28 32 26 22 22 12 12 12 8 8 17 23 18 14 5 4 6 35 29 24 20 16 19 22
17 19 16 14 13 7 4 4 4 5 3 3 2 3 5 9 6 4 11 15 20 30 31 26 16 22 12 5 14 11 6 5 10 17 8 20 11 13 48 31 34 21 15 17 15
18 14 18 14 9 7 4 4 4 4 4 1 0 3 5 6 6 7 8 5 19 25 32 30 20 20 5 6 9 4 4 5 8 16 5 17 10 21 18 27 28 25 20 14 14
18 15 10 14 9 7 5 4 5 7 4 1 1 3 6 3 8 8 6 4 18 23 30 27 15 11 3 7 5 2 6 6 7 23 8 16 5 22 28 31 28 30 24 16 16
21 17 11 8 10 9 6 4 3 3 1 2 1 4 1 6 8 3 4 6 12 19 18 23 12 4 2 6 15 18 6 13 8 11 9 18 3 12 32 32 29 32 28 23 19
21 19 15 8 7 7 6 3 4 4 5 4 4 7 8 9 4 5 4 10 4 12 12 19 7 19 14 4 4 8 5 7 1 4 11 10 7 6 13 17 20 31 34 30 26
21 21 19 7 6 4 5 3 1 3 4 6 7 7 5 1 1 5 9 5 3 1 5 13 13 7 8 6 5 9 5 4 2 3 11 7 8 8 12 11 26 26 21 28 27
22 21 19 7 6 5 3 3 1 4 2 4 2 2 2 3 2 5 9 10 2 10 3 15 11 11 7 4 7 3 7 4 5 3 3 4 3 8 11 19 19 24 25 19 25
22 20 16 5 4 6 4 3 4 7 3 4 1 2 3 0 3 2 8 7 2 6 3 4 11 12 8 4 4 4 4 5 5 4 4 3 4 8 9 12 9 27 32 27 21
21 20 13 4 3 3 1 2 5 4 4 3 1 3 4 3 5 1 2 5 5 7 4 6 17 16 10 6 5 2 5 6 3 4 3 2 1 6 3 7 17 20 29 35 28
20 16 8 5 5 4 2 1 0 4 2 3 1 2 3 4 2 4 6 3 8 4 3 5 4 4 3 3 5 7 6 7 5 3 2 5 5 6 6 7 4 13 32 36 33
19 12 2 6 3 7 4 3 4 4 1 2 3 4 6 5 4 1 2 4 3 4 3 8 3 2 4 7 2 4 5 2 1 1 5 2 4 15 7 4 6 9 20 26 27
13 4 5 4 5 7 7 3 5 3 3 1 4 3 2 2 2 2 5 2 1 3 4 3 5 2 4 3 5 5 6 5 6 4 3 2 8 6 6 15 22 23 21 19 27
5 5 7 5 5 5 2 3 6 5 3 2 5 3 4 3 4 4 2 2 2 2 4 5 3 3 3 2 2 4 3 3 6 2 3 5 7 9 7 10 8 12 17 25 28
4 6 4 5 3 5 2 3 2 3 3 0 3 1 1 5 5 3 6 3 3 2 1 3 5 1 1 1 4 3 3 2 3 3 4 4 5 7 6 9 5 7 19 28 28
5 3 2 4 3 2 1 4 3 3 2 0 3 2 3 3 3 5 8 2 4 4 3 3 4 3 3 5 6 1 2 3 2 4 4 2 5 6 6 8 8 9 20 29 27
1 2 2 0 3 2 2 5 0 1 2 3 1 2 1 4 2 3 6 3 11 8 6 4 4 4 4 1 2 4 4 6 4 4 3 2 6 2 6 7 12 15 22 24 24
1 2 1 1 1 2 6 1 2 3 2 2 3 3 2 2 4 1 2 5 13 7 7 6 1 3 2 3 2 5 8 4 2 2 7 4 5 2 4 2 9 16 20 23 22
1 1 1 0 2 2 4 5 2 2 1 3 1 4 2 3 5 4 3 2 4 3 3 5 3 5 6 4 4 6 10 13 10 4 5 10 6 4 4 3 6 14 20 21 23
2 0 0 1 1 4 2 6 3 3 2 4 4 5 3 2 2 3 2 3 3 4 4 4 4 3 4 4 5 6 7 17 18 16 8 5 14 11 6 7 16 20 19 21 22
1 1 1 3 4 3 6 6 7 5 5 3 3 6 3 3 3 4 4 3 3 1 3 2 1 2 3 2 4 4 8 11 18 20 19 17 16 4 11 11 13 25 25 25 25
5 3 2 7 4 2 3 2 4 7 4 9 3 3 3 4 10 7 7 3 4 7 3 3 4 3 3 4 3 7 12 12 7 7 16 15 22 6 6 8 19 26 31 30 28

GFSSW_850_spd_054.txt.gz
Wind_Speed
21 23 24 24 21 19 18 16 15 13 10 11 13 15 15 15 16 19 22 19 25 10 11 20 18 13 13 14 18 18 4 14 10 6 5 3 3 5 11 17 9 13 8 6 19
21 22 23 22 20 18 16 14 12 10 9 9 8 12 13 10 13 21 25 22 16 20 11 19 23 16 8 8 11 6 10 15 9 17 6 5 5 7 7 20 6 22 17 7 18
25 21 21 21 18 16 15 14 11 10 8 7 5 5 6 4 6 12 17 22 16 13 15 13 22 16 5 8 9 7 10 8 9 17 5 2 3 6 7 4 4 21 28 11 17
21 24 19 20 18 14 13 12 11 9 7 5 5 5 4 6 4 4 1 14 20 14 19 13 20 13 5 6 13 6 6 18 7 12 6 9 10 7 6 15 18 21 28 17 17
17 20 19 18 18 13 9 10 8 7 7 6 5 7 3 2 7 6 2 9 21 20 21 13 21 13 7 8 11 2 5 16 14 12 12 10 2 5 20 33 24 26 22 16 16
15 17 20 17 15 12 8 7 6 6 7 7 6 4 2 3 9 16 16 9 19 25 26 19 14 17 11 10 9 10 4 15 19 18 16 11 6 7 29 27 25 23 25 20 14
19 18 14 21 14 11 8 7 7 5 6 7 6 5 6 7 12 7 8 17 16 24 28 27 7 20 8 4 11 2 10 2 5 16 6 14 2 9 32 26 30 32 29 20 12
22 20 16 13 15 11 9 7 7 7 6 5 3 4 5 10 11 3 5 14 16 20 29 25 8 22 4 7 10 2 4 7 5 9 3 15 17 13 17 15 30 33 29 22 15
22 21 20 15 11 12 9 7 7 7 5 3 4 4 5 5 9 6 4 4 15 22 29 26 14 11 6 7 4 5 7 5 5 17 8 8 5 10 18 20 29 31 33 24 20
23 22 20 17 13 10 9 7 7 5 2 2 6 7 1 5 10 1 4 7 15 25 17 16 6 6 3 6 17 14 5 2 5 10 8 12 1 8 25 22 25 31 33 29 22
22 22 22 20 12 8 7 4 2 3 3 4 5 9 9 8 2 4 1 7 15 21 9 5 7 17 7 2 3 8 5 6 2 5 4 6 7 3 19 23 12 27 28 27 26
23 22 21 18 11 7 6 2 2 2 3 2 7 11 6 2 1 2 2 4 4 11 4 7 11 13 7 4 4 8 7 4 2 2 9 6 10 13 11 25 28 32 36 32 30
23 21 20 17 6 7 4 1 1 5 1 3 3 2 1 1 1 4 5 8 7 3 2 2 6 10 6 5 6 3 8 5 6 4 2 5 5 8 13 17 24 35 35 38 33
22 21 20 13 4 5 3 3 1 4 3 1 2 1 1 2 4 6 9 6 4 3 3 4 11 14 8 7 6 3 5 6 8 6 4 1 4 10 15 14 10 27 35 37 30
22 20 15 4 2 3 3 1 2 1 3 0 1 1 2 1 8 2 6 4 6 5 4 6 20 15 10 7 5 3 5 5 3 5 4 1 0 6 5 13 27 24 26 33 34
21 17 11 3 7 4 2 1 2 5 2 0 0 1 0 5 5 8 5 5 5 6 9 4 5 4 5 3 4 8 6 7 5 3 2 6 6 7 7 8 7 8 30 38 38
18 9 2 6 4 4 4 4 4 5 1 1 3 2 4 2 5 3 4 6 4 6 3 8 3 3 4 7 3 3 5 2 2 1 4 4 5 10 1 4 5 9 14 16 25
11 4 9 6 6 6 4 2 5 6 1 2 2 4 0 3 3 3 5 2 3 2 4 4 6 1 4 4 7 4 4 4 5 4 3 3 7 6 5 6 10 21 24 20 15
4 9 9 9 5 5 1 3 5 4 1 4 1 2 2 1 4 3 1 2 3 4 4 4 4 2 6 1 2 3 2 3 6 3 3 4 7 8 8 7 9 17 16 19 18
8 8 5 4 3 2 0 3 1 3 1 2 0 2 2 2 1 1 3 3 3 2 1 2 5 4 2 2 6 3 6 3 3 3 4 4 5 6 7 10 8 8 13 13 17
5 4 4 4 3 3 2 4 4 5 1 2 2 2 2 2 4 2 3 1 3 4 4 4 3 2 2 3 4 2 2 4 3 4 4 2 5 6 5 7 10 10 12 14 22
2 2 3 3 2 1 2 3 1 3 4 3 2 1 2 4 3 1 4 2 5 5 4 1 5 4 2 3 2 3 5 5 4 5 1 2 8 4 6 8 12 12 7 14 23
3 4 2 1 2 1 4 3 2 3 3 4 4 4 3 3 4 2 2 8 8 3 4 4 2 4 2 2 3 4 5 3 2 2 5 3 5 1 4 7 4 4 7 15 22
2 1 1 3 3 2 3 3 3 3 2 3 2 3 3 4 5 4 2 3 2 3 11 5 3 4 5 4 4 5 10 13 10 5 7 14 16 14 8 5 5 6 12 18 21
3 1 2 1 1 3 1 2 2 4 5 6 4 5 2 2 3 3 3 3 5 6 5 3 1 2 3 2 3 4 7 14 16 21 10 17 17 17 14 11 10 11 14 18 22
3 2 2 1 3 1 4 3 3 4 3 3 4 5 2 4 3 2 3 0 3 2 4 2 2 3 4 3 4 4 7 9 17 19 17 21 24 17 11 12 12 17 22 26 27
4 3 2 5 3 1 0 1 4 5 5 7 2 1 4 2 4 4 6 1 2 6 3 4 5 3 4 2 2 6 14 14 6 7 16 16 23 4 9 13 21 22 25 31 31

GFSSW_850_spd_057.txt.gz
Wind_Speed
23 19 19 21 20 18 17 16 14 12 11 9 10 11 13 14 13 18 18 22 18 8 13 17 20 14 14 16 18 18 2 8 8 7 5 5 3 3 8 12 22 13 15 14 6
21 23 19 20 19 17 17 15 14 12 10 9 8 9 8 8 11 16 17 18 22 17 9 19 22 15 10 15 11 9 7 8 7 5 6 4 4 2 3 7 3 12 15 12 10
16 20 23 18 19 15 14 13 12 10 9 8 6 6 5 4 4 2 8 13 22 21 16 12 21 17 12 13 9 9 17 15 13 12 8 6 2 2 4 2 2 11 20 22 4
12 17 20 19 17 17 13 11 10 9 8 7 7 7 3 3 2 4 4 3 18 20 16 13 23 14 6 8 12 9 7 18 3 14 11 9 5 3 5 6 9 13 15 19 10
19 15 14 18 20 15 11 8 9 7 7 7 5 5 4 1 6 6 4 6 16 21 16 14 21 13 4 6 11 5 5 15 21 11 14 14 5 7 21 22 15 17 16 16 18
18 19 15 12 18 14 11 9 8 7 7 7 7 4 2 3 4 11 16 10 5 19 17 16 14 12 7 8 9 13 6 12 17 13 12 9 3 3 16 12 13 19 21 15 18
21 19 20 15 11 17 12 10 10 7 8 8 6 6 6 7 15 11 14 15 7 22 20 18 15 15 7 6 7 9 7 4 5 12 6 9 4 16 16 16 17 20 23 20 15
20 20 19 16 15 9 14 11 10 8 8 7 5 7 6 5 12 2 6 13 10 21 21 21 12 17 4 9 6 5 5 5 7 9 5 15 21 17 17 13 22 23 25 27 18
22 20 19 20 16 10 9 12 8 7 7 6 5 6 7 8 9 1 3 11 12 18 17 19 13 11 6 8 4 2 6 6 3 14 5 12 3 7 16 21 23 30 32 27 22
23 20 18 20 17 9 8 8 7 7 6 5 6 6 4 7 9 3 3 12 10 20 15 12 8 7 3 8 14 10 7 4 5 9 8 12 3 1 12 20 20 15 25 30 29
21 20 18 18 15 7 5 3 3 3 6 6 3 6 9 9 2 0 2 8 12 19 5 8 1 13 13 3 5 9 9 8 3 8 7 9 9 4 10 15 12 18 30 29 30
19 20 18 17 15 5 3 2 2 2 4 5 7 8 5 3 1 0 3 4 9 11 9 3 7 8 6 5 8 11 8 3 2 6 5 6 10 11 10 15 22 22 34 33 31
19 19 17 16 9 2 3 2 2 5 1 3 4 3 2 2 1 4 3 3 13 10 6 3 8 6 4 5 9 3 11 5 5 5 1 5 6 9 8 16 21 27 27 30 31
19 18 16 13 1 3 2 1 1 4 4 1 2 1 2 1 4 4 7 2 6 7 3 3 14 11 6 4 5 3 7 7 9 4 3 2 4 8 13 9 16 32 37 30 33
19 18 14 5 3 4 3 2 3 1 4 0 1 1 2 2 4 2 3 4 7 8 3 1 13 14 5 5 4 3 6 5 4 5 3 1 2 4 4 15 20 17 26 29 36
18 13 6 2 5 5 4 1 1 5 2 1 1 2 2 2 1 4 2 8 8 4 5 2 7 3 5 3 3 8 6 7 4 3 2 5 6 3 4 6 5 15 26 31 38
13 5 8 9 9 7 6 3 4 4 3 2 1 4 4 2 4 2 3 2 4 6 3 4 4 3 2 7 4 4 6 3 2 2 4 1 3 8 5 5 6 9 16 23 34
6 9 12 10 7 7 5 2 6 3 2 3 3 4 2 3 3 3 3 4 1 3 4 3 6 2 1 4 6 3 4 4 5 4 3 1 6 4 6 9 9 14 17 18 12
9 11 11 8 6 5 1 4 4 3 1 3 1 3 2 4 3 1 1 3 3 3 2 4 3 2 5 2 2 3 2 4 6 2 1 3 4 9 6 7 6 13 14 22 20
9 9 6 5 4 3 1 1 2 3 3 3 1 1 1 2 1 3 1 1 5 3 6 2 6 5 1 2 8 3 5 2 2 3 4 2 3 5 3 2 6 9 19 17 17
7 4 4 4 2 0 1 3 3 5 3 1 1 2 1 1 3 2 3 1 1 3 4 2 3 2 3 1 5 3 1 4 3 3 3 1 4 6 5 3 6 12 15 13 10
5 2 2 3 1 2 1 2 2 2 1 0 1 1 4 4 2 2 2 2 3 3 3 1 4 4 2 1 0 2 3 4 4 4 0 1 6 3 5 6 8 13 10 6 5
5 4 4 3 1 1 3 3 1 3 2 2 2 1 0 3 4 2 1 5 7 2 4 4 2 4 2 4 3 3 4 4 4 3 5 4 4 2 4 4 5 7 8 1 7
5 2 3 3 1 1 2 4 4 4 3 3 2 2 2 3 5 3 3 4 3 4 8 5 3 4 5 4 4 5 7 11 7 6 10 13 11 14 14 13 14 14 8 6 14
3 1 4 2 1 1 1 3 3 5 8 11 4 4 2 3 2 3 3 2 4 2 4 3 3 3 2 4 4 4 6 11 14 18 12 16 10 15 9 7 13 19 13 14 20
4 5 5 2 1 1 3 3 3 3 3 3 4 4 4 5 3 1 3 1 2 4 2 3 2 2 2 2 3 4 7 9 15 17 19 23 25 16 28 25 22 27 21 17 23
6 9 5 3 1 2 1 2 1 6 1 4 1 1 6 2 5 6 5 0 4 6 3 3 4 2 2 4 4 6 6 9 4 5 13 15 20 11 12 13 18 24 28 28 26

GFSSW_850_spd_060.txt.gz
Wind_Speed
13 19 20 15 17 14 14 13 13 11 10 10 10 9 9 10 13 15 15 14 21 6 12 19 19 14 11 14 16 18 8 14 14 17 10 10 6 2 4 14 15 8 7 6 4
11 13 19 17 13 15 11 11 11 10 10 9 9 9 8 8 7 13 14 17 17 17 11 18 23 20 19 15 14 14 11 21 18 6 11 8 9 8 6 11 13 12 12 10 4
16 11 14 19 14 14 9 9 10 9 9 9 7 7 5 3 5 8 8 9 14 21 17 13 20 22 23 20 10 21 15 19 21 13 9 9 7 4 10 6 8 9 11 13 2
16 18 13 12 16 17 10 6 8 8 8 8 8 6 3 3 3 6 5 6 12 22 19 11 18 22 18 12 17 12 24 22 20 9 8 6 6 2 3 4 5 3 6 9 8
17 18 19 13 9 16 11 8 6 8 7 8 8 6 4 5 7 7 7 3 4 20 23 12 20 22 19 22 23 13 20 15 21 13 16 15 11 9 12 10 7 6 7 5 9
19 20 18 18 11 9 13 8 9 8 7 8 9 6 4 7 7 8 12 8 4 18 30 12 17 17 22 20 22 23 11 15 16 10 8 11 11 11 20 9 7 6 6 4 6
19 21 19 18 15 11 6 11 10 8 9 8 9 7 7 10 7 13 15 12 8 13 26 13 16 10 16 14 18 12 19 14 13 21 6 13 13 17 31 17 11 10 9 10 7
21 21 18 18 18 13 9 7 10 8 9 8 7 6 7 7 9 8 6 8 12 13 26 10 8 8 15 9 14 14 15 11 15 25 15 18 21 21 19 16 19 18 17 12 14
19 21 19 16 19 14 6 7 9 6 6 7 6 4 6 7 6 5 6 4 13 12 28 5 5 8 9 16 11 14 15 22 13 21 11 19 11 4 13 21 19 19 22 18 15
19 20 19 17 18 13 4 6 6 5 6 5 6 6 3 6 10 2 1 8 11 14 16 5 3 9 11 14 16 18 15 20 14 13 14 16 11 3 11 17 18 20 21 21 20
18 18 17 17 17 11 2 2 1 0 4 4 2 6 7 7 2 1 2 7 8 19 6 7 3 10 21 17 3 15 11 16 13 11 15 13 13 14 6 12 15 16 17 23 21
17 17 17 17 15 6 2 2 2 1 1 2 6 9 8 2 1 3 4 4 8 10 13 5 2 5 11 10 7 17 17 14 6 11 13 14 16 15 16 13 16 17 22 25 23
18 18 17 15 12 3 4 3 2 2 1 2 4 4 4 3 2 1 4 3 3 7 10 9 1 12 16 13 14 16 18 14 11 10 3 6 13 18 17 19 17 25 24 20 21
18 17 15 13 0 3 3 3 2 1 1 2 1 1 3 1 4 5 5 3 4 10 10 2 5 14 21 13 14 13 9 12 15 11 5 9 4 11 16 17 21 25 23 24 16
18 16 13 5 4 4 5 3 1 1 1 1 1 1 2 3 2 3 5 2 8 10 5 4 14 13 20 13 7 4 12 11 9 7 3 8 5 9 5 18 19 19 24 23 24
16 9 2 5 8 5 3 2 1 2 4 1 0 1 2 3 2 5 4 7 12 7 5 5 17 4 6 6 1 14 14 11 6 4 5 11 10 4 5 6 8 12 20 23 26
7 7 11 11 7 6 5 2 1 3 1 1 1 3 3 4 4 2 4 6 4 5 1 6 9 5 2 9 10 9 16 5 5 4 4 2 8 9 4 4 5 4 7 12 21
5 12 11 9 7 5 2 2 4 1 3 0 2 3 2 2 3 4 5 4 1 2 3 3 5 9 4 10 8 14 10 3 6 5 4 2 6 0 4 7 12 10 12 12 14
11 10 8 6 5 3 2 1 2 1 2 2 2 3 2 4 3 3 2 4 3 1 3 3 3 1 2 2 5 6 5 3 4 2 2 4 2 11 10 6 9 6 7 10 10
10 8 5 3 3 1 1 2 1 2 1 2 3 3 2 3 2 2 2 1 5 2 2 4 6 4 4 3 9 4 9 3 1 4 4 3 4 3 8 8 3 8 11 10 11
10 3 4 1 1 1 1 1 2 3 2 1 4 2 1 2 4 3 2 2 3 2 2 1 2 2 7 3 8 4 4 1 1 2 2 2 2 2 4 4 6 8 11 13 12
6 2 6 1 1 1 0 1 2 3 1 1 3 4 1 2 4 2 3 2 6 8 3 3 4 3 4 1 2 3 7 12 6 5 2 3 4 4 4 4 3 5 10 10 9
7 4 5 3 1 1 1 1 2 2 2 1 2 2 1 1 3 3 3 3 4 4 5 5 3 5 3 0 1 5 7 7 4 2 7 6 3 1 1 4 2 11 17 12 9
6 3 3 3 2 2 2 2 3 2 3 3 2 1 1 1 2 4 4 4 3 2 4 1 2 2 6 2 4 8 13 12 10 5 12 13 16 12 11 13 21 23 18 14 10
6 3 5 4 5 3 2 1 2 2 4 6 3 3 1 1 2 4 4 3 3 3 2 1 3 1 4 4 2 2 10 15 15 19 13 18 18 19 15 15 23 26 22 16 13
7 6 5 3 3 4 1 2 2 2 4 3 4 5 1 3 4 2 4 3 3 1 2 2 3 1 2 2 2 4 9 10 15 19 19 23 23 19 25 18 18 20 20 20 20
8 10 7 2 3 4 3 2 2 2 4 7 2 2 7 4 2 5 4 3 2 5 3 2 4 2 2 2 3 6 9 11 7 8 10 17 20 16 16 20 22 24 23 22 20

GFSSW_850_spd_063.txt.gz
Wind_Speed
14 10 15 20 19 16 11 12 12 10 10 10 10 10 10 10 10 14 18 18 15 22 11 15 24 19 16 16 23 27 5 16 20 19 14 14 9 3 3 8 5 6 6 2 5
17 15 13 13 18 15 13 11 10 10 10 9 10 9 8 8 8 15 17 17 21 16 17 14 27 23 25 23 16 15 14 20 18 15 16 16 14 9 9 11 14 14 10 6 13
15 17 19 13 10 17 18 9 9 10 10 8 9 10 9 6 9 8 10 13 16 16 26 13 23 26 27 24 16 20 18 20 25 6 12 13 10 8 15 11 11 10 10 6 8
19 20 20 21 13 12 16 12 7 11 10 9 9 8 9 3 4 1 6 7 7 15 26 17 13 24 22 22 24 11 26 27 15 12 15 12 10 7 7 12 10 6 6 8 5
19 20 23 21 22 13 12 13 11 11 10 9 9 9 7 7 10 8 8 5 5 13 20 23 14 21 24 26 25 20 14 25 24 21 19 12 7 4 8 7 5 1 1 4 6
19 22 21 22 19 18 12 11 13 12 12 9 10 8 6 12 5 5 10 11 6 10 10 20 13 21 21 25 23 23 13 20 25 17 16 16 20 15 14 11 6 5 3 1 3
20 21 22 23 20 20 17 11 12 12 12 10 10 6 9 14 7 9 11 9 8 10 17 25 15 15 12 20 31 15 16 16 16 11 17 20 13 15 28 15 11 9 8 6 5
20 20 23 24 19 20 17 12 9 13 10 10 9 6 10 8 8 11 9 7 11 8 9 12 14 16 14 19 23 23 21 4 16 22 10 9 18 21 24 24 29 15 15 11 8
21 21 21 20 19 18 18 10 9 11 9 7 5 6 10 6 6 11 6 6 10 6 6 8 7 12 23 17 16 19 16 15 8 14 9 14 9 13 5 21 31 24 23 21 15
21 19 19 19 19 19 15 6 6 5 5 4 6 7 6 8 13 5 4 7 12 10 11 6 3 8 16 17 18 23 21 20 13 15 14 16 12 7 17 21 25 32 31 23 24
19 19 17 18 19 18 3 3 2 3 7 6 6 10 5 10 6 3 3 5 8 15 4 5 1 10 25 24 16 18 19 16 19 13 18 13 15 18 10 14 18 22 24 32 25
19 18 16 18 16 14 4 4 4 2 3 6 7 7 7 5 4 2 2 5 4 3 9 5 1 4 7 18 6 16 16 10 10 10 11 14 18 21 19 17 14 21 20 27 29
17 17 17 14 16 5 5 6 4 1 4 2 5 5 5 5 2 1 3 2 1 4 11 7 3 3 6 12 10 14 16 15 12 7 12 11 18 17 18 21 18 18 18 16 13
16 16 13 10 5 2 3 5 3 0 3 3 1 1 3 3 3 2 6 2 4 9 15 6 1 2 4 14 12 13 13 9 9 12 9 14 6 19 20 18 18 20 17 17 15
16 16 12 6 3 1 4 3 2 1 2 1 0 4 3 4 4 4 1 5 3 7 4 4 8 6 8 16 12 12 9 12 12 16 2 10 6 10 8 16 17 19 21 20 17
12 8 2 5 4 3 3 2 1 3 1 2 2 2 3 2 4 3 1 2 9 6 11 5 5 0 7 9 4 13 13 10 6 7 5 14 12 8 9 8 10 14 19 20 21
5 5 9 9 2 4 4 2 3 2 2 3 2 2 6 3 4 4 5 7 3 4 5 4 6 8 11 11 11 16 17 6 5 4 6 1 9 3 3 2 2 3 3 8 15
7 8 9 9 5 4 1 3 2 1 1 3 5 3 2 3 3 4 5 3 1 6 2 2 5 7 5 8 8 15 14 4 6 6 8 5 6 2 3 4 4 5 6 7 8
10 5 3 5 4 3 4 4 2 1 3 1 4 3 2 1 2 2 2 5 4 2 0 2 3 2 3 3 6 10 6 3 2 3 0 7 4 9 7 6 4 2 1 4 6
7 3 3 4 1 2 4 0 1 0 2 3 4 4 3 4 4 4 5 1 4 1 3 4 4 4 4 4 2 4 8 3 1 3 4 4 3 3 11 9 6 7 9 9 8
6 3 5 3 1 3 2 1 1 2 1 3 3 2 2 3 5 3 3 2 3 4 1 6 4 2 8 7 10 4 4 3 2 3 3 1 5 7 12 10 3 6 8 11 12
5 2 6 2 2 3 1 2 1 1 2 0 1 5 3 1 4 2 3 3 5 4 6 2 4 4 2 2 7 10 11 13 5 4 3 4 2 6 3 3 1 2 8 14 13
5 3 5 4 2 3 2 2 2 0 2 1 1 1 2 2 3 4 5 2 4 3 3 3 4 5 4 3 3 7 10 7 10 3 5 4 3 5 4 3 4 6 13 18 19
7 3 3 4 5 4 4 3 4 2 2 1 1 2 2 3 1 7 6 4 4 3 2 3 4 3 3 2 6 10 14 14 12 5 10 12 14 12 8 8 12 17 20 23 18
6 3 6 4 7 7 4 3 6 3 0 2 3 1 0 4 4 5 5 8 5 2 3 3 2 2 4 5 3 3 11 15 13 17 13 13 15 14 13 14 19 22 20 19 17
6 5 5 6 5 8 5 6 6 3 3 3 3 4 1 5 5 3 6 3 4 5 2 1 2 2 1 2 2 5 6 8 14 16 16 17 17 16 17 12 17 21 21 21 20
14 11 7 7 8 8 6 6 5 2 4 5 2 5 8 7 5 4 3 3 2 3 5 2 4 2 2 1 3 6 8 10 8 8 7 11 11 12 12 13 16 18 19 20 20

GFSSW_850_spd_066.txt.gz
Wind_Speed
15 19 17 18 16 21 18 15 12 13 11 12 12 13 13 12 13 12 14 17 18 20 14 18 16 22 18 20 22 26 9 14 19 17 7 17 6 2 2 10 10 8 9 10 12
19 17 20 21 19 15 21 19 10 13 11 11 11 12 12 12 12 14 15 17 20 22 12 14 17 24 20 21 12 15 14 14 19 14 5 15 11 8 5 14 14 16 9 8 18
17 18 20 22 23 18 16 17 12 10 12 12 11 12 10 9 12 8 9 15 15 16 24 17 10 24 22 23 16 13 14 15 19 7 18 14 14 10 14 8 15 17 13 9 20
17 18 21 23 23 22 16 14 15 12 13 13 11 11 10 5 6 6 9 8 7 9 17 16 14 10 13 18 21 6 26 22 19 6 9 9 14 10 12 15 16 12 13 9 15
21 18 21 22 22 22 20 15 14 13 14 14 12 11 10 7 12 4 9 9 4 6 13 12 13 9 15 16 21 17 15 22 20 9 15 20 11 8 16 16 12 7 8 11 9
23 22 21 22 22 23 19 20 13 13 14 15 14 11 9 15 4 4 6 9 6 6 8 8 11 9 18 19 20 18 20 20 19 27 29 12 6 7 11 11 8 5 5 7 8
23 22 20 22 23 23 19 20 13 9 14 14 14 10 13 18 8 10 11 9 7 7 11 13 20 19 5 16 30 14 17 4 5 8 11 13 10 11 18 15 8 7 5 7 6
22 22 20 21 19 21 19 20 11 11 12 12 11 8 12 13 14 10 9 9 8 7 7 7 15 17 9 17 20 22 14 8 5 2 11 17 19 14 21 11 13 12 12 10 7
22 21 21 20 19 19 19 21 8 10 13 8 5 5 12 8 7 8 10 7 6 5 7 8 7 5 9 7 15 17 7 16 3 1 3 5 5 16 18 18 21 21 18 12 12
21 19 21 15 17 18 19 6 5 7 5 5 9 7 7 9 10 8 6 5 9 8 5 5 4 2 4 9 15 19 10 7 11 5 14 11 7 12 15 21 23 24 24 23 19
21 18 18 16 16 17 11 4 4 2 9 8 4 11 13 10 7 3 3 6 8 4 2 4 4 8 14 13 8 12 15 10 8 12 10 16 12 6 11 21 24 23 23 28 33
21 17 16 15 13 12 7 2 5 3 8 11 9 10 9 4 5 1 1 5 4 4 7 5 4 0 14 20 16 17 18 17 16 12 9 8 7 8 8 12 17 17 20 25 28
21 16 15 11 11 8 6 3 9 3 5 5 5 6 4 2 2 3 1 3 1 4 9 1 1 4 11 18 12 13 13 7 11 12 12 8 7 12 15 20 20 16 18 19 17
20 17 12 7 3 3 3 5 4 1 2 4 2 0 2 2 1 1 4 2 3 4 12 6 4 6 13 12 14 8 9 19 15 6 4 7 3 13 15 15 12 21 15 15 14
17 14 8 5 3 1 4 3 1 1 2 2 1 2 4 2 1 0 5 6 6 7 5 5 2 7 6 5 2 5 7 8 9 5 3 7 2 6 12 9 8 12 17 18 16
13 7 3 6 5 1 3 2 3 2 1 2 1 2 2 1 3 6 4 3 4 11 15 10 6 6 7 6 8 8 11 10 6 1 2 3 4 6 4 8 7 16 24 21 19
2 4 8 7 5 2 4 1 2 2 3 3 2 3 4 4 2 4 4 6 3 3 4 4 3 5 4 3 3 10 8 3 3 3 2 5 5 7 6 5 7 8 8 4 16
6 8 8 6 7 5 1 2 2 2 1 7 5 1 3 5 2 4 3 4 5 8 4 2 2 1 3 1 5 9 5 4 4 4 3 3 3 4 5 10 9 9 3 1 2
10 7 4 4 4 4 1 2 2 1 3 1 8 1 2 2 2 5 2 3 3 2 2 2 4 4 4 4 2 7 1 3 3 2 4 4 5 1 6 6 8 10 11 11 7
11 6 4 3 4 4 2 3 1 0 3 4 3 3 2 4 1 2 3 3 4 1 3 3 4 6 3 3 3 4 2 2 3 2 3 3 5 3 8 7 8 10 13 11 9
14 5 5 4 5 3 2 2 4 2 2 4 2 2 3 3 2 3 3 2 1 3 6 7 3 3 2 1 4 3 1 2 1 3 1 2 1 5 9 8 9 11 7 6 6
10 3 6 6 2 4 2 5 2 2 2 1 1 4 3 8 2 3 3 3 2 2 2 4 4 3 0 4 5 6 4 3 3 3 0 3 3 2 9 8 4 9 2 7 9
10 5 5 7 2 4 3 5 3 4 0 2 2 3 2 4 4 4 6 3 4 1 2 0 3 3 1 2 2 4 5 4 2 3 2 3 2 5 8 6 6 8 5 13 13
9 4 4 6 6 5 5 6 6 2 2 1 2 3 4 5 3 7 5 4 2 1 1 3 3 3 1 0 5 5 8 7 4 3 4 5 4 5 4 1 2 10 16 15 14
9 5 8 4 6 8 2 5 7 4 1 2 3 3 2 4 9 4 6 6 4 3 2 1 1 2 4 5 5 2 6 9 7 8 4 6 8 6 7 6 10 15 19 19 18
7 4 8 3 10 9 5 6 7 5 4 3 2 3 3 6 4 7 6 4 4 6 3 3 1 3 2 2 3 0 4 5 6 7 10 10 12 6 13 17 13 12 15 17 17
11 12 7 8 4 7 7 4 6 3 3 7 5 8 7 5 9 7 5 3 3 4 4 2 4 2 2 2 4 5 6 8 4 2 1 5 1 5 6 7 11 16 11 14 18

GFSSW_850_spd_069.txt.gz
Wind_Speed
17 17 16 21 22 20 13 18 19 11 15 13 12 13 13 12 11 10 14 10 10 12 16 18 17 19 17 16 14 18 5 10 8 5 3 12 5 7 1 8 9 4 10 24 37
17 16 16 18 21 25 16 14 18 12 13 14 12 12 12 13 12 14 8 9 16 18 21 17 16 19 22 7 9 8 7 13 8 5 2 5 10 11 6 14 10 14 15 21 32
19 18 16 18 20 21 22 14 12 15 11 15 13 12 12 11 12 3 5 9 11 18 16 19 14 8 20 18 11 6 11 9 5 5 9 13 6 7 17 2 9 18 16 22 32
17 20 20 19 20 21 20 19 15 12 12 15 14 12 11 7 4 4 6 9 8 9 14 17 14 6 10 13 15 5 16 21 10 8 5 7 10 6 6 10 18 15 12 22 32
17 20 20 20 20 20 21 19 19 10 12 13 14 13 12 4 13 7 6 6 5 9 10 15 15 10 15 11 9 15 5 20 21 10 7 7 9 7 18 20 21 17 12 17 28
18 19 20 22 20 20 21 18 17 11 9 10 13 12 9 9 1 6 10 12 7 8 7 12 9 7 7 5 16 11 23 10 15 19 7 3 1 10 19 20 19 17 17 13 20
20 19 20 18 18 19 19 18 16 10 11 10 9 10 10 20 6 12 13 12 10 7 8 10 7 11 8 3 17 15 8 8 9 14 5 2 3 3 21 19 17 16 16 14 12
22 18 19 19 18 18 17 17 17 10 8 9 7 5 9 7 14 16 12 8 9 10 6 6 2 4 6 9 3 9 5 10 3 12 9 2 5 9 17 12 14 16 16 16 14
22 18 17 17 15 15 17 19 11 4 7 7 2 5 9 8 10 7 12 14 4 6 6 4 5 6 3 4 2 5 7 15 5 1 6 6 7 21 25 17 13 11 13 14 15
22 19 15 16 14 16 17 5 1 3 2 3 2 7 8 7 9 14 4 6 5 9 6 3 3 2 5 5 11 11 8 12 5 6 5 7 8 11 23 19 22 21 20 16 11
21 19 18 13 14 14 9 2 2 1 7 7 3 9 13 13 14 5 4 5 6 5 3 2 2 6 9 9 7 10 16 8 7 9 5 3 10 15 10 17 21 26 32 25 20
19 19 18 13 13 7 8 4 2 3 6 7 10 13 12 9 3 3 4 5 5 3 8 4 6 6 8 13 10 11 11 8 5 11 4 9 7 13 15 11 23 24 24 24 20
18 18 17 9 5 3 4 6 1 3 2 1 7 6 6 3 1 2 1 4 2 4 7 3 3 6 8 10 9 10 13 9 5 8 2 7 2 14 19 15 17 19 23 19 19
16 16 16 3 3 4 1 1 2 3 3 2 2 2 4 2 0 1 2 1 1 6 4 3 2 7 10 9 7 3 11 17 14 7 3 6 3 16 17 9 8 20 17 21 16
14 14 10 5 7 5 3 2 3 3 2 1 1 4 1 1 1 4 1 3 4 6 5 2 3 8 15 7 9 4 18 19 19 10 3 9 1 4 13 11 12 17 22 18 18
12 7 2 9 9 4 3 4 6 3 3 1 2 3 3 2 2 7 4 5 9 8 8 4 3 4 3 6 11 8 16 8 5 5 2 5 5 5 4 15 6 14 24 22 20
5 5 8 9 6 7 10 6 2 2 3 4 2 2 2 1 2 4 3 2 3 4 5 5 4 1 5 1 7 17 7 3 3 3 3 2 4 6 4 5 6 8 8 20 18
8 9 10 7 10 10 7 1 4 5 4 4 3 1 3 5 3 2 2 5 6 4 3 4 4 8 8 5 3 3 4 4 5 4 3 1 5 3 1 12 16 16 15 14 12
14 13 9 9 10 10 4 1 5 4 2 4 6 2 2 3 0 4 2 2 2 4 4 3 4 6 2 4 2 3 4 3 5 2 4 2 3 3 3 5 16 20 20 17 12
17 11 7 10 9 8 1 1 2 1 1 4 1 2 3 4 2 2 2 4 3 3 0 3 5 6 4 3 8 5 1 3 3 3 3 3 4 3 5 6 8 10 15 13 11
19 8 10 10 11 3 2 3 2 4 2 2 3 3 3 2 2 3 2 2 2 2 4 2 3 3 2 6 3 4 3 2 3 3 3 3 3 5 7 8 10 11 10 9 7
16 3 11 15 4 4 2 5 4 5 2 1 1 5 6 8 3 2 3 2 2 2 2 2 4 3 0 4 3 1 1 3 2 3 2 3 3 4 8 9 17 13 12 8 6
16 6 12 14 3 3 4 3 3 3 3 2 3 1 3 5 4 4 4 1 3 4 1 1 2 3 5 5 3 0 4 4 3 2 2 4 4 3 6 7 6 8 11 9 8
11 4 6 11 7 3 5 5 4 0 1 2 1 2 0 1 3 3 4 1 2 4 2 3 2 4 5 5 4 5 6 5 5 3 2 4 4 4 6 4 8 9 8 8 8
10 5 8 5 6 5 2 8 7 4 2 2 1 2 1 3 4 4 4 3 2 1 2 3 3 3 4 5 2 1 4 7 6 5 5 3 3 1 4 6 5 7 9 10 11
10 5 10 6 9 8 5 6 9 3 2 2 3 6 7 5 2 6 7 3 3 2 0 2 1 3 3 2 4 2 4 3 5 4 5 3 5 3 7 9 12 14 12 13 15
10 10 7 7 5 5 4 4 7 7 3 6 4 5 6 2 4 7 6 7 6 7 4 3 4 2 2 1 0 4 6 5 2 2 3 5 1 4 5 9 12 12 12 14 16

GFSSW_850_spd_072.txt.gz
Wind_Speed
20 15 13 15 18 20 20 17 13 15 9 13 13 12 11 12 11 11 14 6 5 6 12 15 15 16 20 17 17 14 7 11 10 8 6 6 5 7 8 8 5 7 19 30 37
22 17 16 14 17 19 20 23 11 11 10 10 14 13 12 13 13 15 8 5 6 12 16 17 17 15 23 10 12 9 8 8 9 4 5 3 0 7 6 9 4 13 22 37 45
20 17 17 18 18 19 19 21 18 13 11 11 13 14 12 13 14 2 2 5 8 7 12 18 19 16 20 20 12 10 9 4 9 14 2 2 6 3 15 3 11 22 38 37 42
20 17 17 20 19 19 18 19 19 17 10 11 13 13 12 9 5 2 3 5 7 9 5 14 14 9 9 14 18 8 17 14 5 12 7 2 9 1 0 6 14 24 42 44 42
21 19 18 19 21 18 18 19 15 15 11 9 11 12 12 5 14 9 6 8 9 7 9 10 17 17 5 9 16 16 7 20 15 6 3 1 5 6 11 16 18 19 24 38 39
23 22 17 19 21 19 18 16 17 13 11 8 8 9 9 7 2 5 5 10 12 10 12 7 8 19 13 10 20 10 21 13 12 14 5 2 5 5 13 18 19 15 15 22 36
22 23 19 18 21 17 15 16 15 13 10 11 8 8 11 18 7 7 11 12 11 10 13 10 13 9 10 4 9 18 10 9 8 13 7 3 5 4 20 18 19 17 13 15 23
22 21 19 19 18 18 14 15 15 15 7 9 4 6 8 5 6 10 11 14 9 11 11 8 6 11 8 8 4 11 3 10 7 15 5 8 12 4 12 15 14 16 15 12 14
23 21 21 18 16 14 15 17 14 4 4 5 4 6 9 4 9 6 10 14 15 10 8 7 4 9 8 4 5 6 6 12 5 9 7 14 5 8 8 4 8 12 15 15 13
21 21 21 17 14 14 16 8 1 2 4 6 5 5 7 5 5 13 7 5 5 8 6 3 1 2 2 5 6 11 5 14 2 6 3 14 5 12 7 11 14 12 13 14 16
20 20 17 16 12 14 5 3 3 3 7 6 5 5 11 11 14 3 2 3 5 7 4 2 1 2 7 5 4 4 4 9 5 4 5 4 6 2 11 15 17 22 20 18 16
19 16 15 14 11 7 7 5 4 1 4 8 13 15 13 10 5 3 4 5 5 4 5 1 5 8 7 7 2 3 8 2 9 8 4 6 3 6 12 15 13 22 26 28 23
20 15 15 10 4 4 5 9 4 2 1 2 3 7 5 3 3 3 3 3 4 6 8 4 2 9 14 12 6 5 13 9 6 10 4 7 1 4 9 23 23 20 23 24 26
17 13 12 4 4 6 5 5 3 3 4 2 3 1 3 3 3 3 2 4 4 6 4 5 3 11 14 8 10 6 13 16 10 1 3 3 3 6 7 10 10 21 21 22 22
14 10 9 9 8 9 4 2 4 3 4 3 3 1 2 3 2 0 3 2 3 3 3 2 1 13 14 8 15 4 16 15 13 5 0 3 3 4 5 10 13 14 26 21 20
10 7 7 13 13 8 6 7 7 5 3 1 2 1 3 5 3 7 7 4 6 7 3 3 2 3 2 4 2 4 10 14 5 3 2 7 3 4 3 15 12 13 23 23 18
10 6 10 12 8 11 11 8 4 4 3 4 1 2 3 1 4 4 2 3 1 2 2 3 2 3 2 2 2 7 10 3 3 2 4 10 4 6 5 7 11 12 23 24 20
12 16 14 11 14 16 11 2 4 5 4 3 3 4 1 5 3 3 2 4 2 2 2 3 6 3 2 1 7 4 3 4 4 4 4 3 3 3 2 9 10 12 10 11 10
23 21 15 15 15 13 5 2 7 6 6 6 2 3 4 3 1 3 3 2 3 3 3 3 6 5 2 1 3 2 3 1 6 2 4 2 1 3 6 7 13 19 19 16 15
28 22 17 18 16 12 2 4 3 3 5 5 3 5 4 2 2 4 1 4 4 3 2 0 4 3 5 4 7 8 2 3 4 3 3 2 1 3 4 6 5 8 16 14 14
27 12 15 19 15 5 3 5 4 5 4 3 3 3 2 2 1 0 3 3 4 4 4 2 4 5 4 5 2 4 2 5 4 3 4 4 5 4 8 8 9 9 13 12 10
17 3 22 20 4 4 3 4 5 5 3 1 3 4 6 6 4 2 3 1 5 1 3 3 4 4 1 5 3 1 1 3 4 3 2 2 4 5 9 7 12 12 12 8 8
11 9 17 20 3 3 4 3 3 4 4 3 3 3 5 7 3 2 2 3 7 4 2 1 1 3 5 4 3 1 1 3 4 3 2 3 3 6 8 8 12 13 11 10 8
7 4 6 14 7 3 3 4 4 2 2 3 2 1 3 2 3 4 2 2 5 4 4 3 3 4 6 5 3 3 4 3 4 3 3 3 4 2 2 6 7 10 9 8 7
4 4 9 7 8 5 4 7 4 3 1 2 2 1 4 3 3 4 4 2 4 5 4 3 3 2 2 2 3 2 3 5 5 4 4 3 6 2 4 6 8 8 7 6 6
8 7 11 6 11 10 3 7 6 3 3 2 4 1 3 4 2 5 5 2 3 0 1 3 1 2 5 3 5 0 1 3 4 3 3 4 2 4 6 9 9 8 7 8 10
10 11 11 9 5 6 4 6 8 8 6 5 7 6 7 2 4 9 8 4 5 5 2 3 3 3 2 5 5 5 3 3 1 1 4 6 4 5 4 6 7 9 11 13 14

GFSSW_850_spd_075.txt.gz
Wind_Speed
19 18 17 15 14 17 19 20 20 13 15 12 13 14 12 13 13 13 15 9 8 5 7 12 12 11 17 14 14 8 5 14 16 8 13 12 9 10 6 13 9 22 16 20 31
21 19 17 16 16 18 19 18 20 20 12 14 13 14 14 13 15 16 12 8 4 8 9 14 16 12 13 8 10 9 10 21 9 13 6 4 4 11 5 6 5 17 20 20 34
28 22 18 15 18 20 19 17 18 21 16 12 13 13 13 12 16 2 4 5 7 7 8 11 15 13 6 15 13 6 15 15 18 28 12 2 1 7 6 5 12 24 28 38 40
32 25 19 18 21 18 19 16 17 18 17 14 10 12 12 10 5 4 1 4 4 7 6 5 11 7 5 8 22 11 22 17 22 18 11 4 3 3 8 6 19 27 35 49 47
37 27 20 17 19 20 19 16 17 13 15 13 10 11 10 6 15 12 7 3 6 8 8 6 9 8 8 2 13 20 11 18 22 19 12 4 1 4 4 6 15 27 36 46 46
38 32 23 18 19 18 18 14 14 13 15 12 7 9 9 5 5 6 6 5 7 10 10 10 6 9 7 13 11 8 22 22 16 20 18 10 2 2 7 8 17 28 36 34 38
37 34 25 20 19 21 16 11 14 12 14 10 10 8 10 17 4 9 9 10 11 12 12 13 10 9 7 5 24 25 9 15 13 9 8 13 13 3 4 4 17 20 31 32 34
39 32 25 20 19 17 17 8 11 13 14 8 7 7 8 3 5 11 13 13 12 12 13 12 9 9 8 5 8 17 11 12 11 8 8 10 12 6 2 8 9 14 16 26 29
34 29 26 19 18 16 15 10 11 9 5 8 7 7 8 4 8 6 7 13 12 13 10 10 7 6 6 4 9 13 5 11 5 11 2 5 3 4 4 9 6 8 10 11 22
32 28 25 16 16 13 12 7 2 3 6 7 6 4 7 3 7 8 10 5 5 7 5 6 4 1 4 5 6 10 6 6 9 5 9 10 7 7 8 13 11 5 8 8 10
33 26 25 13 15 11 9 4 5 2 9 9 6 5 7 6 10 2 3 4 7 4 4 5 5 6 9 6 4 11 5 11 4 5 8 11 8 9 8 13 14 11 10 8 8
31 33 22 12 12 10 7 7 7 2 5 13 15 15 15 11 4 3 3 4 4 4 3 2 7 7 9 9 2 13 7 6 8 6 7 4 1 1 5 14 14 17 13 15 15
29 34 16 9 8 9 9 10 6 3 0 4 5 6 5 6 2 5 3 4 3 5 9 7 4 6 6 5 5 2 6 4 7 8 7 4 2 3 8 14 22 20 20 17 20
29 32 12 7 8 8 7 11 6 4 4 3 3 3 2 3 3 4 5 5 4 9 5 7 7 10 10 4 5 4 4 10 16 11 2 9 2 8 10 9 9 24 24 20 17
27 35 13 9 7 14 9 9 9 4 2 3 3 2 3 5 2 2 8 3 7 6 3 3 4 11 12 4 4 3 13 14 16 7 1 5 3 3 10 12 13 20 22 19 15
31 26 12 15 16 13 12 12 11 5 4 1 3 2 2 3 2 4 6 8 6 4 6 5 2 5 2 5 7 1 14 12 6 3 1 4 1 3 4 6 8 11 21 18 15
29 18 14 15 18 19 15 14 4 4 1 3 3 2 1 2 2 4 1 2 1 1 2 3 2 4 10 6 8 8 5 3 3 2 3 5 1 6 4 3 5 8 22 21 16
32 17 16 18 17 21 22 3 4 4 4 2 3 2 1 3 3 2 1 4 2 2 3 2 3 1 0 2 6 6 4 3 3 3 3 0 4 3 4 9 5 9 10 9 7
24 20 22 18 20 24 9 2 6 6 6 6 2 3 4 2 2 4 1 3 4 3 3 2 4 3 3 1 2 1 4 2 6 3 4 3 4 2 7 7 13 17 20 17 14
27 28 24 23 22 19 1 2 4 3 6 4 3 3 3 2 2 3 3 2 4 2 2 3 6 4 4 2 7 4 3 3 4 3 2 1 3 1 2 4 6 8 18 19 19
33 12 21 24 21 7 3 6 4 5 7 5 4 4 2 3 2 0 2 1 3 6 5 3 4 4 3 5 3 5 3 5 4 3 3 3 3 2 6 5 7 8 15 16 15
19 3 27 27 5 4 3 5 5 4 4 1 4 3 5 5 1 2 1 2 9 3 3 2 5 5 1 2 2 1 1 3 4 3 2 2 3 7 4 5 10 10 12 12 12
10 6 25 27 3 3 3 3 3 3 3 3 3 3 3 5 3 2 2 3 8 4 2 1 2 3 6 5 3 2 2 3 5 3 1 3 3 5 9 9 9 12 11 11 10
6 4 7 15 5 3 3 3 4 2 3 2 2 3 4 2 0 3 1 3 6 4 6 3 3 4 5 3 1 2 3 3 4 3 2 2 3 4 3 6 6 9 8 9 10
5 2 5 5 7 3 1 6 4 4 2 1 2 3 3 3 3 3 2 1 3 6 4 3 4 4 4 4 2 1 2 4 3 3 4 2 6 1 5 6 5 6 7 7 9
7 3 6 3 12 5 0 5 4 3 1 1 5 2 2 4 3 5 4 2 0 4 3 4 1 3 4 5 4 2 1 4 3 3 2 5 3 4 6 10 10 9 7 8 8
12 5 4 6 3 5 3 5 6 8 4 1 7 5 5 2 3 4 7 6 3 3 2 3 3 3 2 4 2 3 2 3 4 4 5 5 6 5 3 7 8 8 6 4 6

GFSSW_850_spd_078.txt.gz
Wind_Speed
34 28 23 21 18 20 20 20 21 20 17 13 15 14 16 18 17 16 16 9 7 2 6 9 9 8 13 10 12 5 4 11 19 13 16 9 11 34 9 9 13 22 18 27 34
32 34 28 21 19 18 23 21 18 20 18 16 13 14 14 17 19 21 16 14 9 4 6 8 9 10 7 5 9 6 5 17 10 11 5 12 9 15 11 8 9 15 11 21 37
29 32 34 27 21 18 23 20 16 18 19 19 14 13 13 14 18 5 3 5 5 7 7 10 9 7 5 9 8 5 12 13 13 19 17 7 6 5 10 9 14 25 22 33 40
28 36 37 28 25 17 19 20 16 16 16 15 11 11 12 11 5 2 2 1 4 4 6 5 3 4 4 6 13 7 15 16 11 19 16 15 13 4 9 24 14 25 36 38 40
27 28 38 31 21 17 19 19 15 15 12 13 12 12 10 7 15 12 7 5 5 3 6 5 6 5 4 3 3 9 13 10 20 31 21 29 19 8 12 24 18 20 33 41 41
31 29 35 31 23 17 18 19 13 13 15 12 10 9 7 5 6 5 10 9 7 6 7 7 6 8 8 6 10 4 13 23 21 20 24 18 16 4 15 16 16 20 31 39 46
29 27 30 27 26 17 16 16 12 12 14 13 10 6 9 18 8 7 12 10 8 11 12 12 11 11 2 5 19 17 8 9 18 20 8 18 13 15 11 12 9 19 25 35 35
28 30 28 30 24 15 15 14 10 11 15 14 11 8 8 9 8 8 14 14 12 13 15 15 10 11 8 9 6 6 7 8 11 14 11 14 17 19 2 4 8 2 19 29 36
26 23 27 29 21 14 10 13 11 9 10 7 7 6 9 7 8 5 10 11 12 13 12 11 10 7 7 7 5 3 7 15 7 18 8 10 7 8 7 11 15 10 7 15 26
22 21 25 32 23 14 7 9 6 4 9 8 6 2 8 4 5 7 8 11 7 7 6 6 5 3 3 4 5 6 7 7 14 13 18 11 11 1 6 12 11 11 7 2 14
23 22 21 31 22 8 7 3 6 2 14 9 7 4 3 4 10 6 6 8 5 4 4 6 5 8 8 11 12 9 16 4 3 7 12 10 4 9 6 2 8 14 15 10 4
24 20 22 30 19 8 10 10 8 3 5 13 11 12 14 14 5 8 8 6 4 4 3 2 9 10 8 8 8 15 10 3 6 4 5 3 3 6 4 1 3 8 18 18 13
20 24 23 24 12 8 13 13 7 7 0 2 5 6 4 7 5 6 8 4 4 3 5 7 6 10 10 3 10 2 10 6 7 9 9 5 3 12 1 2 12 20 23 24 18
22 19 19 20 11 10 12 13 11 6 3 2 3 3 3 6 4 6 8 5 1 4 5 8 6 8 9 3 2 5 4 9 15 4 3 4 1 7 6 5 7 25 25 30 18
33 20 20 27 7 15 7 15 10 5 3 3 3 3 2 5 2 4 5 2 6 3 3 2 3 6 7 2 2 2 10 11 9 7 4 2 3 4 5 5 10 14 29 32 15
40 26 26 19 13 13 13 14 12 3 4 3 5 3 1 6 5 3 3 9 5 4 3 5 10 3 3 2 3 11 12 8 7 3 3 2 3 2 3 8 12 15 21 26 14
31 27 24 20 17 18 17 16 1 4 2 3 4 3 4 1 2 4 2 3 2 2 2 4 5 2 4 5 4 2 3 3 3 2 2 1 1 6 4 2 6 14 26 23 14
43 25 29 20 20 24 23 2 2 4 5 3 3 3 1 2 2 1 3 3 2 2 1 2 2 1 1 2 3 4 3 3 4 3 2 3 3 3 3 6 2 7 15 13 13
16 19 24 23 22 26 15 1 5 6 6 7 4 3 3 2 1 4 0 3 2 2 1 1 3 4 9 6 5 4 3 3 6 3 3 2 4 3 7 12 16 14 23 21 18
23 26 25 24 28 27 3 3 2 2 5 3 3 1 4 2 1 3 4 2 3 2 4 4 4 4 3 1 3 3 6 3 2 4 3 3 3 2 5 7 7 9 18 25 25
25 11 21 24 26 12 2 4 3 5 6 5 4 3 2 3 2 1 3 3 4 5 2 1 3 3 4 6 4 4 3 5 4 2 3 3 1 2 3 3 7 7 17 21 20
7 3 27 28 5 2 2 4 4 4 4 3 4 4 4 4 1 3 3 2 11 2 2 3 5 4 1 3 3 2 3 4 4 2 2 3 2 6 4 6 8 14 18 19 19
4 5 26 26 3 2 4 2 5 4 4 3 3 3 2 4 2 1 1 3 10 6 3 3 3 3 6 5 3 4 3 4 4 3 1 4 3 4 5 7 9 15 15 15 15
5 3 5 10 2 3 2 3 4 2 3 4 3 5 3 3 3 2 3 5 9 7 9 4 3 3 5 4 2 3 2 1 3 3 3 3 5 3 3 6 6 11 11 11 12
3 3 4 4 4 1 3 4 4 3 3 4 3 3 4 3 2 2 2 5 4 8 4 3 4 4 5 5 3 1 1 3 2 4 4 5 6 7 7 7 6 9 8 8 8
4 3 4 3 7 4 4 4 4 3 3 2 5 3 3 4 0 4 3 1 1 5 4 4 1 2 5 6 6 3 4 2 3 2 3 5 1 1 5 9 7 6 4 6 8
10 8 4 5 3 4 3 1 4 5 5 5 4 5 6 1 4 7 6 7 4 1 2 3 3 3 3 5 4 4 2 2 1 0 2 3 4 6 4 6 7 5 5 7 9

GFSSW_850_spd_081.txt.gz
Wind_Speed
24 26 25 28 30 22 20 20 20 17 19 17 16 16 14 14 15 17 19 10 5 4 4 8 7 5 8 8 9 6 4 10 11 15 19 11 15 22 25 20 16 11 25 13 32
22 25 25 27 32 23 18 19 21 16 16 18 18 16 14 14 17 20 12 13 8 4 7 5 6 6 3 3 7 7 5 11 5 13 8 9 7 7 10 26 22 15 13 17 34
24 22 23 30 33 25 16 17 20 16 14 17 16 10 14 10 15 3 7 2 5 7 6 5 2 4 4 5 6 5 13 10 16 12 10 5 5 13 8 11 23 17 18 25 37
23 23 24 24 33 26 16 17 17 16 13 14 13 10 10 8 3 2 2 3 4 4 4 4 1 2 2 4 9 8 17 11 13 15 11 9 17 11 8 18 40 32 13 31 44
25 26 23 22 23 31 22 16 16 14 10 12 13 10 9 6 10 9 8 5 7 5 4 4 3 1 3 2 4 11 17 15 12 12 19 21 20 18 22 18 23 21 15 29 43
24 23 21 22 22 29 22 17 14 12 10 12 11 10 10 6 4 5 7 12 10 6 3 3 3 4 7 6 7 5 14 20 19 23 16 17 20 11 20 12 11 23 28 34 42
24 25 24 23 18 25 19 11 11 9 11 10 11 8 12 16 8 6 7 12 10 7 9 8 7 8 1 6 7 14 15 13 16 14 15 14 15 17 26 17 15 18 30 37 42
28 21 15 17 19 24 17 13 7 7 12 10 10 10 9 6 8 6 9 13 12 11 14 14 11 11 11 7 6 4 5 8 11 14 14 9 20 16 19 15 6 14 22 28 40
28 23 13 12 24 21 18 9 5 8 9 7 6 8 9 6 7 3 8 12 11 11 11 11 10 7 4 6 7 8 9 15 13 15 11 16 12 9 18 14 1 9 12 10 33
26 27 22 15 22 22 14 3 0 3 5 9 6 4 12 6 5 3 5 7 8 7 5 6 5 3 3 6 5 7 11 11 14 9 19 15 13 5 5 10 6 4 4 4 7
28 26 25 11 18 23 10 7 7 4 14 9 9 5 3 5 2 4 7 6 6 4 5 6 5 8 14 12 16 7 7 13 13 10 15 20 10 10 3 3 5 6 2 9 7
26 22 18 10 20 16 10 8 9 5 8 25 8 14 12 7 1 6 7 5 3 4 3 4 12 15 11 16 16 19 18 13 10 15 15 15 13 2 3 11 10 12 1 5 11
25 22 14 12 16 14 10 9 6 8 4 6 14 11 8 10 5 9 12 5 5 5 7 8 5 1 14 11 11 9 15 10 3 13 6 7 1 1 6 5 15 13 7 3 6
27 21 20 11 14 12 12 11 10 7 2 4 5 5 7 6 3 6 12 6 5 6 5 7 2 9 10 9 7 4 11 20 15 5 4 2 3 2 2 11 12 16 16 8 11
27 24 22 15 14 15 7 17 13 6 1 3 3 7 6 4 4 7 12 10 10 3 2 3 2 4 4 5 7 2 5 9 9 8 7 5 3 2 2 8 12 14 21 18 15
28 29 17 11 25 15 17 19 14 4 5 5 5 5 4 5 5 5 6 9 2 3 4 7 5 5 3 4 2 5 13 7 4 3 4 2 2 2 1 6 8 11 20 18 18
31 31 14 11 15 20 24 19 4 2 2 5 4 5 4 4 3 5 4 5 3 2 2 2 2 1 3 1 2 1 3 2 3 3 3 2 3 3 7 8 6 8 14 13 8
31 31 27 17 21 28 30 2 3 3 4 2 4 4 4 2 3 3 3 2 5 4 2 1 4 3 3 3 1 5 2 2 4 3 3 3 3 4 5 9 2 4 3 8 8
34 7 20 21 28 31 16 2 4 4 5 6 4 3 3 1 2 2 0 3 4 0 1 2 3 1 2 1 1 1 3 2 5 2 3 1 2 2 8 12 16 15 20 20 19
13 18 28 29 34 29 2 2 1 3 4 2 4 1 4 3 1 3 3 1 1 4 1 2 4 3 1 4 9 6 1 2 3 3 3 3 2 1 7 9 11 14 18 23 21
14 8 23 31 28 11 1 2 2 5 1 2 3 4 2 3 2 3 4 1 2 4 3 2 3 2 1 3 1 3 2 3 3 2 4 3 3 1 2 4 7 10 18 21 22
7 3 25 21 4 2 2 2 2 2 1 3 5 4 3 2 3 2 2 1 11 2 2 2 4 3 1 2 2 2 1 0 3 3 4 3 1 4 4 5 7 12 18 20 21
5 8 14 14 2 2 2 3 2 2 0 2 3 3 2 3 3 3 3 3 9 4 1 2 4 2 6 5 0 3 3 3 4 3 2 3 1 4 5 8 10 15 17 17 17
4 3 7 3 4 2 2 3 3 4 4 6 4 4 3 4 5 2 3 2 6 5 6 3 3 3 4 3 2 3 4 4 4 3 2 1 4 3 4 6 7 11 13 14 14
6 4 4 3 1 3 2 3 3 3 4 7 4 3 4 3 2 2 1 4 3 9 4 4 4 3 3 4 2 2 2 3 4 2 3 2 4 5 6 7 11 11 10 11 11
5 5 5 3 5 2 4 2 4 3 5 3 6 2 3 5 2 2 2 3 1 6 4 4 1 2 5 6 5 4 4 4 3 2 3 5 1 2 5 8 8 8 8 9 9
13 14 5 4 2 2 1 4 3 5 5 6 4 5 7 2 3 6 9 8 4 2 2 3 3 3 2 4 3 4 2 2 2 2 3 3 1 3 3 7 9 9 8 6 6

GFSSW_850_spd_084.txt.gz
Wind_Speed
21 20 20 22 22 21 22 17 17 17 15 14 14 13 13 13 14 17 16 6 3 4 4 3 3 2 4 11 10 9 8 13 18 19 16 21 20 25 20 26 25 16 16 18 12
24 24 20 16 20 22 25 17 17 17 15 11 14 15 10 10 12 18 9 9 7 4 2 2 3 3 5 8 9 12 12 16 15 14 14 13 17 19 14 22 27 27 16 12 18
21 23 20 22 23 20 24 19 17 16 14 11 11 9 7 7 10 1 6 2 7 6 4 1 1 4 8 7 14 12 18 15 13 9 12 14 17 22 19 15 20 27 29 15 18
23 23 23 23 21 19 24 22 17 13 13 10 9 8 7 3 1 1 4 4 7 4 1 3 2 4 5 9 12 13 19 23 23 17 17 15 12 17 20 22 17 10 22 16 18
23 24 25 22 20 18 25 25 17 12 10 9 9 9 5 4 7 9 8 7 7 3 2 1 4 5 7 5 8 16 18 21 21 17 19 20 23 20 21 23 19 16 15 18 17
21 25 23 21 23 17 23 25 18 13 10 9 9 7 5 8 4 5 7 13 9 5 1 1 2 3 7 9 10 8 15 15 17 22 22 18 21 22 27 23 20 13 15 31 25
21 22 26 18 11 14 19 25 18 9 8 7 7 4 7 10 5 5 6 11 10 5 1 4 4 5 2 7 11 13 17 18 20 20 13 19 22 27 30 23 17 17 12 26 30
24 24 25 13 12 12 17 22 13 8 8 7 7 3 5 5 6 7 7 10 10 7 6 8 8 10 12 8 11 11 12 9 14 16 18 14 24 23 26 26 23 23 17 15 23
24 26 24 21 16 10 22 18 10 8 6 7 6 6 4 5 7 7 9 8 9 9 10 7 6 11 6 8 9 9 13 17 16 14 15 18 21 21 20 21 25 18 13 13 14
25 27 22 24 16 22 23 15 8 7 9 10 8 4 7 2 6 6 7 11 5 5 4 7 6 6 6 7 10 10 15 15 20 11 18 17 22 15 10 19 19 15 9 7 11
26 26 19 21 8 27 22 14 12 6 12 6 10 5 7 7 7 7 8 7 5 4 5 6 6 11 15 16 17 18 17 18 18 18 16 22 20 20 2 3 11 10 6 3 6
24 23 18 19 10 20 17 10 9 5 4 11 7 11 8 8 4 7 9 7 6 8 8 5 11 17 14 15 15 18 20 22 19 15 15 17 20 15 10 5 5 8 10 4 2
19 19 17 19 5 18 15 10 10 8 2 3 17 7 5 13 5 10 13 7 7 7 9 10 7 5 11 16 17 18 18 19 14 3 14 12 18 11 11 10 8 9 10 9 1
17 15 14 15 13 11 10 9 11 9 1 6 6 5 8 5 5 8 14 7 6 6 8 9 12 12 13 15 11 13 17 14 13 12 6 13 8 15 12 14 13 13 10 18 15
15 15 14 13 8 10 6 11 12 5 4 9 5 9 7 6 5 8 12 7 9 5 2 3 6 8 9 6 7 6 11 15 10 10 11 7 1 6 2 4 7 9 14 17 29
15 17 13 10 10 18 12 19 13 3 4 5 6 6 5 7 4 7 7 6 0 1 4 10 14 6 5 13 7 2 11 8 7 8 3 2 3 5 1 5 6 5 21 20 10
19 17 10 9 8 18 23 20 4 4 3 7 5 6 7 6 5 6 5 4 3 2 2 2 3 6 6 3 3 2 4 3 2 2 4 2 4 4 10 10 10 7 8 13 13
23 17 13 17 10 31 32 3 4 4 2 6 5 8 5 6 3 4 2 2 5 5 2 2 1 5 8 4 5 3 4 2 3 3 4 4 4 6 9 6 3 5 11 16 15
28 21 16 22 18 33 14 2 1 3 7 8 10 5 3 3 3 3 3 3 1 8 2 2 0 4 3 5 5 5 3 6 4 2 4 3 1 4 10 13 11 13 16 18 16
15 22 20 24 30 30 1 3 1 1 6 9 4 4 5 5 4 2 4 1 2 1 1 1 2 2 2 4 4 4 8 2 1 2 4 3 4 6 11 11 11 13 19 18 21
15 10 18 27 30 4 2 3 3 2 3 2 3 4 3 4 2 3 2 2 3 1 7 3 3 1 2 2 4 2 2 0 1 2 1 4 4 7 8 9 12 14 17 19 20
21 4 22 30 4 2 1 3 3 2 3 2 3 4 2 2 4 3 3 1 8 3 2 3 3 4 3 2 3 4 6 4 3 3 4 4 4 6 4 8 13 17 16 16 17
12 12 21 7 2 1 3 3 2 1 1 2 2 2 1 2 4 2 0 2 6 3 4 4 3 2 3 2 2 4 5 5 1 1 4 2 5 5 7 9 10 13 14 14 12
8 3 3 5 4 1 5 3 2 4 3 5 4 3 3 6 6 3 1 2 5 5 5 1 4 4 3 2 3 2 6 9 5 4 5 7 10 7 8 8 9 10 10 10 11
7 4 4 1 4 5 2 3 5 4 3 6 4 3 2 4 3 3 1 1 1 6 2 2 4 4 5 4 1 3 5 7 5 4 5 5 6 11 8 8 9 8 7 7 10
6 5 6 5 3 2 3 2 4 2 6 4 5 5 4 5 4 3 2 1 1 2 2 2 4 2 2 5 4 5 7 4 6 4 7 6 8 4 9 9 8 5 5 6 7
19 15 6 3 2 1 3 4 3 1 5 6 4 6 11 5 4 5 8 8 5 2 2 2 3 1 2 2 1 3 6 6 3 3 2 2 4 7 7 8 8 7 5 3 2

GFSSW_850_spd_087.txt.gz
Wind_Speed
23 18 22 19 16 15 25 18 19 17 17 15 14 11 13 11 8 8 10 8 4 6 5 5 5 5 6 12 14 10 10 16 20 20 15 19 20 23 24 26 26 27 30 20 3
22 20 19 19 15 19 19 25 19 16 17 14 13 12 11 7 6 7 8 8 10 4 2 5 7 6 10 10 11 15 12 21 17 16 15 19 16 21 25 24 24 23 26 19 7
16 17 19 23 23 16 16 17 23 20 17 16 12 10 8 3 6 3 3 5 9 4 4 4 5 6 10 11 15 15 19 18 18 17 14 15 18 20 20 21 20 21 28 29 19
18 19 23 27 28 24 20 13 27 19 18 14 10 7 5 1 2 5 4 5 6 3 2 1 5 7 7 10 14 19 21 20 22 26 20 14 19 24 26 22 22 8 10 16 28
19 19 20 20 15 24 24 18 26 17 18 13 10 5 0 4 5 6 3 5 5 2 2 4 7 9 11 8 11 15 16 23 23 22 23 23 22 24 28 25 23 23 16 16 19
21 21 21 21 23 12 16 19 28 23 18 11 10 5 5 7 7 5 5 7 5 4 4 3 5 6 11 14 14 14 17 18 20 21 23 22 24 26 32 26 27 26 24 20 23
20 23 24 22 22 19 9 17 27 24 13 11 9 6 8 5 6 5 4 6 6 6 5 4 5 6 7 10 12 16 17 19 23 25 23 20 23 27 33 27 28 28 24 21 18
23 22 24 25 18 18 12 23 23 20 10 11 5 5 5 9 7 8 6 6 6 7 4 5 7 11 13 12 16 16 18 18 17 18 25 23 22 20 26 30 31 30 26 22 18
22 22 24 26 21 17 11 26 21 12 12 8 4 6 2 4 7 7 7 6 7 6 7 6 6 11 7 7 8 9 14 18 18 16 16 17 21 22 28 24 28 30 26 22 17
22 24 23 24 27 8 27 21 13 11 10 9 4 6 6 5 9 9 8 8 6 6 6 5 5 7 8 8 10 12 11 15 17 14 14 16 19 23 26 29 22 27 24 18 17
25 23 21 19 12 10 23 17 13 5 9 5 6 0 11 9 9 6 7 9 7 8 7 1 5 12 13 16 17 16 18 22 21 18 17 18 21 19 21 10 18 21 14 12 13
23 21 19 19 17 10 24 10 9 6 4 12 7 5 10 7 6 8 9 8 9 10 3 4 14 17 16 15 16 18 21 24 23 22 15 21 22 18 17 10 11 10 13 13 8
19 16 17 17 19 21 11 4 6 9 3 8 11 7 6 8 4 12 13 7 6 9 9 13 11 12 12 14 16 19 20 22 20 16 16 15 18 17 16 12 13 13 9 9 4
13 10 14 12 2 10 12 4 8 10 3 7 8 6 6 6 4 6 12 4 4 8 10 12 15 14 13 15 14 18 18 24 20 10 7 17 8 16 13 15 15 18 14 13 6
11 10 13 10 8 4 2 10 11 2 5 8 7 9 9 7 8 5 6 4 7 5 3 5 7 9 15 8 4 9 5 9 14 13 9 18 3 15 17 14 13 14 15 13 6
10 11 13 7 8 6 3 10 10 2 3 5 6 9 8 8 4 6 3 3 1 4 5 12 22 13 6 15 15 5 4 2 7 6 5 3 1 9 6 2 2 5 12 14 12
11 14 12 9 3 7 6 14 2 4 7 7 7 8 10 7 6 6 4 4 4 4 3 3 6 5 7 8 9 6 3 4 5 4 3 2 2 9 9 5 2 2 20 17 16
14 12 6 6 3 12 17 1 5 4 4 3 8 12 4 7 3 4 3 4 9 7 4 4 1 6 8 6 8 12 8 5 2 2 3 4 3 4 9 5 10 4 29 22 24
16 13 8 8 5 20 8 4 4 2 5 8 12 7 3 3 1 6 1 3 2 6 3 4 2 7 7 9 7 7 4 9 3 1 2 2 5 15 16 14 21 17 25 21 23
17 17 4 5 15 18 1 4 2 3 6 13 4 1 6 7 4 4 3 1 1 1 1 2 4 7 5 6 4 4 7 4 2 3 5 6 12 8 12 11 15 14 17 18 17
24 12 11 13 21 6 2 4 2 1 2 4 4 5 5 5 3 2 2 4 6 4 9 6 6 4 4 4 5 1 7 4 3 2 3 4 6 9 10 11 13 14 18 17 21
20 5 15 15 4 2 3 3 7 7 3 5 5 4 5 2 3 3 2 2 4 2 3 1 5 2 1 2 3 3 9 9 5 7 4 10 6 7 11 12 13 17 17 16 15
9 9 16 3 3 1 3 5 4 3 4 2 3 3 1 2 2 3 0 3 6 2 4 4 3 4 1 5 4 5 11 11 1 3 9 3 6 8 10 11 14 15 15 14 14
7 3 4 3 1 3 5 3 1 4 8 6 5 5 2 5 2 5 3 1 4 5 3 4 3 5 6 3 4 7 12 12 8 5 10 9 14 11 11 10 12 13 12 13 12
4 3 2 4 4 5 5 2 8 5 5 3 3 3 2 3 6 4 2 1 1 5 2 4 3 3 4 4 3 5 7 10 11 9 6 6 8 9 9 10 12 11 10 10 9
4 5 5 10 5 5 3 3 6 5 6 7 8 5 3 7 6 3 1 2 3 3 4 3 2 4 2 5 3 4 7 5 8 8 7 7 7 3 7 8 6 7 6 6 5
12 12 4 3 4 3 3 3 5 3 6 6 5 6 8 6 8 8 8 6 5 5 4 3 2 2 2 4 3 3 8 7 4 5 6 2 6 3 4 4 4 3 3 5 4

GFSSW_850_spd_090.txt.gz
Wind_Speed
13 13 18 21 18 16 14 13 23 14 15 11 13 10 11 10 5 5 6 7 7 8 4 1 3 3 3 8 13 12 5 10 15 17 13 19 14 24 24 21 21 22 19 16 9
16 17 17 19 18 21 16 17 18 18 13 14 12 10 10 7 3 8 11 11 13 8 3 2 3 4 6 7 7 11 8 12 14 14 11 17 17 17 17 18 16 21 23 21 12
19 18 17 21 24 24 21 14 13 18 23 15 13 9 6 2 5 5 7 2 8 6 3 2 2 2 9 13 11 9 15 14 20 21 22 19 17 19 16 12 21 12 19 25 26
19 18 19 24 16 20 27 24 14 10 20 15 13 8 2 4 2 5 4 7 9 6 5 3 2 3 4 5 14 13 19 20 20 22 23 15 20 19 21 20 28 28 18 11 15
23 16 20 18 23 22 16 27 24 15 25 18 13 4 4 3 6 9 4 6 7 7 4 2 1 5 6 7 11 12 12 20 21 23 23 22 18 18 27 24 31 31 21 26 19
20 23 19 22 23 23 15 18 21 16 23 16 10 7 6 6 6 6 7 6 5 5 3 3 1 4 6 10 11 15 20 21 20 19 21 18 20 20 25 24 30 32 30 26 24
20 20 24 21 25 24 17 15 15 25 23 16 10 7 4 3 6 7 7 9 7 5 4 2 1 1 7 8 9 13 12 14 16 21 19 25 22 22 22 27 32 32 33 27 27
18 22 22 22 24 24 15 14 14 28 21 13 11 8 3 10 8 7 6 8 8 5 4 1 2 4 7 10 13 13 13 14 14 17 23 21 24 17 25 30 34 34 33 31 26
19 20 22 22 22 21 10 10 23 22 18 12 11 9 4 4 12 7 8 8 7 5 2 1 2 3 4 4 4 5 10 14 14 13 10 12 19 17 29 29 29 32 34 33 29
19 20 21 20 16 25 9 26 22 20 16 14 6 6 6 5 9 10 8 7 8 6 3 2 1 1 1 2 4 7 9 14 15 11 11 11 15 16 24 25 24 32 32 31 31
18 18 19 17 17 14 20 23 16 8 8 5 11 6 13 12 12 9 10 9 6 5 4 4 0 5 7 13 17 13 17 19 17 17 17 13 16 15 19 22 23 20 20 27 27
16 14 15 15 17 9 10 2 7 6 4 3 8 11 10 12 7 9 9 8 6 5 6 2 8 12 11 15 16 18 18 21 21 18 16 16 20 16 17 13 17 20 18 6 5
10 10 10 10 11 1 12 8 8 9 3 7 8 5 5 6 4 12 12 5 6 7 7 8 8 15 14 14 15 17 17 20 19 16 15 18 18 16 14 21 13 12 10 6 6
8 5 9 9 3 2 5 1 7 8 3 4 7 5 5 5 2 7 12 3 4 4 5 6 11 12 14 14 10 18 10 19 18 10 6 5 4 9 14 13 10 15 12 10 11
7 5 9 8 3 3 5 6 7 3 5 7 9 9 8 5 11 5 5 5 6 2 3 3 6 6 10 8 5 8 11 12 8 9 10 10 2 6 10 9 9 12 20 16 12
7 6 12 3 4 3 7 12 5 2 4 4 5 6 8 9 5 6 2 1 1 2 6 13 13 8 7 11 14 7 3 2 3 1 3 8 6 3 5 8 7 12 18 21 13
5 2 5 7 2 4 5 5 1 2 6 7 6 9 9 6 8 7 4 3 1 3 2 5 7 7 13 10 10 3 3 3 2 2 2 10 7 4 7 7 2 6 22 22 14
1 4 11 8 2 9 9 1 1 2 6 7 7 9 5 10 5 4 4 2 6 3 4 4 1 5 5 2 7 12 7 2 4 2 3 5 3 3 13 3 2 19 26 21 17
13 15 12 4 5 9 5 2 4 4 3 9 12 6 2 5 1 4 3 2 2 9 2 3 3 2 4 4 4 6 4 4 4 1 1 3 2 9 11 16 14 20 22 16 18
23 21 12 5 11 11 4 4 3 3 6 13 5 5 6 5 2 5 1 1 2 3 4 4 4 2 3 3 6 4 5 3 2 6 4 4 4 4 9 13 13 14 17 16 17
21 9 8 8 13 7 3 3 3 6 2 2 4 3 6 4 4 2 3 5 5 4 8 6 3 3 4 3 4 2 5 4 2 1 1 3 3 5 8 8 11 12 16 17 17
15 4 8 14 4 1 2 2 6 7 1 2 6 7 3 3 2 3 2 2 3 2 4 6 2 4 2 3 4 4 6 6 3 7 3 5 4 11 9 9 14 15 15 18 18
8 9 9 1 1 1 3 4 3 4 6 4 3 5 5 2 2 5 2 2 2 3 4 6 4 4 3 2 3 3 11 10 3 3 6 4 2 9 10 11 14 13 13 17 17
6 3 2 3 5 2 4 1 2 3 7 8 4 1 3 2 2 3 3 2 1 2 3 2 3 4 1 2 4 5 9 9 6 4 4 5 9 7 7 9 12 14 12 14 13
4 2 2 2 4 5 2 2 9 4 4 2 1 5 5 2 4 3 1 4 7 3 3 1 2 3 3 3 3 5 7 9 9 8 6 9 7 6 8 8 12 16 14 13 13
2 5 2 3 3 5 2 8 8 5 8 7 6 8 8 7 6 6 7 5 4 5 2 1 0 3 2 4 2 4 9 7 7 8 7 10 7 7 14 16 12 11 11 12 10
7 6 2 2 4 3 3 4 6 4 5 9 9 4 6 4 11 8 3 2 2 4 5 2 1 3 2 5 4 2 5 6 2 7 4 5 4 7 6 7 10 12 9 9 5

GFSSW_850_spd_093.txt.gz
Wind_Speed
13 11 11 13 18 22 19 16 16 12 17 13 5 7 7 7 2 2 3 1 6 4 4 5 4 6 2 2 4 3 1 3 4 5 6 25 11 19 19 15 20 13 9 6 3
15 14 12 13 15 17 22 22 16 15 20 10 8 6 4 3 1 2 3 6 11 6 7 1 2 6 3 2 3 3 2 4 5 8 7 18 14 21 13 20 14 25 19 22 4
15 15 10 14 13 14 18 22 18 9 10 18 10 7 2 2 2 3 4 5 5 9 7 7 3 4 1 4 6 3 4 4 15 23 21 15 20 19 13 5 14 19 28 24 18
16 17 13 12 13 15 17 17 23 19 2 21 14 8 3 6 2 7 5 6 10 9 8 6 3 2 2 2 4 5 11 12 11 21 21 11 19 15 16 19 25 25 25 25 23
16 17 18 16 16 17 17 17 12 25 14 20 11 7 7 3 4 7 4 4 9 11 4 2 2 2 2 4 7 3 4 12 14 15 20 22 15 15 24 24 31 29 28 27 23
15 15 19 18 21 21 20 14 10 12 20 23 17 11 9 2 6 9 4 7 9 9 3 4 3 3 2 3 1 8 15 14 14 16 17 15 20 11 14 27 30 32 32 29 26
14 15 15 18 20 18 18 16 16 13 13 26 19 13 10 6 8 8 9 10 5 8 4 2 2 0 6 5 9 11 6 9 14 16 10 19 21 18 20 24 32 37 36 33 28
14 14 16 19 19 19 17 13 17 20 26 22 18 15 6 12 8 8 11 11 9 7 5 3 2 3 3 5 7 4 3 3 4 9 15 11 21 11 27 28 31 35 35 32 33
13 14 15 17 15 18 10 6 12 30 27 20 21 13 7 16 10 7 10 12 10 5 2 1 3 3 2 2 4 3 4 5 7 5 7 11 17 14 30 27 27 28 30 33 35
12 13 14 14 15 15 13 28 32 29 24 20 15 9 9 8 16 13 11 10 7 7 0 1 0 2 4 4 3 4 5 5 11 4 15 17 18 10 14 20 24 32 29 35 36
11 9 11 11 11 15 20 29 19 8 6 2 13 15 20 16 16 12 13 10 5 3 1 3 4 5 8 7 7 6 9 14 19 15 14 18 20 17 15 20 19 24 27 33 34
7 7 8 9 10 8 7 5 8 12 8 15 13 22 17 17 13 11 12 6 5 3 2 1 7 10 9 8 8 9 10 20 20 15 13 14 21 17 13 19 22 25 26 29 27
8 6 8 8 7 6 6 3 8 14 7 7 12 15 11 9 10 13 13 4 3 4 6 8 8 14 8 9 8 9 9 17 18 21 14 16 16 14 13 22 25 25 25 12 20
6 7 10 6 5 7 6 4 8 6 4 3 3 3 6 7 5 8 13 1 3 3 6 7 8 5 6 9 4 14 8 15 12 6 3 5 5 6 4 9 8 15 14 16 14
6 6 8 9 8 12 1 6 6 1 5 2 5 9 9 2 14 4 9 2 2 2 3 6 4 2 5 8 6 10 10 11 12 5 4 3 3 7 2 5 8 9 18 20 13
5 5 7 13 12 15 15 9 5 4 4 4 4 4 4 3 3 6 3 1 1 3 3 11 6 4 7 7 13 10 5 3 3 1 3 3 5 5 0 5 4 3 13 17 12
9 12 14 11 12 9 7 4 2 5 1 5 4 5 4 5 5 5 3 2 2 1 3 2 5 3 4 5 5 7 5 2 2 2 4 7 4 5 13 15 8 9 16 19 13
12 16 17 11 11 10 8 1 6 5 4 4 5 6 3 5 2 5 4 2 5 4 3 3 7 2 5 3 3 7 3 3 4 1 2 6 2 1 9 16 16 19 23 20 17
17 17 12 11 9 6 1 5 3 2 3 6 10 3 1 6 3 4 5 2 4 8 1 3 4 4 4 3 2 2 3 3 4 2 1 3 2 4 13 15 14 14 18 16 16
20 19 18 11 7 3 4 4 2 6 1 6 4 5 4 4 2 3 3 2 2 3 4 3 4 6 4 1 9 6 4 3 2 5 3 2 2 4 5 7 9 10 14 16 15
7 8 9 12 5 7 5 3 3 6 3 3 4 5 5 4 4 2 3 2 4 3 7 2 1 6 3 4 3 3 5 3 3 3 1 3 2 4 4 5 8 10 15 15 16
9 3 5 10 4 3 2 3 3 4 2 3 5 4 3 4 3 2 3 3 11 4 4 7 3 4 7 2 2 2 6 3 3 6 3 3 3 5 5 5 10 12 12 15 18
5 4 7 12 3 3 2 5 2 5 5 4 2 3 2 2 3 2 3 4 6 4 3 1 3 4 8 6 6 4 11 7 1 2 4 4 2 2 3 6 8 10 10 15 16
3 3 4 5 1 1 2 3 4 4 4 4 2 2 2 1 1 3 2 4 5 5 5 2 0 4 4 5 4 6 8 9 3 4 2 3 4 3 3 4 6 8 9 12 12
4 1 3 3 3 3 4 1 4 4 8 8 5 6 2 2 0 1 2 1 3 3 2 4 0 1 4 5 2 3 5 8 8 4 4 6 5 6 7 7 9 15 13 11 10
2 2 2 5 9 2 4 4 4 3 4 5 5 6 9 5 4 4 5 4 1 5 2 2 2 2 3 4 3 1 6 5 6 7 6 6 4 5 12 16 14 14 13 12 9
5 2 5 5 6 3 3 2 4 1 3 6 3 2 6 3 8 14 14 12 4 1 2 1 2 3 4 4 4 3 1 3 2 4 1 2 2 4 6 8 13 13 12 9 5

GFSSW_850_spd_096.txt.gz
Wind_Speed
16 16 12 13 15 11 16 17 16 19 8 16 11 5 2 2 1 3 4 3 4 3 4 5 8 6 6 5 3 3 2 2 3 3 4 11 9 8 14 11 19 6 15 17 9
13 13 15 12 11 18 16 17 22 11 12 19 13 7 3 2 2 3 5 3 2 2 8 8 5 6 3 2 3 3 3 7 4 2 3 14 10 20 9 16 7 12 13 10 9
15 13 13 13 13 15 16 20 22 20 12 17 16 9 5 6 4 3 6 1 3 9 8 6 6 7 2 1 2 3 4 3 6 15 16 9 21 11 10 5 12 17 23 20 17
15 13 11 14 14 13 12 15 15 19 9 14 18 11 6 7 3 8 7 5 8 9 7 8 6 5 2 2 1 2 5 7 7 14 12 7 14 11 17 22 20 25 23 23 20
15 15 13 13 14 17 19 17 15 20 21 12 18 12 10 4 4 11 8 6 11 12 9 6 6 3 2 3 5 2 3 9 11 16 18 19 14 12 28 29 27 24 28 26 24
17 15 14 14 14 16 15 17 17 11 20 15 21 13 10 3 8 9 6 10 11 8 6 6 4 4 1 1 1 6 9 12 10 17 15 10 22 9 16 25 32 33 33 32 28
12 13 16 14 17 14 14 15 16 15 12 19 22 12 9 8 12 10 9 12 10 7 7 4 2 2 2 3 9 8 6 7 11 9 7 15 18 16 30 33 38 34 36 36 33
13 10 15 15 16 13 18 18 17 22 18 26 15 18 7 12 8 10 14 11 7 4 5 2 1 2 1 4 6 4 2 4 4 1 9 7 13 12 30 27 31 34 36 35 35
12 9 10 14 14 12 14 7 15 19 19 28 22 12 8 15 10 11 13 12 10 5 2 2 5 3 1 3 4 4 3 5 7 4 5 6 7 6 20 27 26 31 35 34 34
12 7 9 12 12 5 20 15 19 33 32 22 21 13 12 13 14 11 11 10 6 4 3 3 3 3 3 4 3 3 5 5 8 5 8 15 22 18 19 20 22 26 31 35 35
6 5 5 8 9 10 13 22 24 15 9 6 13 8 18 15 16 14 11 10 7 2 1 2 4 3 6 7 5 4 6 10 18 15 16 19 22 21 23 22 22 24 29 32 32
7 8 6 8 7 3 12 8 11 15 19 17 18 23 23 20 12 13 13 5 5 3 3 3 4 7 6 6 7 8 9 18 15 13 3 13 22 19 18 17 26 23 28 28 31
9 10 9 9 6 5 13 15 20 17 7 11 15 17 9 14 8 11 13 4 3 3 3 5 5 5 6 6 8 4 5 11 13 16 13 15 13 6 10 17 28 24 26 27 24
8 8 7 6 8 10 7 2 20 7 5 4 5 3 5 8 5 11 12 1 3 2 3 5 4 3 4 7 5 6 8 15 14 9 4 3 7 7 7 6 4 13 19 21 17
8 8 9 9 6 9 5 8 9 2 5 2 3 4 5 4 14 3 10 2 2 1 3 5 3 3 5 6 7 9 1 11 10 8 3 2 2 7 7 8 9 6 12 7 6
6 12 12 12 15 19 14 12 5 4 5 3 3 1 3 5 2 5 1 1 1 2 3 7 2 3 5 4 11 9 8 6 1 2 2 3 4 5 4 9 11 7 5 7 9
16 13 8 8 10 11 7 5 4 5 4 2 4 4 3 5 2 3 2 2 2 1 3 4 4 4 5 4 3 3 4 4 4 1 4 4 1 6 11 13 6 4 12 10 11
15 12 11 11 10 7 7 3 8 3 4 4 4 5 1 3 2 4 3 2 3 2 3 3 7 4 5 5 4 4 2 2 4 3 3 2 3 3 9 14 15 17 17 18 15
11 11 14 11 7 5 4 7 3 2 5 6 5 3 1 3 2 4 4 2 5 8 1 3 5 2 5 4 3 2 3 3 3 4 1 2 3 4 10 12 13 14 18 17 18
13 16 15 11 8 7 4 9 3 2 4 4 4 4 4 4 5 5 5 3 3 7 5 2 5 2 3 1 6 5 3 2 1 4 3 1 3 4 10 9 7 10 12 15 15
11 5 11 13 9 10 5 4 2 2 3 5 1 3 4 5 6 4 5 1 3 2 7 1 1 7 5 2 3 2 4 3 3 3 2 3 2 5 4 4 5 9 14 13 17
10 3 16 14 7 3 3 3 3 3 3 3 1 3 5 6 5 4 2 2 11 4 4 6 2 4 6 5 4 3 4 2 2 5 2 2 3 5 4 3 4 10 12 15 18
5 5 14 12 4 4 3 1 2 4 3 3 4 2 2 2 3 2 0 1 11 4 3 3 2 4 8 5 5 4 6 5 3 3 3 2 2 4 2 5 10 13 13 14 13
3 3 7 9 5 2 4 3 4 4 3 3 4 3 4 4 2 1 1 3 7 5 4 3 1 5 4 6 4 6 9 8 2 3 1 1 2 4 1 3 3 6 9 11 10
5 2 3 2 5 3 0 3 3 5 6 13 5 6 1 2 2 3 4 5 3 2 3 3 3 2 6 8 5 3 5 8 6 2 3 5 4 5 5 5 5 6 7 7 6
3 2 1 3 8 2 4 5 4 3 4 3 3 4 5 3 3 3 1 2 2 4 1 1 3 1 4 3 4 4 5 5 3 4 4 3 2 3 5 7 8 9 8 6 5
6 4 3 4 4 2 3 3 3 0 3 4 3 1 2 2 5 8 8 10 7 2 2 0 2 2 4 4 4 4 3 2 1 0 1 3 4 4 3 7 12 12 8 4 2

GFSSW_850_spd_099.txt.gz
Wind_Speed
13 10 13 11 13 15 14 17 14 13 14 10 16 11 6 3 2 4 5 6 7 5 5 5 6 7 8 6 5 5 3 1 3 4 3 4 7 4 8 6 13 5 4 14 15
14 11 10 11 11 8 12 17 18 15 9 8 16 12 7 4 3 4 6 7 7 6 7 7 7 7 5 3 2 4 3 5 3 2 3 13 5 14 5 11 9 11 16 17 12
15 13 10 9 11 16 10 12 16 18 17 11 15 12 8 6 4 4 7 5 5 9 9 8 6 5 5 3 2 2 4 3 4 10 10 8 12 7 7 5 6 11 21 23 20
14 13 13 10 10 10 16 12 13 12 17 13 13 16 10 8 4 8 8 6 7 10 8 8 6 4 3 2 3 1 3 3 5 8 10 7 9 10 18 12 19 16 23 26 26
12 13 13 11 11 10 11 17 18 17 13 10 19 18 13 5 6 12 10 9 10 9 9 9 8 4 4 2 4 0 4 10 12 18 17 19 14 12 22 27 29 23 18 21 26
11 8 11 10 10 12 13 10 18 17 14 18 22 18 12 5 13 11 7 11 10 9 8 6 6 6 5 2 2 6 9 16 12 20 17 14 20 9 12 20 29 35 35 33 33
9 9 7 8 11 13 13 10 12 13 16 19 21 19 11 7 14 10 12 10 9 7 9 8 6 3 2 2 7 7 6 8 11 9 5 11 12 12 33 23 29 30 29 28 29
8 8 10 9 11 14 15 16 17 17 20 16 20 14 8 15 12 12 13 11 7 7 6 7 4 6 4 3 6 4 2 4 4 1 5 7 19 7 22 21 26 27 29 30 27
10 7 6 8 10 12 13 15 12 20 21 17 25 12 10 13 10 12 10 10 7 6 6 5 5 5 4 4 4 5 3 4 8 5 4 7 12 8 12 20 28 34 33 30 27
10 4 4 8 7 9 12 13 23 26 23 26 24 12 14 10 14 12 9 7 5 8 7 5 6 3 4 4 3 3 4 5 9 5 4 10 23 23 35 24 28 28 34 33 30
9 6 5 6 8 7 6 25 28 14 12 6 9 11 21 17 13 13 11 9 8 5 3 5 5 2 5 5 3 1 5 12 15 13 8 15 21 21 29 23 26 28 31 36 36
9 8 7 7 9 5 6 10 14 13 22 20 22 25 21 17 13 10 11 2 2 2 4 5 1 6 2 4 5 6 10 14 13 11 7 14 20 19 21 17 26 27 26 33 34
8 9 7 7 5 8 20 21 23 22 11 8 17 18 8 12 7 10 11 3 0 0 2 3 4 3 4 4 6 7 9 9 11 9 11 10 9 5 5 9 16 17 22 23 24
9 9 8 5 12 8 20 20 15 16 5 5 6 6 5 9 5 8 9 1 1 2 2 4 3 3 4 5 7 6 10 15 12 10 5 5 6 6 8 9 8 13 11 19 21
8 10 10 6 13 14 18 14 11 4 6 1 3 3 4 4 11 3 6 2 2 2 5 5 2 2 4 6 6 10 4 6 11 8 5 1 1 7 6 11 19 9 5 7 8
11 11 14 17 17 19 19 8 4 5 5 3 2 1 3 4 3 4 1 1 2 3 4 7 3 4 6 4 9 10 6 3 0 0 2 3 2 5 9 11 14 15 11 10 10
11 10 12 16 17 12 7 1 4 5 3 1 3 2 2 3 2 0 2 0 1 4 4 5 4 3 5 4 3 4 4 4 5 4 3 2 1 7 10 12 8 7 10 13 8
12 10 14 17 10 7 1 2 9 3 4 3 3 4 3 2 2 3 1 1 1 3 3 2 6 5 6 6 3 3 1 1 5 3 3 1 4 2 8 13 10 10 12 15 15
13 15 16 13 8 5 3 7 3 2 4 6 5 3 2 0 1 1 2 2 5 7 2 2 5 4 5 4 2 1 2 1 4 4 3 2 3 2 11 12 10 13 13 17 18
11 13 25 13 9 5 5 7 3 1 5 3 3 3 4 2 2 2 4 2 1 8 5 2 5 2 4 2 4 2 3 2 0 4 4 1 2 5 11 10 10 9 12 15 17
10 6 19 13 15 15 5 4 4 1 3 4 3 4 3 5 4 3 3 3 4 3 9 1 1 6 3 2 2 3 3 2 2 2 2 4 2 3 6 5 7 8 13 16 19
14 4 17 13 9 5 3 3 3 2 5 2 2 3 6 5 5 4 4 4 11 9 5 5 1 5 6 3 1 3 3 2 2 3 1 2 3 4 3 3 5 8 9 12 14
7 9 22 14 4 4 4 3 1 5 4 1 1 0 2 5 3 4 3 2 11 6 4 3 1 4 8 5 4 2 2 3 4 1 0 0 2 3 3 6 7 8 7 10 13
4 3 9 15 9 3 5 5 5 6 2 3 3 2 1 2 2 2 1 2 10 7 4 3 2 5 5 6 2 6 8 4 2 2 2 3 2 2 1 4 5 5 5 6 6
6 2 3 3 6 4 3 3 3 6 6 9 2 3 2 1 1 1 2 4 3 2 3 3 3 4 7 9 4 6 7 7 3 2 2 4 4 4 5 7 8 7 7 6 5
5 4 2 2 5 4 4 5 6 5 5 5 3 4 4 1 1 2 1 0 1 2 3 1 3 2 5 3 3 6 8 6 5 2 1 3 5 3 5 7 8 9 9 8 6
6 7 3 3 3 2 2 3 4 3 1 2 3 3 4 3 5 8 8 9 6 3 1 0 1 3 5 4 6 7 6 5 3 4 4 5 6 4 4 7 11 12 11 8 5

GFSSW_850_spd_102.txt.gz
Wind_Speed
14 10 8 9 9 12 13 11 13 14 7 7 19 13 9 5 2 6 7 7 7 7 7 8 9 10 8 7 6 6 4 2 2 4 4 3 7 5 9 11 7 6 9 13 17
14 12 11 8 8 14 14 10 12 14 10 5 3 15 10 5 5 6 7 8 7 6 7 8 10 12 6 4 3 4 3 7 3 2 3 9 3 11 6 10 12 24 14 18 18
13 12 11 10 8 9 16 17 13 10 12 9 5 17 12 7 7 4 7 6 5 7 8 8 9 7 5 4 2 3 4 4 3 5 5 7 9 5 4 4 8 8 22 27 26
15 10 10 9 9 8 8 13 14 16 9 9 6 18 11 8 4 7 5 5 6 8 7 7 6 3 4 4 3 1 1 1 4 4 8 7 11 8 15 13 25 28 23 27 31
10 10 9 10 9 7 7 8 12 16 12 6 3 11 9 7 8 10 8 7 8 6 6 6 6 4 4 3 2 2 4 8 10 20 17 16 16 13 14 34 30 29 30 22 24
10 9 7 9 8 9 9 10 7 7 11 12 8 15 14 7 12 9 6 7 6 5 7 5 6 8 7 3 3 3 7 13 12 15 15 10 11 5 5 17 22 29 34 32 31
8 8 4 4 6 8 9 10 7 5 7 16 6 19 18 8 13 8 9 8 7 5 7 9 7 3 4 3 4 3 5 7 4 3 4 11 5 10 22 18 25 25 30 29 27
6 8 7 4 6 9 11 11 9 9 9 11 21 16 12 18 10 12 9 11 8 9 7 8 6 7 4 2 5 4 4 5 4 7 5 5 11 2 9 17 32 31 30 32 32
9 5 3 2 7 9 10 10 10 7 17 11 22 16 9 18 13 11 6 10 8 7 8 5 4 5 3 4 4 7 2 2 8 3 2 1 15 2 17 21 25 34 36 37 40
8 6 3 4 6 8 11 15 21 24 13 25 21 13 11 10 14 10 6 5 7 8 6 6 6 4 4 5 3 2 3 4 6 5 1 7 25 23 36 25 31 37 39 36 37
8 7 8 10 10 5 21 31 25 9 16 7 13 9 18 17 15 11 8 9 7 6 3 5 5 1 2 3 3 2 1 6 8 10 8 11 20 22 32 26 27 32 35 33 35
12 10 9 12 13 2 21 9 14 12 22 27 28 25 22 13 13 11 7 4 4 3 2 5 1 3 3 3 2 2 2 7 8 7 5 12 20 20 19 15 19 23 30 25 26
11 9 11 10 13 12 26 26 22 16 8 16 21 14 7 13 7 6 3 2 2 2 1 3 2 4 3 2 2 3 4 5 7 8 12 14 12 4 6 10 17 16 20 15 19
13 7 6 6 13 25 26 27 18 9 5 7 4 4 4 11 6 6 4 2 2 2 2 3 1 1 2 4 5 4 7 10 9 7 4 2 6 5 6 9 14 22 27 15 14
13 12 9 13 19 21 24 23 7 2 6 5 4 4 4 6 10 2 3 2 2 2 5 4 2 2 3 4 5 8 2 5 9 10 5 3 3 6 8 14 15 21 20 18 16
14 14 14 19 21 19 10 6 2 5 5 2 3 2 3 5 3 4 1 1 2 1 1 6 2 3 4 2 7 6 5 5 2 2 2 4 4 4 7 12 14 9 12 15 14
17 13 15 19 14 11 4 4 5 5 1 2 3 2 1 2 1 2 1 1 2 5 5 5 3 2 3 4 2 1 4 4 5 3 4 4 2 5 10 11 13 11 8 9 10
18 15 12 10 6 3 3 4 9 2 3 3 3 3 3 2 1 1 2 2 2 3 3 4 6 4 5 5 2 3 2 1 4 3 5 0 3 3 6 12 14 10 11 14 14
10 18 20 11 4 1 3 7 4 2 3 5 3 4 2 1 3 3 3 1 3 4 2 2 5 4 6 4 3 0 2 1 4 1 4 2 4 3 10 11 14 13 13 15 15
7 8 26 12 9 5 5 7 3 1 4 2 3 2 2 1 2 3 1 3 3 5 3 1 5 4 4 2 5 4 2 2 1 4 5 4 2 5 11 9 9 10 13 16 15
10 5 20 12 19 15 6 4 4 2 3 2 2 3 1 1 2 1 2 4 3 4 8 1 2 6 1 5 4 2 0 1 0 3 2 4 3 2 6 5 7 8 10 10 13
18 4 16 11 9 5 3 2 3 3 3 2 0 2 4 4 2 1 4 4 9 8 4 5 2 5 8 1 2 1 3 3 3 3 2 1 4 3 5 5 3 3 5 8 13
7 8 26 11 4 4 4 3 3 4 3 2 2 3 1 4 0 4 3 2 12 7 4 3 2 4 7 4 2 1 2 3 1 2 4 3 4 1 5 5 3 3 6 7 7
3 3 8 17 9 4 4 4 5 6 2 4 3 3 2 0 3 3 2 1 11 8 6 5 2 5 5 6 2 5 3 3 3 1 2 5 4 4 3 3 4 5 3 2 1
4 2 3 2 6 4 2 1 4 6 6 10 3 5 2 3 2 2 2 4 1 3 2 2 4 4 7 11 6 8 9 5 6 6 5 4 5 5 8 9 12 9 5 4 3
3 4 4 3 2 4 5 5 4 4 2 3 2 3 1 3 3 3 1 3 3 1 4 1 4 2 5 4 3 6 9 8 6 4 6 4 6 5 4 8 10 10 9 7 5
6 4 1 1 1 3 3 3 1 1 2 3 3 2 2 3 7 11 11 9 5 2 2 2 0 3 5 5 7 7 6 8 5 4 5 6 7 4 4 8 12 12 12 10 7

GFSSW_850_spd_105.txt.gz
Wind_Speed
14 15 13 11 12 9 6 11 8 9 10 10 9 20 14 9 6 9 8 8 7 7 6 9 12 12 10 7 6 4 3 1 3 5 2 1 5 0 4 8 7 6 10 17 21
16 11 13 11 10 10 12 7 7 3 12 12 7 19 13 9 11 11 10 7 7 8 7 8 12 12 7 4 4 4 3 5 1 2 2 6 3 8 5 6 10 19 18 15 20
10 9 9 10 8 7 8 12 12 3 5 10 10 17 14 13 12 8 9 6 6 9 9 10 13 10 5 4 3 2 3 3 2 3 3 4 7 4 2 5 16 14 19 22 23
10 9 8 9 9 5 6 5 8 6 5 7 10 11 17 15 4 7 4 5 9 10 10 11 10 5 4 4 3 3 4 0 2 3 4 4 6 5 11 23 24 23 25 27 27
9 7 5 7 15 11 7 3 4 6 6 11 14 10 21 16 10 10 7 9 10 9 9 8 7 6 5 5 4 3 1 5 7 14 16 13 13 9 26 34 25 24 26 27 25
8 7 3 5 9 5 8 5 1 3 7 10 8 20 18 14 12 7 7 8 10 7 9 6 6 11 9 4 4 1 4 10 8 10 8 6 5 4 14 15 19 21 25 28 28
7 7 3 1 4 3 8 4 3 6 9 8 18 26 22 14 11 7 7 11 9 8 11 12 9 3 5 4 4 1 5 5 3 6 4 9 2 8 12 14 18 21 29 34 35
7 8 3 0 4 5 6 4 7 8 12 6 25 29 13 18 16 9 8 13 10 11 10 11 9 10 6 5 5 4 4 5 1 6 2 4 5 4 9 15 25 30 33 36 38
9 7 5 3 5 5 5 6 13 12 17 15 19 27 12 18 14 11 6 11 9 10 11 8 5 6 4 4 3 7 1 2 7 2 2 3 11 5 20 31 30 29 32 36 40
12 10 11 8 8 9 7 21 21 18 21 19 23 15 12 12 12 11 9 7 8 6 7 6 6 3 3 4 2 1 1 3 5 3 3 10 22 15 24 21 25 28 33 36 39
13 11 14 8 15 23 31 32 22 13 16 7 15 24 19 15 13 10 9 9 8 8 4 6 6 3 2 3 4 4 1 3 5 6 4 9 16 21 24 18 18 23 29 34 35
14 12 9 14 19 20 10 17 12 14 26 31 33 27 19 12 11 9 5 3 6 4 1 5 3 2 5 4 3 2 2 5 9 7 5 11 20 17 9 7 13 20 24 27 27
15 11 15 14 17 14 24 19 21 17 10 15 18 13 7 10 6 4 5 4 4 4 4 3 3 6 1 1 1 2 3 3 6 7 9 9 8 4 2 5 13 18 19 24 21
18 7 7 19 23 27 22 25 16 6 5 8 7 6 5 9 6 4 5 3 4 2 2 2 1 2 2 3 5 3 8 7 6 6 4 5 6 5 4 10 10 21 18 20 21
19 16 9 9 28 24 22 11 1 0 6 6 4 4 8 7 9 1 4 3 3 2 5 2 2 2 3 5 6 3 4 6 8 6 4 1 4 5 4 9 16 18 20 17 21
24 18 25 24 28 23 6 1 2 6 6 3 3 2 4 6 3 3 2 3 3 3 3 4 1 3 4 2 5 4 3 2 2 2 2 4 2 4 4 9 15 18 20 17 12
21 18 20 20 17 9 4 5 5 6 1 2 2 1 3 3 4 2 3 4 3 4 5 4 2 2 3 2 2 2 3 3 4 2 4 4 2 7 5 11 13 13 17 18 16
23 17 7 6 5 7 7 6 11 2 4 1 2 4 4 0 3 2 2 2 3 2 2 2 3 5 5 4 2 1 1 2 4 3 5 2 4 3 3 12 16 13 14 17 18
10 19 18 6 1 1 5 7 2 2 3 4 2 3 4 2 3 1 4 3 4 6 4 3 4 2 4 3 2 1 1 0 3 1 3 2 4 2 5 10 10 11 13 16 18
9 14 22 13 11 7 6 7 3 1 4 2 2 1 3 2 1 2 1 3 2 4 1 0 4 2 1 2 2 4 2 2 0 3 4 4 3 5 12 8 6 5 8 10 13
10 7 18 11 16 13 4 3 3 3 2 2 3 2 1 2 3 1 2 2 1 2 1 1 2 5 2 4 5 1 2 1 1 2 2 4 3 2 5 5 3 4 5 7 11
11 4 10 9 8 4 3 2 1 1 2 1 2 2 4 3 1 0 1 3 4 5 1 1 2 5 7 1 2 0 3 4 2 3 3 2 5 1 2 3 1 0 2 10 12
6 7 16 6 4 2 1 2 2 3 3 3 3 3 2 2 3 1 1 2 9 5 3 3 1 5 7 4 1 3 3 3 3 2 5 3 4 3 4 4 3 4 6 4 3
2 3 8 13 8 5 3 2 2 4 3 2 1 3 3 3 1 3 2 1 8 7 4 5 3 6 5 6 2 5 5 4 4 2 2 6 6 5 5 7 8 9 8 7 6
5 3 3 1 4 4 2 2 1 2 2 5 3 4 1 1 2 2 1 3 3 3 3 4 4 5 7 14 8 14 15 8 8 7 5 3 5 7 9 10 16 13 10 9 7
3 2 4 4 3 2 2 3 4 3 4 1 4 2 4 4 5 4 3 4 4 1 4 1 4 2 6 6 5 7 11 12 14 8 9 8 12 10 6 14 14 16 13 12 10
6 6 2 1 2 2 2 2 4 1 4 3 4 2 3 7 13 14 14 9 7 7 5 5 2 2 5 4 9 6 5 7 5 5 6 7 8 4 4 9 17 18 16 16 13

GFSSW_850_spd_108.txt.gz
Wind_Speed
6 7 10 10 9 8 5 2 4 8 11 12 12 20 14 10 10 13 10 8 7 8 9 12 12 12 12 6 4 2 2 4 5 5 4 3 1 1 2 8 9 9 12 14 18
9 7 5 10 11 4 9 6 1 3 9 6 9 24 14 11 14 11 12 9 7 9 11 11 11 10 5 4 2 2 3 3 2 3 2 1 3 5 5 10 14 15 16 15 15
5 5 5 6 10 6 2 5 9 3 3 12 6 14 21 19 11 6 11 6 8 8 10 12 14 8 5 4 3 0 1 3 3 1 3 3 6 2 6 10 8 13 14 15 18
5 5 3 3 7 8 2 1 3 7 5 9 13 10 20 13 6 5 5 6 11 11 12 14 11 4 4 4 2 2 2 1 1 1 4 6 8 7 16 14 13 17 18 20 21
6 6 4 1 4 6 10 2 1 9 7 11 16 16 10 11 8 9 4 9 11 12 12 11 7 5 6 6 4 2 2 2 2 5 8 10 12 12 24 21 19 16 15 16 18
9 8 4 0 6 8 11 3 1 11 11 15 17 14 20 10 11 8 8 9 10 10 12 10 7 10 10 4 1 2 3 5 3 3 4 5 7 4 3 3 9 10 16 19 23
9 8 4 3 4 9 7 4 5 13 11 14 24 17 24 12 12 9 7 12 12 11 15 15 13 4 8 7 3 2 3 3 4 2 1 4 8 9 6 7 14 22 25 24 22
10 7 4 3 3 3 4 5 9 15 16 17 21 17 14 18 17 9 11 14 12 12 13 13 12 12 4 8 3 0 2 2 4 3 2 4 7 5 6 11 24 23 20 20 22
12 9 4 1 2 4 7 10 14 16 12 31 31 16 14 16 10 10 7 13 12 12 13 10 6 6 4 3 3 2 2 3 2 3 3 2 11 9 16 24 23 20 19 21 24
11 9 7 6 8 10 15 20 17 18 17 23 13 15 10 10 14 12 10 7 6 10 8 4 5 3 3 1 2 1 2 3 7 2 7 13 15 14 22 21 17 15 17 20 24
10 14 11 17 22 27 29 25 16 12 19 8 18 35 23 16 10 10 9 7 6 6 3 5 4 6 6 6 6 4 1 5 7 4 9 9 17 19 20 7 6 14 18 22 24
15 11 14 20 22 23 14 14 12 12 23 29 31 33 14 7 8 9 8 4 5 5 1 4 6 5 7 5 4 1 3 5 8 2 9 17 20 15 3 4 7 16 20 23 23
9 12 15 20 16 18 32 28 21 19 9 15 17 15 9 8 6 9 7 4 5 5 7 6 6 7 1 3 0 2 3 3 5 13 9 12 7 3 4 5 8 18 15 20 18
12 13 19 25 19 32 30 20 10 5 5 10 11 9 7 5 5 7 8 3 3 5 4 6 4 3 1 1 4 1 4 3 6 9 5 8 6 6 2 6 8 20 19 19 20
21 18 18 14 38 19 15 8 4 1 6 9 6 5 7 6 4 4 7 3 4 4 2 2 4 3 3 1 5 4 0 6 8 6 6 3 4 4 4 6 13 20 19 18 18
20 16 17 22 16 12 4 5 4 1 7 2 5 4 3 5 3 2 3 4 3 3 3 3 1 2 2 1 4 4 5 1 2 1 3 4 3 5 3 7 15 17 14 17 18
20 17 15 15 15 4 6 5 2 7 1 3 2 1 3 3 2 2 3 4 2 1 3 1 2 1 2 1 1 3 3 2 2 3 3 6 5 10 3 6 10 12 14 15 15
12 7 8 7 8 6 6 2 11 2 5 2 2 4 3 2 2 2 0 3 3 4 3 2 2 5 6 3 3 1 3 2 4 3 6 5 5 3 1 7 9 9 9 11 14
15 17 12 5 1 2 5 7 4 2 4 6 3 1 2 3 1 2 4 3 4 2 4 4 0 2 4 1 3 2 2 2 4 3 5 2 4 5 4 10 9 9 9 11 12
10 15 18 14 11 9 6 7 3 1 4 2 3 3 3 3 3 4 5 2 2 0 1 1 3 1 1 2 5 3 2 3 4 5 5 3 4 4 10 10 9 8 8 8 8
5 4 12 16 19 14 6 5 5 4 1 1 3 3 4 2 1 1 1 2 3 4 3 2 1 1 3 6 3 4 3 6 3 3 3 5 1 2 4 6 7 7 5 4 6
7 4 10 8 5 4 3 4 5 4 2 2 2 2 2 3 1 0 0 2 6 5 1 1 2 4 3 2 1 3 5 5 3 2 4 4 6 3 1 1 1 1 1 1 3
5 4 11 3 4 3 3 3 1 2 2 4 3 2 2 3 2 3 2 2 8 6 3 4 2 4 3 3 3 6 7 6 2 1 8 4 1 4 5 5 6 6 6 5 4
3 2 7 11 7 4 5 2 3 0 1 0 2 2 4 3 4 3 4 5 9 8 8 6 5 8 6 7 1 8 9 10 10 6 7 12 17 8 9 10 13 13 12 10 9
3 3 2 2 5 3 2 1 3 3 2 2 2 3 3 4 3 4 4 3 5 6 5 3 5 8 15 20 17 20 19 17 18 19 11 14 12 11 6 13 18 16 14 13 12
3 4 5 4 2 1 2 1 0 1 2 1 2 1 2 3 4 3 4 4 2 5 5 1 4 4 8 16 13 13 15 16 18 21 20 23 26 19 19 12 16 18 16 16 15
5 6 3 1 3 2 2 2 2 1 3 1 1 1 3 4 8 9 8 6 2 2 8 3 3 3 6 7 14 12 7 11 8 8 15 15 16 9 6 10 17 19 19 18 16

GFSSW_850_spd_111.txt.gz
Wind_Speed
4 8 7 8 6 5 5 3 4 3 11 18 10 18 13 10 9 10 5 5 5 10 12 8 8 9 7 4 2 1 3 4 3 3 6 3 2 1 3 10 8 8 10 12 14
3 1 5 8 8 7 9 6 3 2 7 19 14 17 14 11 11 7 4 6 10 11 8 11 11 11 5 4 2 3 3 3 5 6 5 3 3 4 5 9 11 12 11 10 11
4 1 1 5 7 10 3 7 9 2 3 11 15 17 23 22 11 5 4 3 10 11 10 11 12 9 6 5 2 2 3 3 3 3 2 2 6 3 7 7 2 8 11 13 15
7 6 5 5 6 4 7 1 2 8 4 11 11 17 28 17 7 1 4 5 9 11 8 11 10 7 7 6 3 4 1 1 1 1 2 4 7 8 14 17 13 15 15 14 14
9 7 7 6 7 4 3 1 2 9 7 15 13 15 20 12 8 3 5 8 8 8 8 8 11 7 7 6 6 3 4 2 1 4 7 9 11 12 19 16 11 8 8 12 16
9 6 6 7 2 2 6 4 4 11 10 16 15 11 15 10 7 5 5 7 7 5 6 6 5 5 8 5 1 3 2 1 3 3 4 7 7 5 1 1 4 8 15 17 19
6 7 9 3 6 12 13 7 8 13 11 19 19 9 19 8 9 6 6 9 10 7 7 8 8 1 7 6 3 2 2 4 4 2 3 6 11 10 11 6 10 17 18 18 16
12 10 9 11 14 17 12 11 8 12 16 23 23 24 11 14 13 8 9 9 9 9 11 10 9 8 4 7 4 3 3 5 7 3 3 3 9 6 2 10 19 22 20 16 14
11 8 8 5 7 10 11 12 10 8 18 22 25 26 7 12 10 7 6 9 9 9 10 9 6 4 4 3 3 6 5 5 7 4 1 7 10 11 12 18 20 20 16 13 14
13 10 7 3 8 15 16 14 15 15 27 20 25 13 9 5 5 8 6 6 5 6 6 3 3 2 2 3 2 4 4 3 4 5 6 13 18 16 19 17 17 11 12 15 16
11 12 13 10 18 20 19 19 17 10 27 9 13 23 18 10 5 6 4 4 3 1 2 1 3 4 5 4 3 2 2 5 6 5 10 9 15 18 18 9 4 7 14 18 19
12 13 18 19 28 23 15 14 14 18 23 32 29 24 10 5 9 8 6 2 3 3 4 3 4 5 5 3 2 3 4 5 6 1 10 13 21 17 2 2 3 8 17 19 23
11 14 12 18 16 17 23 32 22 15 8 12 14 12 5 7 7 10 6 3 5 6 2 2 8 4 0 2 3 1 3 5 5 14 12 10 9 4 7 5 4 8 16 17 19
13 17 20 21 26 27 25 18 8 4 4 9 6 8 7 2 6 8 7 3 3 5 6 6 3 0 0 1 1 1 1 5 8 10 4 10 5 6 2 4 5 12 19 13 17
15 19 12 7 29 13 9 7 8 2 5 8 6 4 7 6 3 6 8 4 6 5 2 3 4 2 1 1 2 4 4 8 8 5 7 5 3 3 2 7 6 16 15 13 15
12 7 24 27 18 12 3 8 0 1 6 3 4 3 6 11 6 2 2 4 2 4 5 4 1 2 3 0 4 4 5 3 3 2 3 1 3 5 3 7 11 15 11 14 15
14 13 11 7 4 3 10 2 2 7 3 4 5 5 8 6 5 4 5 7 3 3 4 1 2 2 2 4 5 5 4 2 2 2 2 4 2 10 9 4 8 11 10 11 12
5 5 6 6 8 10 6 1 10 2 5 3 3 7 5 5 5 5 3 5 5 3 2 1 3 5 6 3 5 4 4 2 3 4 6 3 5 1 1 2 5 7 6 9 11
13 9 3 3 5 2 2 6 4 4 5 6 3 5 4 4 3 1 5 3 3 4 1 1 1 2 3 2 4 3 2 3 3 4 4 5 6 12 5 5 7 7 7 9 9
6 11 13 9 7 7 5 7 4 3 6 3 3 2 3 2 2 3 1 1 2 1 2 2 0 3 3 3 4 3 1 2 3 4 5 5 9 5 3 6 5 5 6 5 7
3 1 7 10 12 10 4 6 6 5 3 2 2 4 3 3 1 2 2 2 1 2 2 3 1 3 2 7 6 4 3 4 3 4 4 6 3 4 4 2 2 2 1 3 5
6 2 8 7 3 4 5 4 4 5 3 1 1 3 2 1 2 1 1 0 5 3 1 2 3 4 6 3 2 6 10 9 5 5 7 8 8 6 4 3 4 3 3 5 5
3 2 10 5 4 4 4 4 2 4 3 3 2 2 1 2 2 2 2 2 5 3 3 2 2 4 2 3 4 6 10 13 11 6 13 9 5 5 6 6 8 9 9 8 6
2 2 6 8 5 8 7 3 4 2 1 1 1 2 3 3 3 1 2 2 3 4 1 1 3 7 8 11 10 10 8 11 14 10 13 17 21 14 11 8 11 14 14 14 12
4 3 1 1 2 4 1 3 5 4 3 3 3 6 3 2 2 3 2 3 5 5 5 3 6 8 16 19 18 20 20 19 20 20 17 22 22 19 13 10 14 17 18 17 17
2 1 2 2 1 2 2 3 4 2 3 3 4 1 3 4 2 3 3 4 4 7 8 5 4 8 10 18 15 17 18 19 20 22 24 25 28 22 26 23 18 17 19 20 19
6 5 2 2 1 3 1 4 6 4 5 4 3 4 6 7 6 7 10 12 9 8 10 7 4 4 7 9 16 16 14 18 14 13 15 17 21 16 13 9 14 14 18 20 19

GFSSW_850_spd_114.txt.gz
Wind_Speed
6 9 8 8 8 9 7 6 6 6 7 10 12 17 12 10 15 10 4 3 4 10 12 8 7 11 7 4 3 5 2 2 4 6 6 5 2 2 4 6 5 6 9 12 15
2 3 8 10 5 9 11 8 6 4 5 8 14 13 14 17 13 9 4 5 9 13 10 10 10 12 5 4 1 2 2 6 8 10 6 7 4 7 4 9 7 9 7 3 7
7 6 5 7 7 6 6 8 5 6 2 7 13 10 24 21 11 7 1 6 11 13 7 7 11 8 5 7 2 2 3 4 9 8 7 5 6 1 5 6 4 9 11 13 15
9 7 8 8 6 4 6 6 4 6 5 4 15 21 24 14 5 6 1 7 8 11 10 10 10 6 6 4 2 3 5 6 4 3 2 4 8 7 13 16 15 11 10 12 10
9 9 10 9 8 6 9 6 5 10 9 11 20 19 15 14 13 8 6 7 8 12 8 5 8 5 5 7 4 2 3 2 3 2 4 7 10 9 18 18 13 10 7 10 13
10 9 8 8 5 5 6 7 7 10 10 19 19 27 15 14 13 7 6 6 5 8 8 5 2 3 7 6 2 5 1 3 2 2 4 5 6 8 3 4 1 4 10 13 17
9 10 6 4 6 8 9 7 11 12 13 14 12 15 20 13 13 9 7 9 10 8 9 10 8 2 8 4 4 4 3 5 6 2 2 6 7 9 13 5 5 11 16 16 14
11 9 11 12 12 11 11 10 11 6 15 24 19 18 11 16 13 11 8 9 9 10 11 13 11 9 5 7 4 4 2 3 3 3 3 3 7 4 6 4 11 16 15 13 11
11 10 9 12 9 11 12 12 17 22 22 19 23 16 9 8 11 8 7 9 9 8 10 10 9 4 3 2 1 4 3 5 4 2 2 4 7 12 15 19 15 14 11 10 9
13 9 7 11 10 14 16 17 25 31 21 18 16 16 7 3 7 8 7 6 6 10 8 5 4 2 2 4 1 4 3 2 1 5 4 8 15 17 20 16 10 10 5 10 12
17 14 11 16 17 22 20 22 13 16 28 14 16 33 18 14 10 6 6 5 3 2 3 4 4 5 7 7 4 5 5 6 6 4 3 8 11 15 18 6 6 2 8 10 13
17 18 25 23 21 16 10 13 13 15 17 30 30 27 16 7 7 10 7 1 2 5 2 2 5 6 5 4 5 5 4 4 6 2 6 9 15 17 8 4 1 1 8 9 13
16 17 23 21 16 19 30 27 22 17 10 14 15 12 8 8 6 10 8 6 7 5 3 5 7 3 2 2 4 3 2 5 4 9 11 8 8 4 4 6 9 5 11 11 16
15 18 18 22 28 32 21 12 6 5 4 8 4 4 6 0 5 8 5 3 4 7 8 6 2 1 1 4 3 1 3 4 7 7 3 7 4 4 9 8 7 10 14 11 16
19 20 22 24 26 7 5 7 4 2 6 6 3 2 4 4 5 6 7 6 8 6 2 3 4 2 2 3 1 2 3 6 4 4 5 2 0 5 6 6 5 9 12 11 16
4 10 13 13 7 3 12 10 3 1 5 1 2 2 6 7 3 3 3 7 3 4 7 4 2 2 3 1 4 4 4 4 2 2 3 2 2 5 3 2 2 8 10 10 16
20 22 11 8 2 7 14 5 4 6 3 2 3 4 5 4 4 4 5 3 3 4 2 3 4 4 3 4 5 5 2 2 2 2 3 3 2 9 5 6 2 5 8 12 13
8 8 3 6 7 9 10 1 8 4 3 3 5 3 2 1 2 4 5 4 2 3 4 4 2 7 7 3 2 2 1 3 3 2 3 5 6 5 6 7 5 3 5 9 12
9 6 6 7 4 3 2 5 4 4 5 8 3 3 1 2 2 2 4 2 3 5 0 3 3 3 4 2 1 1 1 2 0 3 1 4 6 7 8 5 4 1 2 7 6
6 3 12 7 5 2 2 5 3 4 5 5 2 4 4 3 4 4 2 1 3 1 5 2 2 6 5 2 5 3 2 1 1 2 5 6 5 5 6 4 3 4 4 4 4
4 2 12 7 7 5 3 4 5 5 2 3 1 3 4 4 2 2 3 4 2 4 4 3 2 3 3 7 7 3 3 4 3 2 3 4 6 2 6 6 6 5 7 7 5
6 2 11 7 3 5 3 2 3 5 3 1 4 5 3 1 2 1 2 4 4 0 2 4 3 3 8 4 5 1 5 7 3 4 4 3 7 7 7 7 9 10 11 11 9
3 3 10 5 3 3 0 3 4 1 1 1 1 4 3 1 1 1 2 6 5 4 2 2 2 3 1 2 2 4 5 6 6 3 6 2 6 4 6 7 11 12 13 13 11
3 2 5 7 5 7 4 2 3 1 1 2 3 2 1 3 2 0 4 4 7 5 2 1 3 6 5 3 2 6 8 8 10 4 7 15 17 12 8 8 14 20 18 17 17
4 2 1 2 3 2 1 1 4 3 2 2 3 5 3 2 3 3 3 4 6 5 2 2 4 6 9 13 12 16 17 14 15 15 13 19 16 17 12 12 21 23 24 21 21
3 2 2 3 1 7 1 3 4 4 2 4 3 1 2 3 4 3 2 4 4 7 3 5 4 5 7 13 16 18 19 19 20 21 20 21 26 17 24 24 9 11 10 23 21
7 6 3 3 2 2 2 3 2 3 3 4 4 3 6 4 9 8 11 15 11 4 7 4 2 3 5 8 12 13 12 20 17 8 9 15 20 9 6 7 10 11 13 14 18

GFSSW_850_spd_117.txt.gz
Wind_Speed
3 9 16 15 12 10 10 8 8 10 13 11 12 14 13 17 15 9 8 3 7 10 13 16 15 12 6 5 4 2 4 3 4 3 3 4 3 4 4 4 3 2 4 5 2
11 6 11 9 12 9 7 8 5 6 11 9 18 16 18 20 11 12 4 2 10 14 15 12 14 12 7 4 3 5 4 2 3 2 4 5 5 6 4 7 3 6 6 9 9
7 6 9 5 7 5 4 6 6 5 7 11 16 20 26 19 11 9 5 7 14 15 12 9 12 9 6 6 3 3 4 5 5 9 8 3 2 3 1 3 5 6 10 11 15
12 9 10 11 12 6 2 3 4 3 8 14 17 13 20 13 5 12 5 7 12 11 11 13 9 5 5 4 4 5 9 7 4 5 4 1 7 5 8 9 8 8 11 13 10
12 13 11 11 10 9 6 7 8 8 10 17 13 23 17 16 9 9 5 7 11 14 14 11 6 3 5 5 5 5 3 6 5 3 1 5 7 7 12 14 13 12 9 7 7
9 9 10 9 7 8 6 9 12 11 16 21 19 27 18 13 11 9 7 7 11 12 6 7 5 9 9 6 4 5 8 8 4 3 2 2 4 7 2 3 2 4 5 9 13
11 9 8 8 11 8 7 10 13 23 21 20 18 21 21 12 13 15 9 10 9 10 11 10 9 4 7 4 6 7 4 1 3 2 0 5 2 7 8 6 2 4 9 11 14
10 10 12 12 10 10 11 12 15 19 18 17 20 19 10 14 15 12 8 8 7 9 10 11 10 11 5 10 4 3 3 2 1 1 1 3 7 4 8 6 8 11 11 6 5
10 9 14 13 11 13 14 16 15 21 23 23 21 14 8 13 16 12 11 10 10 11 13 10 7 6 4 4 5 4 0 2 1 3 0 1 6 6 5 23 18 8 2 4 1
12 12 14 12 16 24 22 28 26 27 21 16 11 10 10 9 13 8 10 8 10 10 8 6 6 4 5 5 3 1 1 2 2 2 2 3 11 16 25 17 13 4 5 2 5
16 17 15 17 22 22 30 20 16 15 29 15 19 27 19 13 13 11 10 8 6 3 3 6 9 3 2 3 3 3 2 2 3 2 3 5 9 18 18 17 8 6 3 3 8
25 23 22 20 19 18 9 14 14 17 22 26 23 21 13 10 7 9 7 2 2 4 3 7 3 1 3 4 5 5 3 3 3 2 5 8 14 15 15 9 12 8 3 4 11
21 21 17 14 17 24 31 28 18 15 8 14 14 11 10 11 6 9 6 6 6 5 4 6 4 1 2 5 5 4 4 2 2 6 4 6 7 2 0 6 10 9 3 6 12
17 16 23 33 23 23 18 8 4 3 5 9 12 9 10 3 5 8 6 4 6 5 5 6 1 1 3 3 3 2 2 2 4 5 2 5 5 5 5 6 5 6 2 9 12
21 17 25 16 12 10 6 6 1 2 6 6 4 5 6 5 3 7 8 8 4 3 4 3 3 1 3 3 2 2 1 1 2 2 4 3 2 7 4 5 4 1 3 8 10
17 17 18 7 6 7 15 5 1 3 6 1 3 3 3 3 2 3 3 6 3 6 6 3 1 2 1 0 1 3 3 1 2 2 2 5 4 5 5 5 4 3 4 7 9
13 10 2 7 7 10 15 5 5 7 3 1 2 1 3 1 4 2 2 2 3 5 4 5 1 1 1 2 1 2 4 3 3 1 5 3 2 9 4 3 6 4 3 6 10
4 8 8 9 11 11 7 4 10 4 3 3 1 2 3 4 0 3 3 2 2 3 3 4 5 3 4 3 2 4 5 4 4 2 4 4 6 6 5 8 5 0 3 6 8
6 11 12 10 7 5 1 6 6 5 4 4 1 2 0 2 1 2 3 2 2 4 4 4 4 2 3 2 2 2 0 3 2 1 3 3 7 8 6 4 5 4 4 5 3
3 4 11 10 8 6 6 5 3 3 2 3 1 2 2 2 1 3 4 1 2 1 2 3 2 4 2 1 3 2 2 3 2 2 5 6 6 6 5 7 5 7 11 7 3
5 3 15 7 7 9 4 3 4 7 7 3 4 3 3 2 1 2 3 1 2 3 1 1 4 3 3 6 7 2 2 4 2 4 4 4 6 5 9 8 9 12 11 10 8
3 3 11 8 5 5 2 2 4 0 2 3 2 4 2 3 1 1 3 1 6 5 1 2 3 4 9 5 8 5 7 6 4 4 4 2 7 4 7 10 12 8 12 13 13
3 4 9 6 3 2 1 1 1 4 4 2 1 1 1 1 2 1 3 4 7 4 2 2 2 3 6 5 3 4 5 6 3 2 7 3 6 3 5 5 10 13 14 16 17
2 2 4 6 6 6 3 3 1 1 1 2 1 2 1 2 2 1 3 4 8 4 3 2 2 6 6 4 2 4 6 7 8 4 6 18 21 13 7 8 13 19 20 22 24
3 2 2 1 4 2 2 1 3 1 1 1 2 2 1 2 3 3 4 3 4 6 3 4 4 3 7 9 8 13 16 15 17 18 11 19 13 20 8 8 19 28 26 29 29
3 3 2 2 0 2 0 3 3 2 4 3 3 3 3 3 2 3 3 2 5 2 5 4 4 2 5 9 9 14 17 18 21 22 20 23 26 21 28 23 16 13 13 14 25
5 3 1 1 0 2 2 1 1 3 2 4 2 1 4 4 5 9 10 10 8 7 7 5 3 2 5 5 10 10 10 8 6 6 14 16 23 10 8 7 14 15 16 15 15